Wetterdaten: Samstag, 02.06.2018
Datum Zeit Temp. A. Feuchte A. Luftdruck Regen Wind Richtung Richtung Sonnenschein ET UV Solar Taupunkt Windchill Windböen
02.06.2018 00:00 14,6 °C 88 % 1016,9 hPa 0,0 mm 0,0 km/h (0 Bft) S 181 ° 0 min 0,000 mm 0,0 UV-I 0 W/m² 12,6 °C 14,6 °C 0,0 km/h (0 Bft)
02.06.2018 00:01 14,6 °C 88 % 1016,9 hPa 0,0 mm 0,0 km/h (0 Bft) S 181 ° 0 min 0,000 mm 0,0 UV-I 0 W/m² 12,6 °C 14,6 °C 0,0 km/h (0 Bft)
02.06.2018 00:02 14,6 °C 88 % 1017,0 hPa 0,0 mm 0,0 km/h (0 Bft) S 181 ° 0 min 0,000 mm 0,0 UV-I 0 W/m² 12,6 °C 14,6 °C 0,0 km/h (0 Bft)
02.06.2018 00:03 14,6 °C 88 % 1017,0 hPa 0,0 mm 0,0 km/h (0 Bft) S 181 ° 0 min 0,000 mm 0,0 UV-I 0 W/m² 12,6 °C 14,6 °C 0,0 km/h (0 Bft)
02.06.2018 00:04 14,5 °C 88 % 1016,9 hPa 0,0 mm 0,0 km/h (0 Bft) S 181 ° 0 min 0,000 mm 0,0 UV-I 0 W/m² 12,5 °C 14,5 °C 0,0 km/h (0 Bft)
02.06.2018 00:05 14,5 °C 88 % 1017,0 hPa 0,0 mm 0,0 km/h (0 Bft) S 181 ° 0 min 0,000 mm 0,0 UV-I 0 W/m² 12,5 °C 14,5 °C 0,0 km/h (0 Bft)
02.06.2018 00:06 14,6 °C 87 % 1017,0 hPa 0,0 mm 1,5 km/h (1 Bft) S 181 ° 0 min 0,000 mm 0,0 UV-I 0 W/m² 12,5 °C 14,6 °C 4,8 km/h (1 Bft)
02.06.2018 00:07 14,6 °C 87 % 1017,0 hPa 0,0 mm 1,5 km/h (1 Bft) S 181 ° 0 min 0,000 mm 0,0 UV-I 0 W/m² 12,5 °C 14,6 °C 3,2 km/h (1 Bft)
02.06.2018 00:08 14,6 °C 88 % 1017,0 hPa 0,0 mm 0,1 km/h (0 Bft) S 181 ° 0 min 0,000 mm 0,0 UV-I 0 W/m² 12,6 °C 14,6 °C 1,6 km/h (1 Bft)
02.06.2018 00:09 14,6 °C 87 % 1017,0 hPa 0,0 mm 0,3 km/h (0 Bft) S 181 ° 0 min 0,000 mm 0,0 UV-I 0 W/m² 12,5 °C 14,6 °C 3,2 km/h (1 Bft)
02.06.2018 00:10 14,6 °C 87 % 1017,0 hPa 0,0 mm 1,7 km/h (1 Bft) S 181 ° 0 min 0,000 mm 0,0 UV-I 0 W/m² 12,5 °C 14,6 °C 3,2 km/h (1 Bft)
02.06.2018 00:11 14,7 °C 87 % 1017,0 hPa 0,0 mm 1,9 km/h (1 Bft) S 181 ° 0 min 0,000 mm 0,0 UV-I 0 W/m² 12,6 °C 14,7 °C 3,2 km/h (1 Bft)
02.06.2018 00:12 14,6 °C 87 % 1017,0 hPa 0,0 mm 0,3 km/h (0 Bft) S 181 ° 0 min 0,000 mm 0,0 UV-I 0 W/m² 12,5 °C 14,6 °C 1,6 km/h (1 Bft)
02.06.2018 00:13 14,6 °C 87 % 1016,9 hPa 0,0 mm 0,0 km/h (0 Bft) S 181 ° 0 min 0,000 mm 0,0 UV-I 0 W/m² 12,5 °C 14,6 °C 0,0 km/h (0 Bft)
02.06.2018 00:14 14,6 °C 87 % 1017,0 hPa 0,0 mm 0,0 km/h (0 Bft) S 181 ° 0 min 0,000 mm 0,0 UV-I 0 W/m² 12,5 °C 14,6 °C 0,0 km/h (0 Bft)
02.06.2018 00:15 14,6 °C 87 % 1017,0 hPa 0,0 mm 0,0 km/h (0 Bft) S 181 ° 0 min 0,000 mm 0,0 UV-I 0 W/m² 12,5 °C 14,6 °C 0,0 km/h (0 Bft)
02.06.2018 00:16 14,6 °C 87 % 1016,9 hPa 0,0 mm 0,5 km/h (0 Bft) S 181 ° 0 min 0,000 mm 0,0 UV-I 0 W/m² 12,5 °C 14,6 °C 3,2 km/h (1 Bft)
02.06.2018 00:17 14,5 °C 87 % 1016,9 hPa 0,0 mm 0,2 km/h (0 Bft) S 181 ° 0 min 0,000 mm 0,0 UV-I 0 W/m² 12,4 °C 14,5 °C 1,6 km/h (1 Bft)
02.06.2018 00:18 14,5 °C 87 % 1017,0 hPa 0,0 mm 0,0 km/h (0 Bft) S 181 ° 0 min 0,000 mm 0,0 UV-I 0 W/m² 12,4 °C 14,5 °C 0,0 km/h (0 Bft)
02.06.2018 00:19 14,5 °C 87 % 1017,0 hPa 0,0 mm 0,0 km/h (0 Bft) S 181 ° 0 min 0,000 mm 0,0 UV-I 0 W/m² 12,4 °C 14,5 °C 0,0 km/h (0 Bft)
02.06.2018 00:20 14,4 °C 87 % 1017,0 hPa 0,0 mm 0,0 km/h (0 Bft) S 181 ° 0 min 0,000 mm 0,0 UV-I 0 W/m² 12,3 °C 14,4 °C 0,0 km/h (0 Bft)
02.06.2018 00:21 14,3 °C 87 % 1017,0 hPa 0,0 mm 0,0 km/h (0 Bft) S 181 ° 0 min 0,000 mm 0,0 UV-I 0 W/m² 12,2 °C 14,3 °C 0,0 km/h (0 Bft)
02.06.2018 00:22 14,2 °C 87 % 1017,0 hPa 0,0 mm 0,0 km/h (0 Bft) S 181 ° 0 min 0,000 mm 0,0 UV-I 0 W/m² 12,1 °C 14,2 °C 0,0 km/h (0 Bft)
02.06.2018 00:23 14,2 °C 88 % 1017,0 hPa 0,0 mm 0,0 km/h (0 Bft) S 181 ° 0 min 0,000 mm 0,0 UV-I 0 W/m² 12,2 °C 14,2 °C 0,0 km/h (0 Bft)
02.06.2018 00:24 14,1 °C 88 % 1017,0 hPa 0,0 mm 0,0 km/h (0 Bft) S 181 ° 0 min 0,000 mm 0,0 UV-I 0 W/m² 12,1 °C 14,1 °C 0,0 km/h (0 Bft)
02.06.2018 00:25 14,1 °C 88 % 1017,0 hPa 0,0 mm 0,0 km/h (0 Bft) S 181 ° 0 min 0,000 mm 0,0 UV-I 0 W/m² 12,1 °C 14,1 °C 0,0 km/h (0 Bft)
02.06.2018 00:26 14,1 °C 88 % 1017,0 hPa 0,0 mm 0,9 km/h (0 Bft) S 181 ° 0 min 0,000 mm 0,0 UV-I 0 W/m² 12,1 °C 14,1 °C 3,2 km/h (1 Bft)
02.06.2018 00:27 14,1 °C 88 % 1017,0 hPa 0,0 mm 2,3 km/h (1 Bft) S 181 ° 0 min 0,000 mm 0,0 UV-I 0 W/m² 12,1 °C 14,1 °C 4,8 km/h (1 Bft)
02.06.2018 00:28 14,1 °C 88 % 1017,0 hPa 0,0 mm 0,0 km/h (0 Bft) S 181 ° 0 min 0,000 mm 0,0 UV-I 0 W/m² 12,1 °C 14,1 °C 0,0 km/h (0 Bft)
02.06.2018 00:29 14,1 °C 88 % 1017,0 hPa 0,0 mm 0,0 km/h (0 Bft) S 181 ° 0 min 0,000 mm 0,0 UV-I 0 W/m² 12,1 °C 14,1 °C 0,0 km/h (0 Bft)
02.06.2018 00:30 14,1 °C 88 % 1017,0 hPa 0,0 mm 0,0 km/h (0 Bft) S 181 ° 0 min 0,000 mm 0,0 UV-I 0 W/m² 12,1 °C 14,1 °C 0,0 km/h (0 Bft)
02.06.2018 00:31 14,1 °C 88 % 1017,1 hPa 0,0 mm 0,0 km/h (0 Bft) S 181 ° 0 min 0,000 mm 0,0 UV-I 0 W/m² 12,1 °C 14,1 °C 0,0 km/h (0 Bft)
02.06.2018 00:32 14,1 °C 88 % 1017,1 hPa 0,0 mm 0,0 km/h (0 Bft) S 181 ° 0 min 0,000 mm 0,0 UV-I 0 W/m² 12,1 °C 14,1 °C 0,0 km/h (0 Bft)
02.06.2018 00:33 14,1 °C 88 % 1017,1 hPa 0,0 mm 0,0 km/h (0 Bft) S 181 ° 0 min 0,000 mm 0,0 UV-I 0 W/m² 12,1 °C 14,1 °C 0,0 km/h (0 Bft)
02.06.2018 00:34 14,1 °C 88 % 1017,0 hPa 0,0 mm 0,0 km/h (0 Bft) S 181 ° 0 min 0,000 mm 0,0 UV-I 0 W/m² 12,1 °C 14,1 °C 0,0 km/h (0 Bft)
02.06.2018 00:35 14,1 °C 88 % 1017,0 hPa 0,0 mm 0,0 km/h (0 Bft) S 181 ° 0 min 0,000 mm 0,0 UV-I 0 W/m² 12,1 °C 14,1 °C 0,0 km/h (0 Bft)
02.06.2018 00:36 14,0 °C 88 % 1017,0 hPa 0,0 mm 0,0 km/h (0 Bft) S 181 ° 0 min 0,000 mm 0,0 UV-I 0 W/m² 12,0 °C 14,0 °C 0,0 km/h (0 Bft)
02.06.2018 00:37 13,9 °C 88 % 1016,9 hPa 0,0 mm 0,0 km/h (0 Bft) S 181 ° 0 min 0,000 mm 0,0 UV-I 0 W/m² 11,9 °C 13,9 °C 0,0 km/h (0 Bft)
02.06.2018 00:38 13,9 °C 88 % 1017,0 hPa 0,0 mm 0,0 km/h (0 Bft) S 181 ° 0 min 0,000 mm 0,0 UV-I 0 W/m² 11,9 °C 13,9 °C 0,0 km/h (0 Bft)
02.06.2018 00:39 13,9 °C 88 % 1016,9 hPa 0,0 mm 0,3 km/h (0 Bft) S 181 ° 0 min 0,000 mm 0,0 UV-I 0 W/m² 11,9 °C 13,9 °C 1,6 km/h (1 Bft)
02.06.2018 00:40 14,0 °C 88 % 1016,9 hPa 0,0 mm 1,9 km/h (1 Bft) S 181 ° 0 min 0,000 mm 0,0 UV-I 0 W/m² 12,0 °C 14,0 °C 4,8 km/h (1 Bft)
02.06.2018 00:41 14,1 °C 88 % 1017,0 hPa 0,0 mm 4,6 km/h (1 Bft) S-SW 200 ° 0 min 0,000 mm 0,0 UV-I 0 W/m² 12,1 °C 14,1 °C 8,0 km/h (2 Bft)
02.06.2018 00:42 14,2 °C 87 % 1017,0 hPa 0,0 mm 3,9 km/h (1 Bft) S-SW 199 ° 0 min 0,000 mm 0,0 UV-I 0 W/m² 12,1 °C 14,2 °C 8,0 km/h (2 Bft)
02.06.2018 00:43 14,3 °C 87 % 1017,0 hPa 0,0 mm 5,6 km/h (1 Bft) S 188 ° 0 min 0,000 mm 0,0 UV-I 0 W/m² 12,2 °C 14,3 °C 8,0 km/h (2 Bft)
02.06.2018 00:44 14,4 °C 86 % 1017,0 hPa 0,0 mm 5,6 km/h (1 Bft) S-SW 209 ° 0 min 0,000 mm 0,0 UV-I 0 W/m² 12,1 °C 14,4 °C 8,0 km/h (2 Bft)
02.06.2018 00:45 14,6 °C 86 % 1017,0 hPa 0,0 mm 3,2 km/h (1 Bft) S-SW 209 ° 0 min 0,000 mm 0,0 UV-I 0 W/m² 12,3 °C 14,6 °C 4,8 km/h (1 Bft)
02.06.2018 00:46 14,6 °C 86 % 1017,0 hPa 0,0 mm 2,1 km/h (1 Bft) S-SW 209 ° 0 min 0,000 mm 0,0 UV-I 0 W/m² 12,3 °C 14,6 °C 4,8 km/h (1 Bft)
02.06.2018 00:47 14,6 °C 86 % 1017,0 hPa 0,0 mm 4,0 km/h (1 Bft) S-SW 204 ° 0 min 0,000 mm 0,0 UV-I 0 W/m² 12,3 °C 14,6 °C 4,8 km/h (1 Bft)
02.06.2018 00:48 14,6 °C 86 % 1017,0 hPa 0,0 mm 0,9 km/h (0 Bft) S-SW 204 ° 0 min 0,000 mm 0,0 UV-I 0 W/m² 12,3 °C 14,6 °C 3,2 km/h (1 Bft)
02.06.2018 00:49 14,6 °C 86 % 1017,1 hPa 0,0 mm 1,6 km/h (1 Bft) S 186 ° 0 min 0,000 mm 0,0 UV-I 0 W/m² 12,3 °C 14,6 °C 4,8 km/h (1 Bft)
02.06.2018 00:50 14,6 °C 86 % 1017,1 hPa 0,0 mm 2,3 km/h (1 Bft) S 189 ° 0 min 0,000 mm 0,0 UV-I 0 W/m² 12,3 °C 14,6 °C 4,8 km/h (1 Bft)
02.06.2018 00:51 14,7 °C 86 % 1017,0 hPa 0,0 mm 3,2 km/h (1 Bft) S 186 ° 0 min 0,000 mm 0,0 UV-I 0 W/m² 12,4 °C 14,7 °C 6,4 km/h (2 Bft)
02.06.2018 00:52 14,7 °C 86 % 1017,0 hPa 0,0 mm 1,9 km/h (1 Bft) S 186 ° 0 min 0,000 mm 0,0 UV-I 0 W/m² 12,4 °C 14,7 °C 3,2 km/h (1 Bft)
02.06.2018 00:53 14,7 °C 85 % 1017,0 hPa 0,0 mm 2,0 km/h (1 Bft) S 186 ° 0 min 0,000 mm 0,0 UV-I 0 W/m² 12,2 °C 14,7 °C 4,8 km/h (1 Bft)
02.06.2018 00:54 14,7 °C 86 % 1017,0 hPa 0,0 mm 0,8 km/h (0 Bft) S 186 ° 0 min 0,000 mm 0,0 UV-I 0 W/m² 12,4 °C 14,7 °C 3,2 km/h (1 Bft)
02.06.2018 00:55 14,7 °C 86 % 1017,0 hPa 0,0 mm 4,3 km/h (1 Bft) S-SW 207 ° 0 min 0,000 mm 0,0 UV-I 0 W/m² 12,4 °C 14,7 °C 8,0 km/h (2 Bft)
02.06.2018 00:56 14,8 °C 85 % 1017,0 hPa 0,0 mm 4,5 km/h (1 Bft) S-SW 199 ° 0 min 0,000 mm 0,0 UV-I 0 W/m² 12,3 °C 14,8 °C 4,8 km/h (1 Bft)
02.06.2018 00:57 14,8 °C 85 % 1017,0 hPa 0,0 mm 3,4 km/h (1 Bft) S-SW 211 ° 0 min 0,000 mm 0,0 UV-I 0 W/m² 12,3 °C 14,8 °C 6,4 km/h (2 Bft)
02.06.2018 00:58 14,8 °C 85 % 1017,0 hPa 0,0 mm 1,8 km/h (1 Bft) S-SW 208 ° 0 min 0,000 mm 0,0 UV-I 0 W/m² 12,3 °C 14,8 °C 4,8 km/h (1 Bft)
02.06.2018 00:59 14,9 °C 85 % 1017,0 hPa 0,0 mm 7,0 km/h (2 Bft) S-SW 196 ° 0 min 0,000 mm 0,0 UV-I 0 W/m² 12,4 °C 14,9 °C 9,7 km/h (2 Bft)
02.06.2018 01:00 14,9 °C 85 % 1017,0 hPa 0,0 mm 3,4 km/h (1 Bft) S-SW 201 ° 0 min 0,000 mm 0,0 UV-I 0 W/m² 12,4 °C 14,9 °C 4,8 km/h (1 Bft)
02.06.2018 01:01 14,9 °C 84 % 1017,0 hPa 0,0 mm 2,7 km/h (1 Bft) S-SW 200 ° 0 min 0,000 mm 0,0 UV-I 0 W/m² 12,2 °C 14,9 °C 4,8 km/h (1 Bft)
02.06.2018 01:02 14,9 °C 84 % 1017,0 hPa 0,0 mm 5,9 km/h (2 Bft) S-SW 211 ° 0 min 0,000 mm 0,0 UV-I 0 W/m² 12,2 °C 14,9 °C 9,7 km/h (2 Bft)
02.06.2018 01:03 15,0 °C 84 % 1017,1 hPa 0,0 mm 3,0 km/h (1 Bft) S-SW 207 ° 0 min 0,000 mm 0,0 UV-I 0 W/m² 12,3 °C 15,0 °C 8,0 km/h (2 Bft)
02.06.2018 01:04 15,0 °C 85 % 1017,1 hPa 0,0 mm 1,7 km/h (1 Bft) S-SW 206 ° 0 min 0,000 mm 0,0 UV-I 0 W/m² 12,5 °C 15,0 °C 4,8 km/h (1 Bft)
02.06.2018 01:05 14,9 °C 85 % 1017,0 hPa 0,0 mm 0,0 km/h (0 Bft) S-SW 206 ° 0 min 0,000 mm 0,0 UV-I 0 W/m² 12,4 °C 14,9 °C 0,0 km/h (0 Bft)
02.06.2018 01:06 14,9 °C 85 % 1017,0 hPa 0,0 mm 2,4 km/h (1 Bft) S-SW 204 ° 0 min 0,000 mm 0,0 UV-I 0 W/m² 12,4 °C 14,9 °C 6,4 km/h (2 Bft)
02.06.2018 01:07 14,9 °C 84 % 1017,0 hPa 0,0 mm 4,0 km/h (1 Bft) S-SW 198 ° 0 min 0,000 mm 0,0 UV-I 0 W/m² 12,2 °C 14,9 °C 8,0 km/h (2 Bft)
02.06.2018 01:08 14,9 °C 84 % 1017,0 hPa 0,0 mm 1,7 km/h (1 Bft) S-SW 198 ° 0 min 0,000 mm 0,0 UV-I 0 W/m² 12,2 °C 14,9 °C 4,8 km/h (1 Bft)
02.06.2018 01:09 14,9 °C 85 % 1017,0 hPa 0,0 mm 1,3 km/h (1 Bft) S-SW 198 ° 0 min 0,000 mm 0,0 UV-I 0 W/m² 12,4 °C 14,9 °C 3,2 km/h (1 Bft)
02.06.2018 01:10 14,9 °C 84 % 1017,0 hPa 0,0 mm 2,3 km/h (1 Bft) SW 216 ° 0 min 0,000 mm 0,0 UV-I 0 W/m² 12,2 °C 14,9 °C 4,8 km/h (1 Bft)
02.06.2018 01:11 15,0 °C 84 % 1017,0 hPa 0,0 mm 3,4 km/h (1 Bft) SW 216 ° 0 min 0,000 mm 0,0 UV-I 0 W/m² 12,3 °C 15,0 °C 6,4 km/h (2 Bft)
02.06.2018 01:12 15,1 °C 84 % 1017,0 hPa 0,0 mm 4,3 km/h (1 Bft) S-SW 198 ° 0 min 0,000 mm 0,0 UV-I 0 W/m² 12,4 °C 15,1 °C 8,0 km/h (2 Bft)
02.06.2018 01:13 15,1 °C 84 % 1017,0 hPa 0,0 mm 1,9 km/h (1 Bft) S-SW 198 ° 0 min 0,000 mm 0,0 UV-I 0 W/m² 12,4 °C 15,1 °C 3,2 km/h (1 Bft)
02.06.2018 01:14 15,1 °C 84 % 1017,0 hPa 0,0 mm 2,4 km/h (1 Bft) S 188 ° 0 min 0,000 mm 0,0 UV-I 0 W/m² 12,4 °C 15,1 °C 3,2 km/h (1 Bft)
02.06.2018 01:15 15,1 °C 84 % 1017,0 hPa 0,0 mm 2,3 km/h (1 Bft) S 188 ° 0 min 0,000 mm 0,0 UV-I 0 W/m² 12,4 °C 15,1 °C 3,2 km/h (1 Bft)
02.06.2018 01:16 15,1 °C 84 % 1017,0 hPa 0,0 mm 1,9 km/h (1 Bft) S 188 ° 0 min 0,000 mm 0,0 UV-I 0 W/m² 12,4 °C 15,1 °C 3,2 km/h (1 Bft)
02.06.2018 01:17 15,1 °C 84 % 1017,0 hPa 0,0 mm 1,9 km/h (1 Bft) S 188 ° 0 min 0,000 mm 0,0 UV-I 0 W/m² 12,4 °C 15,1 °C 4,8 km/h (1 Bft)
02.06.2018 01:18 15,2 °C 84 % 1017,0 hPa 0,0 mm 3,0 km/h (1 Bft) S-SW 196 ° 0 min 0,000 mm 0,0 UV-I 0 W/m² 12,5 °C 15,2 °C 6,4 km/h (2 Bft)
02.06.2018 01:19 15,2 °C 84 % 1017,0 hPa 0,0 mm 0,9 km/h (0 Bft) S-SW 196 ° 0 min 0,000 mm 0,0 UV-I 0 W/m² 12,5 °C 15,2 °C 3,2 km/h (1 Bft)
02.06.2018 01:20 15,2 °C 83 % 1017,0 hPa 0,0 mm 4,8 km/h (1 Bft) S-SW 198 ° 0 min 0,000 mm 0,0 UV-I 0 W/m² 12,3 °C 15,2 °C 8,0 km/h (2 Bft)
02.06.2018 01:21 15,3 °C 83 % 1017,0 hPa 0,0 mm 3,2 km/h (1 Bft) S 186 ° 0 min 0,000 mm 0,0 UV-I 0 W/m² 12,4 °C 15,3 °C 6,4 km/h (2 Bft)
02.06.2018 01:22 15,4 °C 83 % 1017,0 hPa 0,0 mm 5,4 km/h (1 Bft) S-SW 203 ° 0 min 0,000 mm 0,0 UV-I 0 W/m² 12,5 °C 15,4 °C 8,0 km/h (2 Bft)
02.06.2018 01:23 15,4 °C 83 % 1017,0 hPa 0,0 mm 5,2 km/h (1 Bft) S 191 ° 0 min 0,000 mm 0,0 UV-I 0 W/m² 12,5 °C 15,4 °C 6,4 km/h (2 Bft)
02.06.2018 01:24 15,4 °C 83 % 1017,0 hPa 0,0 mm 4,2 km/h (1 Bft) S-SW 203 ° 0 min 0,000 mm 0,0 UV-I 0 W/m² 12,5 °C 15,4 °C 6,4 km/h (2 Bft)
02.06.2018 01:25 15,4 °C 82 % 1017,0 hPa 0,0 mm 3,6 km/h (1 Bft) S-SW 197 ° 0 min 0,000 mm 0,0 UV-I 0 W/m² 12,3 °C 15,4 °C 4,8 km/h (1 Bft)
02.06.2018 01:26 15,5 °C 82 % 1017,0 hPa 0,0 mm 4,5 km/h (1 Bft) S-SW 195 ° 0 min 0,000 mm 0,0 UV-I 0 W/m² 12,4 °C 15,5 °C 4,8 km/h (1 Bft)
02.06.2018 01:27 15,5 °C 82 % 1017,0 hPa 0,0 mm 5,1 km/h (1 Bft) S-SW 198 ° 0 min 0,000 mm 0,0 UV-I 0 W/m² 12,4 °C 15,5 °C 6,4 km/h (2 Bft)
02.06.2018 01:28 15,5 °C 82 % 1017,0 hPa 0,0 mm 2,8 km/h (1 Bft) S-SW 197 ° 0 min 0,000 mm 0,0 UV-I 0 W/m² 12,4 °C 15,5 °C 6,4 km/h (2 Bft)
02.06.2018 01:29 15,4 °C 82 % 1017,0 hPa 0,0 mm 1,8 km/h (1 Bft) S-SW 197 ° 0 min 0,000 mm 0,0 UV-I 0 W/m² 12,3 °C 15,4 °C 4,8 km/h (1 Bft)
02.06.2018 01:30 15,5 °C 82 % 1017,0 hPa 0,0 mm 3,9 km/h (1 Bft) S 190 ° 0 min 0,000 mm 0,0 UV-I 0 W/m² 12,4 °C 15,5 °C 6,4 km/h (2 Bft)
02.06.2018 01:31 15,4 °C 82 % 1017,0 hPa 0,0 mm 6,8 km/h (2 Bft) S-SW 194 ° 0 min 0,000 mm 0,0 UV-I 0 W/m² 12,3 °C 15,4 °C 9,7 km/h (2 Bft)
02.06.2018 01:32 15,4 °C 83 % 1017,0 hPa 0,0 mm 3,2 km/h (1 Bft) S 180 ° 0 min 0,000 mm 0,0 UV-I 0 W/m² 12,5 °C 15,4 °C 4,8 km/h (1 Bft)
02.06.2018 01:33 15,4 °C 83 % 1017,0 hPa 0,0 mm 1,3 km/h (1 Bft) S 175 ° 0 min 0,000 mm 0,0 UV-I 0 W/m² 12,5 °C 15,4 °C 3,2 km/h (1 Bft)
02.06.2018 01:34 15,4 °C 83 % 1017,0 hPa 0,0 mm 3,7 km/h (1 Bft) S 188 ° 0 min 0,000 mm 0,0 UV-I 0 W/m² 12,5 °C 15,4 °C 4,8 km/h (1 Bft)
02.06.2018 01:35 15,4 °C 82 % 1017,0 hPa 0,0 mm 5,8 km/h (2 Bft) S-SW 200 ° 0 min 0,000 mm 0,0 UV-I 0 W/m² 12,3 °C 15,4 °C 8,0 km/h (2 Bft)
02.06.2018 01:36 15,4 °C 82 % 1017,0 hPa 0,0 mm 5,4 km/h (1 Bft) S 181 ° 0 min 0,000 mm 0,0 UV-I 0 W/m² 12,3 °C 15,4 °C 8,0 km/h (2 Bft)
02.06.2018 01:37 15,4 °C 82 % 1017,0 hPa 0,0 mm 4,6 km/h (1 Bft) S-SW 205 ° 0 min 0,000 mm 0,0 UV-I 0 W/m² 12,3 °C 15,4 °C 6,4 km/h (2 Bft)
02.06.2018 01:38 15,4 °C 83 % 1017,0 hPa 0,0 mm 4,6 km/h (1 Bft) S-SW 198 ° 0 min 0,000 mm 0,0 UV-I 0 W/m² 12,5 °C 15,4 °C 6,4 km/h (2 Bft)
02.06.2018 01:39 15,4 °C 82 % 1017,0 hPa 0,0 mm 5,3 km/h (1 Bft) S 190 ° 0 min 0,000 mm 0,0 UV-I 0 W/m² 12,3 °C 15,4 °C 9,7 km/h (2 Bft)
02.06.2018 01:40 15,4 °C 82 % 1017,0 hPa 0,0 mm 7,0 km/h (2 Bft) S-SW 198 ° 0 min 0,000 mm 0,0 UV-I 0 W/m² 12,3 °C 15,4 °C 9,7 km/h (2 Bft)
02.06.2018 01:41 15,4 °C 82 % 1017,0 hPa 0,0 mm 4,1 km/h (1 Bft) S-SW 199 ° 0 min 0,000 mm 0,0 UV-I 0 W/m² 12,3 °C 15,4 °C 6,4 km/h (2 Bft)
02.06.2018 01:42 15,4 °C 82 % 1017,0 hPa 0,0 mm 3,4 km/h (1 Bft) S-SW 200 ° 0 min 0,000 mm 0,0 UV-I 0 W/m² 12,3 °C 15,4 °C 4,8 km/h (1 Bft)
02.06.2018 01:43 15,4 °C 82 % 1017,0 hPa 0,0 mm 6,2 km/h (2 Bft) S-SW 196 ° 0 min 0,000 mm 0,0 UV-I 0 W/m² 12,3 °C 15,4 °C 8,0 km/h (2 Bft)
02.06.2018 01:44 15,4 °C 83 % 1017,0 hPa 0,0 mm 3,0 km/h (1 Bft) S 184 ° 0 min 0,000 mm 0,0 UV-I 0 W/m² 12,5 °C 15,4 °C 4,8 km/h (1 Bft)
02.06.2018 01:45 15,4 °C 82 % 1017,0 hPa 0,0 mm 6,7 km/h (2 Bft) S 191 ° 0 min 0,000 mm 0,0 UV-I 0 W/m² 12,3 °C 15,4 °C 9,7 km/h (2 Bft)
02.06.2018 01:46 15,4 °C 82 % 1017,0 hPa 0,0 mm 5,2 km/h (1 Bft) S 178 ° 0 min 0,000 mm 0,0 UV-I 0 W/m² 12,3 °C 15,4 °C 8,0 km/h (2 Bft)
02.06.2018 01:47 15,4 °C 82 % 1016,9 hPa 0,0 mm 4,4 km/h (1 Bft) S-SW 198 ° 0 min 0,000 mm 0,0 UV-I 0 W/m² 12,3 °C 15,4 °C 9,7 km/h (2 Bft)
02.06.2018 01:48 15,4 °C 82 % 1016,9 hPa 0,0 mm 8,0 km/h (2 Bft) S 185 ° 0 min 0,000 mm 0,0 UV-I 0 W/m² 12,3 °C 15,4 °C 9,7 km/h (2 Bft)
02.06.2018 01:49 15,4 °C 82 % 1016,9 hPa 0,0 mm 4,4 km/h (1 Bft) S-SW 203 ° 0 min 0,000 mm 0,0 UV-I 0 W/m² 12,3 °C 15,4 °C 8,0 km/h (2 Bft)
02.06.2018 01:50 15,3 °C 82 % 1016,8 hPa 0,0 mm 6,4 km/h (2 Bft) S-SW 202 ° 0 min 0,000 mm 0,0 UV-I 0 W/m² 12,2 °C 15,3 °C 12,9 km/h (3 Bft)
02.06.2018 01:51 15,3 °C 82 % 1016,8 hPa 0,0 mm 7,2 km/h (2 Bft) W 263 ° 0 min 0,000 mm 0,0 UV-I 0 W/m² 12,2 °C 15,3 °C 11,3 km/h (2 Bft)
02.06.2018 01:52 15,3 °C 82 % 1016,9 hPa 0,0 mm 5,3 km/h (1 Bft) S-SW 198 ° 0 min 0,000 mm 0,0 UV-I 0 W/m² 12,2 °C 15,3 °C 8,0 km/h (2 Bft)
02.06.2018 01:53 15,3 °C 82 % 1016,9 hPa 0,0 mm 2,2 km/h (1 Bft) S-SW 198 ° 0 min 0,000 mm 0,0 UV-I 0 W/m² 12,2 °C 15,3 °C 4,8 km/h (1 Bft)
02.06.2018 01:54 15,3 °C 82 % 1016,9 hPa 0,0 mm 0,0 km/h (0 Bft) S-SW 198 ° 0 min 0,000 mm 0,0 UV-I 0 W/m² 12,2 °C 15,3 °C 0,0 km/h (0 Bft)
02.06.2018 01:55 15,3 °C 82 % 1016,9 hPa 0,0 mm 0,3 km/h (0 Bft) S-SW 198 ° 0 min 0,000 mm 0,0 UV-I 0 W/m² 12,2 °C 15,3 °C 1,6 km/h (1 Bft)
02.06.2018 01:56 15,3 °C 82 % 1016,9 hPa 0,0 mm 0,2 km/h (0 Bft) S-SW 198 ° 0 min 0,000 mm 0,0 UV-I 0 W/m² 12,2 °C 15,3 °C 1,6 km/h (1 Bft)
02.06.2018 01:57 15,3 °C 82 % 1016,9 hPa 0,0 mm 0,2 km/h (0 Bft) S-SW 198 ° 0 min 0,000 mm 0,0 UV-I 0 W/m² 12,2 °C 15,3 °C 1,6 km/h (1 Bft)
02.06.2018 01:58 15,3 °C 82 % 1016,9 hPa 0,0 mm 2,2 km/h (1 Bft) W-SW 250 ° 0 min 0,000 mm 0,0 UV-I 0 W/m² 12,2 °C 15,3 °C 3,2 km/h (1 Bft)
02.06.2018 01:59 15,3 °C 82 % 1016,9 hPa 0,0 mm 3,3 km/h (1 Bft) W-NW 286 ° 0 min 0,000 mm 0,0 UV-I 0 W/m² 12,2 °C 15,3 °C 4,8 km/h (1 Bft)
02.06.2018 02:00 15,2 °C 82 % 1016,9 hPa 0,0 mm 1,2 km/h (1 Bft) W-NW 286 ° 0 min 0,000 mm 0,0 UV-I 0 W/m² 12,1 °C 15,2 °C 1,6 km/h (1 Bft)
02.06.2018 02:01 15,1 °C 83 % 1016,9 hPa 0,0 mm 0,9 km/h (0 Bft) W-NW 286 ° 0 min 0,025 mm 0,0 UV-I 0 W/m² 12,2 °C 15,1 °C 3,2 km/h (1 Bft)
02.06.2018 02:02 15,0 °C 83 % 1016,9 hPa 0,0 mm 0,7 km/h (0 Bft) W-NW 286 ° 0 min 0,000 mm 0,0 UV-I 0 W/m² 12,1 °C 15,0 °C 1,6 km/h (1 Bft)
02.06.2018 02:03 14,9 °C 83 % 1017,0 hPa 0,0 mm 1,3 km/h (1 Bft) W-NW 286 ° 0 min 0,000 mm 0,0 UV-I 0 W/m² 12,0 °C 14,9 °C 3,2 km/h (1 Bft)
02.06.2018 02:04 14,8 °C 83 % 1016,9 hPa 0,0 mm 0,3 km/h (0 Bft) W-NW 286 ° 0 min 0,000 mm 0,0 UV-I 0 W/m² 11,9 °C 14,8 °C 1,6 km/h (1 Bft)
02.06.2018 02:05 14,8 °C 83 % 1017,0 hPa 0,0 mm 0,1 km/h (0 Bft) W-NW 286 ° 0 min 0,000 mm 0,0 UV-I 0 W/m² 11,9 °C 14,8 °C 1,6 km/h (1 Bft)
02.06.2018 02:06 14,8 °C 83 % 1017,0 hPa 0,0 mm 0,0 km/h (0 Bft) W-NW 286 ° 0 min 0,000 mm 0,0 UV-I 0 W/m² 11,9 °C 14,8 °C 0,0 km/h (0 Bft)
02.06.2018 02:07 14,8 °C 83 % 1017,0 hPa 0,0 mm 0,0 km/h (0 Bft) W-NW 286 ° 0 min 0,000 mm 0,0 UV-I 0 W/m² 11,9 °C 14,8 °C 0,0 km/h (0 Bft)
02.06.2018 02:08 14,8 °C 83 % 1016,9 hPa 0,0 mm 0,0 km/h (0 Bft) W-NW 286 ° 0 min 0,000 mm 0,0 UV-I 0 W/m² 11,9 °C 14,8 °C 0,0 km/h (0 Bft)
02.06.2018 02:09 14,7 °C 84 % 1017,0 hPa 0,0 mm 0,0 km/h (0 Bft) W-NW 286 ° 0 min 0,000 mm 0,0 UV-I 0 W/m² 12,0 °C 14,7 °C 0,0 km/h (0 Bft)
02.06.2018 02:10 14,7 °C 84 % 1017,0 hPa 0,0 mm 2,0 km/h (1 Bft) W 268 ° 0 min 0,000 mm 0,0 UV-I 0 W/m² 12,0 °C 14,7 °C 4,8 km/h (1 Bft)
02.06.2018 02:11 14,8 °C 84 % 1017,0 hPa 0,0 mm 2,1 km/h (1 Bft) W 268 ° 0 min 0,000 mm 0,0 UV-I 0 W/m² 12,1 °C 14,8 °C 3,2 km/h (1 Bft)
02.06.2018 02:12 14,7 °C 84 % 1017,0 hPa 0,0 mm 0,9 km/h (0 Bft) W 268 ° 0 min 0,000 mm 0,0 UV-I 0 W/m² 12,0 °C 14,7 °C 3,2 km/h (1 Bft)
02.06.2018 02:13 14,7 °C 84 % 1017,0 hPa 0,0 mm 0,6 km/h (0 Bft) W 268 ° 0 min 0,000 mm 0,0 UV-I 0 W/m² 12,0 °C 14,7 °C 3,2 km/h (1 Bft)
02.06.2018 02:14 14,8 °C 84 % 1017,0 hPa 0,0 mm 0,0 km/h (0 Bft) W 268 ° 0 min 0,000 mm 0,0 UV-I 0 W/m² 12,1 °C 14,8 °C 0,0 km/h (0 Bft)
02.06.2018 02:15 14,8 °C 84 % 1017,0 hPa 0,0 mm 0,0 km/h (0 Bft) W 268 ° 0 min 0,000 mm 0,0 UV-I 0 W/m² 12,1 °C 14,8 °C 0,0 km/h (0 Bft)
02.06.2018 02:16 14,8 °C 84 % 1017,0 hPa 0,0 mm 0,0 km/h (0 Bft) W 268 ° 0 min 0,000 mm 0,0 UV-I 0 W/m² 12,1 °C 14,8 °C 0,0 km/h (0 Bft)
02.06.2018 02:17 14,8 °C 83 % 1017,0 hPa 0,0 mm 0,1 km/h (0 Bft) W 268 ° 0 min 0,000 mm 0,0 UV-I 0 W/m² 11,9 °C 14,8 °C 1,6 km/h (1 Bft)
02.06.2018 02:18 14,9 °C 83 % 1017,0 hPa 0,0 mm 0,0 km/h (0 Bft) W 268 ° 0 min 0,000 mm 0,0 UV-I 0 W/m² 12,0 °C 14,9 °C 0,0 km/h (0 Bft)
02.06.2018 02:19 14,9 °C 84 % 1017,0 hPa 0,0 mm 0,0 km/h (0 Bft) W 268 ° 0 min 0,000 mm 0,0 UV-I 0 W/m² 12,2 °C 14,9 °C 0,0 km/h (0 Bft)
02.06.2018 02:20 14,9 °C 83 % 1017,0 hPa 0,0 mm 0,0 km/h (0 Bft) W 268 ° 0 min 0,000 mm 0,0 UV-I 0 W/m² 12,0 °C 14,9 °C 0,0 km/h (0 Bft)
02.06.2018 02:21 14,9 °C 83 % 1017,0 hPa 0,0 mm 0,0 km/h (0 Bft) W 268 ° 0 min 0,000 mm 0,0 UV-I 0 W/m² 12,0 °C 14,9 °C 0,0 km/h (0 Bft)
02.06.2018 02:22 14,9 °C 83 % 1017,0 hPa 0,0 mm 0,0 km/h (0 Bft) W 268 ° 0 min 0,000 mm 0,0 UV-I 0 W/m² 12,0 °C 14,9 °C 0,0 km/h (0 Bft)
02.06.2018 02:23 14,9 °C 84 % 1017,0 hPa 0,0 mm 0,0 km/h (0 Bft) W 268 ° 0 min 0,000 mm 0,0 UV-I 0 W/m² 12,2 °C 14,9 °C 0,0 km/h (0 Bft)
02.06.2018 02:24 14,9 °C 84 % 1017,0 hPa 0,0 mm 0,0 km/h (0 Bft) W 268 ° 0 min 0,000 mm 0,0 UV-I 0 W/m² 12,2 °C 14,9 °C 0,0 km/h (0 Bft)
02.06.2018 02:25 14,8 °C 84 % 1017,0 hPa 0,0 mm 0,0 km/h (0 Bft) W 268 ° 0 min 0,000 mm 0,0 UV-I 0 W/m² 12,1 °C 14,8 °C 0,0 km/h (0 Bft)
02.06.2018 02:26 14,8 °C 84 % 1017,0 hPa 0,0 mm 0,0 km/h (0 Bft) W 268 ° 0 min 0,000 mm 0,0 UV-I 0 W/m² 12,1 °C 14,8 °C 0,0 km/h (0 Bft)
02.06.2018 02:27 14,8 °C 84 % 1017,0 hPa 0,0 mm 0,0 km/h (0 Bft) W 268 ° 0 min 0,000 mm 0,0 UV-I 0 W/m² 12,1 °C 14,8 °C 0,0 km/h (0 Bft)
02.06.2018 02:28 14,8 °C 84 % 1017,0 hPa 0,0 mm 0,0 km/h (0 Bft) W 268 ° 0 min 0,000 mm 0,0 UV-I 0 W/m² 12,1 °C 14,8 °C 0,0 km/h (0 Bft)
02.06.2018 02:29 14,7 °C 84 % 1017,0 hPa 0,0 mm 0,0 km/h (0 Bft) W 268 ° 0 min 0,000 mm 0,0 UV-I 0 W/m² 12,0 °C 14,7 °C 0,0 km/h (0 Bft)
02.06.2018 02:30 14,8 °C 85 % 1016,9 hPa 0,0 mm 0,0 km/h (0 Bft) W 268 ° 0 min 0,000 mm 0,0 UV-I 0 W/m² 12,3 °C 14,8 °C 0,0 km/h (0 Bft)
02.06.2018 02:31 14,8 °C 85 % 1016,9 hPa 0,0 mm 0,0 km/h (0 Bft) W 268 ° 0 min 0,000 mm 0,0 UV-I 0 W/m² 12,3 °C 14,8 °C 0,0 km/h (0 Bft)
02.06.2018 02:32 14,7 °C 85 % 1016,9 hPa 0,0 mm 0,0 km/h (0 Bft) W 268 ° 0 min 0,000 mm 0,0 UV-I 0 W/m² 12,2 °C 14,7 °C 0,0 km/h (0 Bft)
02.06.2018 02:33 14,8 °C 85 % 1016,9 hPa 0,0 mm 0,0 km/h (0 Bft) W 268 ° 0 min 0,000 mm 0,0 UV-I 0 W/m² 12,3 °C 14,8 °C 0,0 km/h (0 Bft)
02.06.2018 02:34 14,8 °C 85 % 1016,9 hPa 0,0 mm 0,0 km/h (0 Bft) W 268 ° 0 min 0,000 mm 0,0 UV-I 0 W/m² 12,3 °C 14,8 °C 0,0 km/h (0 Bft)
02.06.2018 02:35 14,7 °C 85 % 1016,9 hPa 0,0 mm 0,0 km/h (0 Bft) W 268 ° 0 min 0,000 mm 0,0 UV-I 0 W/m² 12,2 °C 14,7 °C 0,0 km/h (0 Bft)
02.06.2018 02:36 14,7 °C 85 % 1016,9 hPa 0,0 mm 0,0 km/h (0 Bft) W 268 ° 0 min 0,000 mm 0,0 UV-I 0 W/m² 12,2 °C 14,7 °C 0,0 km/h (0 Bft)
02.06.2018 02:37 14,7 °C 85 % 1016,9 hPa 0,0 mm 0,0 km/h (0 Bft) W 268 ° 0 min 0,000 mm 0,0 UV-I 0 W/m² 12,2 °C 14,7 °C 0,0 km/h (0 Bft)
02.06.2018 02:38 14,7 °C 85 % 1016,9 hPa 0,0 mm 0,0 km/h (0 Bft) W 268 ° 0 min 0,000 mm 0,0 UV-I 0 W/m² 12,2 °C 14,7 °C 0,0 km/h (0 Bft)
02.06.2018 02:39 14,7 °C 85 % 1016,9 hPa 0,0 mm 0,0 km/h (0 Bft) W 268 ° 0 min 0,000 mm 0,0 UV-I 0 W/m² 12,2 °C 14,7 °C 0,0 km/h (0 Bft)
02.06.2018 02:40 14,7 °C 85 % 1016,9 hPa 0,0 mm 0,0 km/h (0 Bft) W 268 ° 0 min 0,000 mm 0,0 UV-I 0 W/m² 12,2 °C 14,7 °C 0,0 km/h (0 Bft)
02.06.2018 02:41 14,7 °C 85 % 1016,9 hPa 0,0 mm 0,0 km/h (0 Bft) W 268 ° 0 min 0,000 mm 0,0 UV-I 0 W/m² 12,2 °C 14,7 °C 0,0 km/h (0 Bft)
02.06.2018 02:42 14,7 °C 85 % 1016,9 hPa 0,0 mm 0,0 km/h (0 Bft) W 268 ° 0 min 0,000 mm 0,0 UV-I 0 W/m² 12,2 °C 14,7 °C 0,0 km/h (0 Bft)
02.06.2018 02:43 14,7 °C 85 % 1016,9 hPa 0,0 mm 0,0 km/h (0 Bft) W 268 ° 0 min 0,000 mm 0,0 UV-I 0 W/m² 12,2 °C 14,7 °C 0,0 km/h (0 Bft)
02.06.2018 02:44 14,7 °C 85 % 1016,9 hPa 0,0 mm 0,0 km/h (0 Bft) W 268 ° 0 min 0,000 mm 0,0 UV-I 0 W/m² 12,2 °C 14,7 °C 0,0 km/h (0 Bft)
02.06.2018 02:45 14,7 °C 85 % 1016,9 hPa 0,0 mm 0,0 km/h (0 Bft) W 268 ° 0 min 0,000 mm 0,0 UV-I 0 W/m² 12,2 °C 14,7 °C 0,0 km/h (0 Bft)
02.06.2018 02:46 14,7 °C 85 % 1016,9 hPa 0,0 mm 0,0 km/h (0 Bft) W 268 ° 0 min 0,000 mm 0,0 UV-I 0 W/m² 12,2 °C 14,7 °C 0,0 km/h (0 Bft)
02.06.2018 02:47 14,7 °C 85 % 1016,9 hPa 0,0 mm 0,0 km/h (0 Bft) W 268 ° 0 min 0,000 mm 0,0 UV-I 0 W/m² 12,2 °C 14,7 °C 0,0 km/h (0 Bft)
02.06.2018 02:48 14,8 °C 85 % 1016,9 hPa 0,0 mm 0,0 km/h (0 Bft) W 268 ° 0 min 0,000 mm 0,0 UV-I 0 W/m² 12,3 °C 14,8 °C 0,0 km/h (0 Bft)
02.06.2018 02:49 14,7 °C 85 % 1016,9 hPa 0,0 mm 0,0 km/h (0 Bft) W 268 ° 0 min 0,000 mm 0,0 UV-I 0 W/m² 12,2 °C 14,7 °C 0,0 km/h (0 Bft)
02.06.2018 02:50 14,7 °C 85 % 1016,8 hPa 0,0 mm 1,2 km/h (1 Bft) SW 236 ° 0 min 0,000 mm 0,0 UV-I 0 W/m² 12,2 °C 14,7 °C 3,2 km/h (1 Bft)
02.06.2018 02:51 14,8 °C 85 % 1016,8 hPa 0,0 mm 0,1 km/h (0 Bft) SW 236 ° 0 min 0,000 mm 0,0 UV-I 0 W/m² 12,3 °C 14,8 °C 1,6 km/h (1 Bft)
02.06.2018 02:52 14,8 °C 85 % 1016,8 hPa 0,0 mm 0,1 km/h (0 Bft) SW 236 ° 0 min 0,000 mm 0,0 UV-I 0 W/m² 12,3 °C 14,8 °C 1,6 km/h (1 Bft)
02.06.2018 02:53 14,7 °C 85 % 1016,8 hPa 0,0 mm 0,1 km/h (0 Bft) SW 236 ° 0 min 0,000 mm 0,0 UV-I 0 W/m² 12,2 °C 14,7 °C 1,6 km/h (1 Bft)
02.06.2018 02:54 14,7 °C 85 % 1016,8 hPa 0,0 mm 0,0 km/h (0 Bft) SW 236 ° 0 min 0,000 mm 0,0 UV-I 0 W/m² 12,2 °C 14,7 °C 0,0 km/h (0 Bft)
02.06.2018 02:55 14,7 °C 85 % 1016,9 hPa 0,0 mm 0,0 km/h (0 Bft) SW 236 ° 0 min 0,000 mm 0,0 UV-I 0 W/m² 12,2 °C 14,7 °C 0,0 km/h (0 Bft)
02.06.2018 02:56 14,7 °C 85 % 1016,9 hPa 0,0 mm 0,0 km/h (0 Bft) SW 236 ° 0 min 0,000 mm 0,0 UV-I 0 W/m² 12,2 °C 14,7 °C 0,0 km/h (0 Bft)
02.06.2018 02:57 14,7 °C 85 % 1016,8 hPa 0,0 mm 0,0 km/h (0 Bft) SW 236 ° 0 min 0,000 mm 0,0 UV-I 0 W/m² 12,2 °C 14,7 °C 0,0 km/h (0 Bft)
02.06.2018 02:58 14,7 °C 85 % 1016,8 hPa 0,0 mm 0,0 km/h (0 Bft) SW 236 ° 0 min 0,000 mm 0,0 UV-I 0 W/m² 12,2 °C 14,7 °C 0,0 km/h (0 Bft)
02.06.2018 02:59 14,6 °C 85 % 1016,9 hPa 0,0 mm 0,0 km/h (0 Bft) SW 236 ° 0 min 0,000 mm 0,0 UV-I 0 W/m² 12,1 °C 14,6 °C 0,0 km/h (0 Bft)
02.06.2018 03:00 14,5 °C 86 % 1016,9 hPa 0,0 mm 0,0 km/h (0 Bft) SW 236 ° 0 min 0,026 mm 0,0 UV-I 0 W/m² 12,2 °C 14,5 °C 0,0 km/h (0 Bft)
02.06.2018 03:01 14,4 °C 86 % 1016,8 hPa 0,0 mm 0,0 km/h (0 Bft) SW 236 ° 0 min 0,000 mm 0,0 UV-I 0 W/m² 12,1 °C 14,4 °C 0,0 km/h (0 Bft)
02.06.2018 03:02 14,3 °C 86 % 1016,8 hPa 0,0 mm 0,0 km/h (0 Bft) SW 236 ° 0 min 0,000 mm 0,0 UV-I 0 W/m² 12,0 °C 14,3 °C 0,0 km/h (0 Bft)
02.06.2018 03:03 14,3 °C 86 % 1016,8 hPa 0,0 mm 0,0 km/h (0 Bft) SW 236 ° 0 min 0,000 mm 0,0 UV-I 0 W/m² 12,0 °C 14,3 °C 0,0 km/h (0 Bft)
02.06.2018 03:04 14,3 °C 87 % 1016,8 hPa 0,0 mm 0,0 km/h (0 Bft) SW 236 ° 0 min 0,000 mm 0,0 UV-I 0 W/m² 12,2 °C 14,3 °C 0,0 km/h (0 Bft)
02.06.2018 03:05 14,3 °C 87 % 1016,8 hPa 0,0 mm 2,0 km/h (1 Bft) SW 236 ° 0 min 0,000 mm 0,0 UV-I 0 W/m² 12,2 °C 14,3 °C 3,2 km/h (1 Bft)
02.06.2018 03:06 14,3 °C 86 % 1016,8 hPa 0,0 mm 2,1 km/h (1 Bft) SW 236 ° 0 min 0,000 mm 0,0 UV-I 0 W/m² 12,0 °C 14,3 °C 4,8 km/h (1 Bft)
02.06.2018 03:07 14,3 °C 86 % 1016,8 hPa 0,0 mm 3,3 km/h (1 Bft) SW 232 ° 0 min 0,000 mm 0,0 UV-I 0 W/m² 12,0 °C 14,3 °C 4,8 km/h (1 Bft)
02.06.2018 03:08 14,3 °C 86 % 1016,8 hPa 0,0 mm 2,5 km/h (1 Bft) SW 232 ° 0 min 0,000 mm 0,0 UV-I 0 W/m² 12,0 °C 14,3 °C 4,8 km/h (1 Bft)
02.06.2018 03:09 14,3 °C 87 % 1016,7 hPa 0,0 mm 3,7 km/h (1 Bft) SW 218 ° 0 min 0,000 mm 0,0 UV-I 0 W/m² 12,2 °C 14,3 °C 6,4 km/h (2 Bft)
02.06.2018 03:10 14,3 °C 87 % 1016,7 hPa 0,0 mm 2,3 km/h (1 Bft) SW 217 ° 0 min 0,000 mm 0,0 UV-I 0 W/m² 12,2 °C 14,3 °C 4,8 km/h (1 Bft)
02.06.2018 03:11 14,3 °C 86 % 1016,8 hPa 0,0 mm 1,1 km/h (1 Bft) SW 217 ° 0 min 0,000 mm 0,0 UV-I 0 W/m² 12,0 °C 14,3 °C 3,2 km/h (1 Bft)
02.06.2018 03:12 14,3 °C 87 % 1016,8 hPa 0,0 mm 1,7 km/h (1 Bft) SW 217 ° 0 min 0,000 mm 0,0 UV-I 0 W/m² 12,2 °C 14,3 °C 3,2 km/h (1 Bft)
02.06.2018 03:13 14,3 °C 87 % 1016,8 hPa 0,0 mm 1,5 km/h (1 Bft) SW 217 ° 0 min 0,000 mm 0,0 UV-I 0 W/m² 12,2 °C 14,3 °C 3,2 km/h (1 Bft)
02.06.2018 03:14 14,3 °C 87 % 1016,8 hPa 0,0 mm 0,6 km/h (0 Bft) SW 218 ° 0 min 0,000 mm 0,0 UV-I 0 W/m² 12,2 °C 14,3 °C 3,2 km/h (1 Bft)
02.06.2018 03:15 14,3 °C 87 % 1016,7 hPa 0,0 mm 1,5 km/h (1 Bft) SW 218 ° 0 min 0,000 mm 0,0 UV-I 0 W/m² 12,2 °C 14,3 °C 3,2 km/h (1 Bft)
02.06.2018 03:16 14,3 °C 87 % 1016,8 hPa 0,0 mm 0,7 km/h (0 Bft) SW 217 ° 0 min 0,000 mm 0,0 UV-I 0 W/m² 12,2 °C 14,3 °C 1,6 km/h (1 Bft)
02.06.2018 03:17 14,3 °C 87 % 1016,8 hPa 0,0 mm 0,0 km/h (0 Bft) SW 218 ° 0 min 0,000 mm 0,0 UV-I 0 W/m² 12,2 °C 14,3 °C 0,0 km/h (0 Bft)
02.06.2018 03:18 14,2 °C 86 % 1016,8 hPa 0,0 mm 0,0 km/h (0 Bft) SW 218 ° 0 min 0,000 mm 0,0 UV-I 0 W/m² 11,9 °C 14,2 °C 0,0 km/h (0 Bft)
02.06.2018 03:19 14,1 °C 86 % 1016,8 hPa 0,0 mm 0,0 km/h (0 Bft) SW 218 ° 0 min 0,000 mm 0,0 UV-I 0 W/m² 11,8 °C 14,1 °C 0,0 km/h (0 Bft)
02.06.2018 03:20 14,1 °C 87 % 1016,8 hPa 0,0 mm 0,0 km/h (0 Bft) SW 218 ° 0 min 0,000 mm 0,0 UV-I 0 W/m² 12,0 °C 14,1 °C 0,0 km/h (0 Bft)
02.06.2018 03:21 14,0 °C 87 % 1016,8 hPa 0,0 mm 0,0 km/h (0 Bft) SW 218 ° 0 min 0,000 mm 0,0 UV-I 0 W/m² 11,9 °C 14,0 °C 0,0 km/h (0 Bft)
02.06.2018 03:22 13,9 °C 87 % 1016,8 hPa 0,0 mm 0,4 km/h (0 Bft) SW 218 ° 0 min 0,000 mm 0,0 UV-I 0 W/m² 11,8 °C 13,9 °C 1,6 km/h (1 Bft)
02.06.2018 03:23 13,9 °C 88 % 1016,7 hPa 0,0 mm 0,0 km/h (0 Bft) SW 217 ° 0 min 0,000 mm 0,0 UV-I 0 W/m² 11,9 °C 13,9 °C 0,0 km/h (0 Bft)
02.06.2018 03:24 13,9 °C 87 % 1016,7 hPa 0,0 mm 0,0 km/h (0 Bft) SW 218 ° 0 min 0,000 mm 0,0 UV-I 0 W/m² 11,8 °C 13,9 °C 0,0 km/h (0 Bft)
02.06.2018 03:25 13,8 °C 88 % 1016,7 hPa 0,0 mm 0,0 km/h (0 Bft) SW 218 ° 0 min 0,000 mm 0,0 UV-I 0 W/m² 11,8 °C 13,8 °C 0,0 km/h (0 Bft)
02.06.2018 03:26 13,8 °C 88 % 1016,7 hPa 0,0 mm 0,0 km/h (0 Bft) SW 218 ° 0 min 0,000 mm 0,0 UV-I 0 W/m² 11,8 °C 13,8 °C 0,0 km/h (0 Bft)
02.06.2018 03:27 13,8 °C 87 % 1016,7 hPa 0,0 mm 0,0 km/h (0 Bft) SW 218 ° 0 min 0,000 mm 0,0 UV-I 0 W/m² 11,7 °C 13,8 °C 0,0 km/h (0 Bft)
02.06.2018 03:28 13,8 °C 87 % 1016,8 hPa 0,0 mm 0,0 km/h (0 Bft) SW 218 ° 0 min 0,000 mm 0,0 UV-I 0 W/m² 11,7 °C 13,8 °C 0,0 km/h (0 Bft)
02.06.2018 03:29 13,8 °C 87 % 1016,7 hPa 0,0 mm 0,0 km/h (0 Bft) SW 218 ° 0 min 0,000 mm 0,0 UV-I 0 W/m² 11,7 °C 13,8 °C 0,0 km/h (0 Bft)
02.06.2018 03:30 13,8 °C 88 % 1016,7 hPa 0,0 mm 0,0 km/h (0 Bft) SW 218 ° 0 min 0,000 mm 0,0 UV-I 0 W/m² 11,8 °C 13,8 °C 0,0 km/h (0 Bft)
02.06.2018 03:31 13,7 °C 88 % 1016,8 hPa 0,0 mm 0,0 km/h (0 Bft) SW 218 ° 0 min 0,000 mm 0,0 UV-I 0 W/m² 11,7 °C 13,7 °C 0,0 km/h (0 Bft)
02.06.2018 03:32 13,6 °C 88 % 1016,8 hPa 0,0 mm 0,0 km/h (0 Bft) SW 218 ° 0 min 0,000 mm 0,0 UV-I 0 W/m² 11,6 °C 13,6 °C 0,0 km/h (0 Bft)
02.06.2018 03:33 13,4 °C 88 % 1016,8 hPa 0,0 mm 0,0 km/h (0 Bft) SW 218 ° 0 min 0,000 mm 0,0 UV-I 0 W/m² 11,5 °C 13,4 °C 0,0 km/h (0 Bft)
02.06.2018 03:34 13,4 °C 89 % 1016,8 hPa 0,0 mm 0,0 km/h (0 Bft) SW 218 ° 0 min 0,000 mm 0,0 UV-I 0 W/m² 11,6 °C 13,4 °C 0,0 km/h (0 Bft)
02.06.2018 03:35 13,3 °C 89 % 1016,7 hPa 0,0 mm 0,0 km/h (0 Bft) SW 217 ° 0 min 0,000 mm 0,0 UV-I 0 W/m² 11,5 °C 13,3 °C 0,0 km/h (0 Bft)
02.06.2018 03:36 13,3 °C 89 % 1016,7 hPa 0,0 mm 0,0 km/h (0 Bft) SW 218 ° 0 min 0,000 mm 0,0 UV-I 0 W/m² 11,5 °C 13,3 °C 0,0 km/h (0 Bft)
02.06.2018 03:37 13,2 °C 89 % 1016,7 hPa 0,0 mm 0,0 km/h (0 Bft) SW 218 ° 0 min 0,000 mm 0,0 UV-I 0 W/m² 11,4 °C 13,2 °C 0,0 km/h (0 Bft)
02.06.2018 03:38 13,1 °C 89 % 1016,7 hPa 0,0 mm 0,0 km/h (0 Bft) SW 218 ° 0 min 0,000 mm 0,0 UV-I 0 W/m² 11,3 °C 13,1 °C 0,0 km/h (0 Bft)
02.06.2018 03:39 13,1 °C 89 % 1016,7 hPa 0,0 mm 0,0 km/h (0 Bft) SW 218 ° 0 min 0,000 mm 0,0 UV-I 0 W/m² 11,3 °C 13,1 °C 0,0 km/h (0 Bft)
02.06.2018 03:40 12,9 °C 89 % 1016,7 hPa 0,0 mm 0,0 km/h (0 Bft) SW 218 ° 0 min 0,000 mm 0,0 UV-I 0 W/m² 11,1 °C 12,9 °C 0,0 km/h (0 Bft)
02.06.2018 03:41 13,0 °C 90 % 1016,7 hPa 0,0 mm 0,0 km/h (0 Bft) SW 218 ° 0 min 0,000 mm 0,0 UV-I 0 W/m² 11,4 °C 13,0 °C 0,0 km/h (0 Bft)
02.06.2018 03:42 12,9 °C 90 % 1016,7 hPa 0,0 mm 0,0 km/h (0 Bft) SW 218 ° 0 min 0,000 mm 0,0 UV-I 0 W/m² 11,3 °C 12,9 °C 0,0 km/h (0 Bft)
02.06.2018 03:43 12,9 °C 90 % 1016,7 hPa 0,0 mm 0,0 km/h (0 Bft) SW 218 ° 0 min 0,000 mm 0,0 UV-I 0 W/m² 11,3 °C 12,9 °C 0,0 km/h (0 Bft)
02.06.2018 03:44 12,9 °C 90 % 1016,7 hPa 0,0 mm 0,0 km/h (0 Bft) SW 218 ° 0 min 0,000 mm 0,0 UV-I 0 W/m² 11,3 °C 12,9 °C 0,0 km/h (0 Bft)
02.06.2018 03:45 12,9 °C 90 % 1016,7 hPa 0,0 mm 0,0 km/h (0 Bft) SW 218 ° 0 min 0,000 mm 0,0 UV-I 0 W/m² 11,3 °C 12,9 °C 0,0 km/h (0 Bft)
02.06.2018 03:46 12,9 °C 90 % 1016,7 hPa 0,0 mm 0,0 km/h (0 Bft) SW 218 ° 0 min 0,000 mm 0,0 UV-I 0 W/m² 11,3 °C 12,9 °C 0,0 km/h (0 Bft)
02.06.2018 03:47 12,9 °C 90 % 1016,7 hPa 0,0 mm 0,0 km/h (0 Bft) SW 218 ° 0 min 0,000 mm 0,0 UV-I 0 W/m² 11,3 °C 12,9 °C 0,0 km/h (0 Bft)
02.06.2018 03:48 12,9 °C 90 % 1016,7 hPa 0,0 mm 0,0 km/h (0 Bft) SW 218 ° 0 min 0,000 mm 0,0 UV-I 0 W/m² 11,3 °C 12,9 °C 0,0 km/h (0 Bft)
02.06.2018 03:49 12,9 °C 90 % 1016,7 hPa 0,0 mm 0,0 km/h (0 Bft) SW 218 ° 0 min 0,000 mm 0,0 UV-I 0 W/m² 11,3 °C 12,9 °C 0,0 km/h (0 Bft)
02.06.2018 03:50 12,9 °C 90 % 1016,7 hPa 0,0 mm 0,0 km/h (0 Bft) SW 217 ° 0 min 0,000 mm 0,0 UV-I 0 W/m² 11,3 °C 12,9 °C 0,0 km/h (0 Bft)
02.06.2018 03:51 12,9 °C 90 % 1016,7 hPa 0,0 mm 0,0 km/h (0 Bft) SW 218 ° 0 min 0,000 mm 0,0 UV-I 0 W/m² 11,3 °C 12,9 °C 0,0 km/h (0 Bft)
02.06.2018 03:52 12,8 °C 90 % 1016,8 hPa 0,0 mm 0,0 km/h (0 Bft) SW 218 ° 0 min 0,000 mm 0,0 UV-I 0 W/m² 11,2 °C 12,8 °C 0,0 km/h (0 Bft)
02.06.2018 03:53 12,8 °C 90 % 1016,8 hPa 0,0 mm 0,0 km/h (0 Bft) SW 217 ° 0 min 0,000 mm 0,0 UV-I 0 W/m² 11,2 °C 12,8 °C 0,0 km/h (0 Bft)
02.06.2018 03:54 12,8 °C 90 % 1016,7 hPa 0,0 mm 0,0 km/h (0 Bft) SW 218 ° 0 min 0,000 mm 0,0 UV-I 0 W/m² 11,2 °C 12,8 °C 0,0 km/h (0 Bft)
02.06.2018 03:55 12,8 °C 90 % 1016,7 hPa 0,0 mm 0,0 km/h (0 Bft) SW 218 ° 0 min 0,000 mm 0,0 UV-I 0 W/m² 11,2 °C 12,8 °C 0,0 km/h (0 Bft)
02.06.2018 03:56 12,8 °C 90 % 1016,7 hPa 0,0 mm 0,0 km/h (0 Bft) SW 218 ° 0 min 0,000 mm 0,0 UV-I 0 W/m² 11,2 °C 12,8 °C 0,0 km/h (0 Bft)
02.06.2018 03:57 12,8 °C 90 % 1016,8 hPa 0,0 mm 0,0 km/h (0 Bft) SW 218 ° 0 min 0,000 mm 0,0 UV-I 0 W/m² 11,2 °C 12,8 °C 0,0 km/h (0 Bft)
02.06.2018 03:58 12,8 °C 90 % 1016,8 hPa 0,0 mm 0,0 km/h (0 Bft) SW 218 ° 0 min 0,000 mm 0,0 UV-I 0 W/m² 11,2 °C 12,8 °C 0,0 km/h (0 Bft)
02.06.2018 03:59 12,8 °C 90 % 1016,8 hPa 0,0 mm 0,0 km/h (0 Bft) SW 218 ° 0 min 0,000 mm 0,0 UV-I 0 W/m² 11,2 °C 12,8 °C 0,0 km/h (0 Bft)
02.06.2018 04:00 12,8 °C 90 % 1016,8 hPa 0,0 mm 0,0 km/h (0 Bft) SW 218 ° 0 min 0,000 mm 0,0 UV-I 0 W/m² 11,2 °C 12,8 °C 0,0 km/h (0 Bft)
02.06.2018 04:02 12,9 °C 90 % 1016,7 hPa 0,0 mm 0,0 km/h (0 Bft) SW 218 ° 0 min 0,000 mm 0,0 UV-I 0 W/m² 11,3 °C 12,9 °C 0,0 km/h (0 Bft)
02.06.2018 04:03 12,9 °C 90 % 1016,7 hPa 0,0 mm 0,0 km/h (0 Bft) SW 218 ° 0 min 0,000 mm 0,0 UV-I 0 W/m² 11,3 °C 12,9 °C 0,0 km/h (0 Bft)
02.06.2018 04:04 12,9 °C 90 % 1016,8 hPa 0,0 mm 0,0 km/h (0 Bft) SW 218 ° 0 min 0,000 mm 0,0 UV-I 0 W/m² 11,3 °C 12,9 °C 0,0 km/h (0 Bft)
02.06.2018 04:05 12,9 °C 90 % 1016,7 hPa 0,0 mm 0,0 km/h (0 Bft) SW 218 ° 0 min 0,000 mm 0,0 UV-I 0 W/m² 11,3 °C 12,9 °C 0,0 km/h (0 Bft)
02.06.2018 04:06 12,9 °C 90 % 1016,7 hPa 0,0 mm 0,0 km/h (0 Bft) SW 218 ° 0 min 0,000 mm 0,0 UV-I 0 W/m² 11,3 °C 12,9 °C 0,0 km/h (0 Bft)
02.06.2018 04:07 12,9 °C 90 % 1016,8 hPa 0,0 mm 1,2 km/h (1 Bft) SW 217 ° 0 min 0,000 mm 0,0 UV-I 0 W/m² 11,3 °C 12,9 °C 3,2 km/h (1 Bft)
02.06.2018 04:08 12,9 °C 90 % 1016,8 hPa 0,0 mm 0,0 km/h (0 Bft) SW 218 ° 0 min 0,000 mm 0,0 UV-I 0 W/m² 11,3 °C 12,9 °C 0,0 km/h (0 Bft)
02.06.2018 04:09 12,9 °C 90 % 1016,8 hPa 0,0 mm 1,4 km/h (1 Bft) SW 218 ° 0 min 0,000 mm 0,0 UV-I 0 W/m² 11,3 °C 12,9 °C 3,2 km/h (1 Bft)
02.06.2018 04:10 12,9 °C 89 % 1016,8 hPa 0,0 mm 1,5 km/h (1 Bft) SW 217 ° 0 min 0,000 mm 0,0 UV-I 0 W/m² 11,1 °C 12,9 °C 3,2 km/h (1 Bft)
02.06.2018 04:11 12,9 °C 89 % 1016,8 hPa 0,0 mm 2,4 km/h (1 Bft) SW 218 ° 0 min 0,000 mm 0,0 UV-I 0 W/m² 11,1 °C 12,9 °C 3,2 km/h (1 Bft)
02.06.2018 04:12 12,9 °C 90 % 1016,8 hPa 0,0 mm 1,3 km/h (1 Bft) SW 217 ° 0 min 0,000 mm 0,0 UV-I 0 W/m² 11,3 °C 12,9 °C 3,2 km/h (1 Bft)
02.06.2018 04:13 12,9 °C 89 % 1016,8 hPa 0,0 mm 1,5 km/h (1 Bft) SW 217 ° 0 min 0,000 mm 0,0 UV-I 0 W/m² 11,1 °C 12,9 °C 3,2 km/h (1 Bft)
02.06.2018 04:14 12,9 °C 89 % 1016,8 hPa 0,0 mm 2,3 km/h (1 Bft) SW 217 ° 0 min 0,000 mm 0,0 UV-I 0 W/m² 11,1 °C 12,9 °C 3,2 km/h (1 Bft)
02.06.2018 04:15 12,9 °C 89 % 1016,8 hPa 0,0 mm 1,5 km/h (1 Bft) SW 217 ° 0 min 0,000 mm 0,0 UV-I 0 W/m² 11,1 °C 12,9 °C 3,2 km/h (1 Bft)
02.06.2018 04:16 12,8 °C 90 % 1016,8 hPa 0,0 mm 2,5 km/h (1 Bft) SW 218 ° 0 min 0,000 mm 0,0 UV-I 0 W/m² 11,2 °C 12,8 °C 4,8 km/h (1 Bft)
02.06.2018 04:17 12,8 °C 90 % 1016,8 hPa 0,0 mm 3,0 km/h (1 Bft) SW 217 ° 0 min 0,000 mm 0,0 UV-I 0 W/m² 11,2 °C 12,8 °C 4,8 km/h (1 Bft)
02.06.2018 04:18 12,8 °C 90 % 1016,8 hPa 0,0 mm 2,1 km/h (1 Bft) SW 217 ° 0 min 0,000 mm 0,0 UV-I 0 W/m² 11,2 °C 12,8 °C 4,8 km/h (1 Bft)
02.06.2018 04:19 12,8 °C 90 % 1016,8 hPa 0,0 mm 2,7 km/h (1 Bft) SW 217 ° 0 min 0,000 mm 0,0 UV-I 0 W/m² 11,2 °C 12,8 °C 3,2 km/h (1 Bft)
02.06.2018 04:20 12,8 °C 90 % 1016,8 hPa 0,0 mm 2,5 km/h (1 Bft) SW 217 ° 0 min 0,000 mm 0,0 UV-I 0 W/m² 11,2 °C 12,8 °C 3,2 km/h (1 Bft)
02.06.2018 04:21 12,9 °C 90 % 1016,8 hPa 0,0 mm 1,5 km/h (1 Bft) SW 217 ° 0 min 0,000 mm 0,0 UV-I 0 W/m² 11,3 °C 12,9 °C 3,2 km/h (1 Bft)
02.06.2018 04:22 12,9 °C 90 % 1016,8 hPa 0,0 mm 2,1 km/h (1 Bft) SW 217 ° 0 min 0,000 mm 0,0 UV-I 0 W/m² 11,3 °C 12,9 °C 4,8 km/h (1 Bft)
02.06.2018 04:23 12,9 °C 90 % 1016,8 hPa 0,0 mm 2,1 km/h (1 Bft) SW 218 ° 0 min 0,000 mm 0,0 UV-I 0 W/m² 11,3 °C 12,9 °C 3,2 km/h (1 Bft)
02.06.2018 04:24 12,9 °C 90 % 1016,8 hPa 0,0 mm 3,9 km/h (1 Bft) SW 217 ° 0 min 0,000 mm 0,0 UV-I 0 W/m² 11,3 °C 12,9 °C 6,4 km/h (2 Bft)
02.06.2018 04:25 12,9 °C 90 % 1016,8 hPa 0,0 mm 2,9 km/h (1 Bft) SW 217 ° 0 min 0,000 mm 0,0 UV-I 0 W/m² 11,3 °C 12,9 °C 4,8 km/h (1 Bft)
02.06.2018 04:26 12,9 °C 90 % 1016,7 hPa 0,0 mm 3,8 km/h (1 Bft) SW 217 ° 0 min 0,000 mm 0,0 UV-I 0 W/m² 11,3 °C 12,9 °C 6,4 km/h (2 Bft)
02.06.2018 04:27 13,0 °C 90 % 1016,8 hPa 0,0 mm 3,8 km/h (1 Bft) SW 217 ° 0 min 0,000 mm 0,0 UV-I 0 W/m² 11,4 °C 13,0 °C 4,8 km/h (1 Bft)
02.06.2018 04:28 13,0 °C 90 % 1016,8 hPa 0,0 mm 1,4 km/h (1 Bft) SW 217 ° 0 min 0,000 mm 0,0 UV-I 0 W/m² 11,4 °C 13,0 °C 3,2 km/h (1 Bft)
02.06.2018 04:29 13,1 °C 90 % 1016,7 hPa 0,0 mm 0,0 km/h (0 Bft) SW 217 ° 0 min 0,000 mm 0,0 UV-I 0 W/m² 11,5 °C 13,1 °C 0,0 km/h (0 Bft)
02.06.2018 04:30 13,1 °C 90 % 1016,8 hPa 0,0 mm 0,0 km/h (0 Bft) SW 217 ° 0 min 0,000 mm 0,0 UV-I 0 W/m² 11,5 °C 13,1 °C 0,0 km/h (0 Bft)
02.06.2018 04:31 13,1 °C 90 % 1016,8 hPa 0,0 mm 0,0 km/h (0 Bft) SW 217 ° 0 min 0,000 mm 0,0 UV-I 0 W/m² 11,5 °C 13,1 °C 0,0 km/h (0 Bft)
02.06.2018 04:32 13,1 °C 90 % 1016,8 hPa 0,0 mm 0,0 km/h (0 Bft) SW 217 ° 0 min 0,000 mm 0,0 UV-I 0 W/m² 11,5 °C 13,1 °C 0,0 km/h (0 Bft)
02.06.2018 04:33 12,9 °C 89 % 1016,8 hPa 0,0 mm 1,4 km/h (1 Bft) SW 217 ° 0 min 0,000 mm 0,0 UV-I 0 W/m² 11,1 °C 12,9 °C 3,2 km/h (1 Bft)
02.06.2018 04:34 12,8 °C 89 % 1016,8 hPa 0,0 mm 0,2 km/h (0 Bft) SW 217 ° 0 min 0,000 mm 0,0 UV-I 0 W/m² 11,0 °C 12,8 °C 1,6 km/h (1 Bft)
02.06.2018 04:35 12,7 °C 89 % 1016,8 hPa 0,0 mm 0,0 km/h (0 Bft) SW 217 ° 0 min 0,000 mm 0,0 UV-I 0 W/m² 10,9 °C 12,7 °C 0,0 km/h (0 Bft)
02.06.2018 04:36 12,6 °C 89 % 1016,8 hPa 0,0 mm 0,0 km/h (0 Bft) SW 217 ° 0 min 0,000 mm 0,0 UV-I 0 W/m² 10,8 °C 12,6 °C 0,0 km/h (0 Bft)
02.06.2018 04:37 12,4 °C 89 % 1016,7 hPa 0,0 mm 0,0 km/h (0 Bft) SW 217 ° 0 min 0,000 mm 0,0 UV-I 0 W/m² 10,6 °C 12,4 °C 0,0 km/h (0 Bft)
02.06.2018 04:38 12,4 °C 90 % 1016,8 hPa 0,0 mm 0,0 km/h (0 Bft) SW 217 ° 0 min 0,000 mm 0,0 UV-I 0 W/m² 10,8 °C 12,4 °C 0,0 km/h (0 Bft)
02.06.2018 04:39 12,3 °C 90 % 1016,8 hPa 0,0 mm 0,0 km/h (0 Bft) SW 217 ° 0 min 0,000 mm 0,0 UV-I 0 W/m² 10,7 °C 12,3 °C 0,0 km/h (0 Bft)
02.06.2018 04:40 12,3 °C 90 % 1016,7 hPa 0,0 mm 0,0 km/h (0 Bft) SW 217 ° 0 min 0,000 mm 0,0 UV-I 0 W/m² 10,7 °C 12,3 °C 0,0 km/h (0 Bft)
02.06.2018 04:41 12,2 °C 91 % 1016,8 hPa 0,0 mm 0,0 km/h (0 Bft) SW 217 ° 0 min 0,000 mm 0,0 UV-I 0 W/m² 10,8 °C 12,2 °C 0,0 km/h (0 Bft)
02.06.2018 04:42 12,3 °C 91 % 1016,8 hPa 0,0 mm 0,0 km/h (0 Bft) SW 217 ° 0 min 0,000 mm 0,0 UV-I 0 W/m² 10,9 °C 12,3 °C 0,0 km/h (0 Bft)
02.06.2018 04:43 12,3 °C 91 % 1016,7 hPa 0,0 mm 0,0 km/h (0 Bft) SW 217 ° 0 min 0,000 mm 0,0 UV-I 0 W/m² 10,9 °C 12,3 °C 0,0 km/h (0 Bft)
02.06.2018 04:44 12,3 °C 91 % 1016,8 hPa 0,0 mm 0,0 km/h (0 Bft) SW 217 ° 0 min 0,000 mm 0,0 UV-I 0 W/m² 10,9 °C 12,3 °C 0,0 km/h (0 Bft)
02.06.2018 04:45 12,3 °C 91 % 1016,7 hPa 0,0 mm 0,0 km/h (0 Bft) SW 217 ° 0 min 0,000 mm 0,0 UV-I 0 W/m² 10,9 °C 12,3 °C 0,0 km/h (0 Bft)
02.06.2018 04:46 12,3 °C 91 % 1016,8 hPa 0,0 mm 0,0 km/h (0 Bft) SW 217 ° 0 min 0,000 mm 0,0 UV-I 0 W/m² 10,9 °C 12,3 °C 0,0 km/h (0 Bft)
02.06.2018 04:47 12,3 °C 91 % 1016,8 hPa 0,0 mm 0,0 km/h (0 Bft) SW 217 ° 0 min 0,000 mm 0,0 UV-I 0 W/m² 10,9 °C 12,3 °C 0,0 km/h (0 Bft)
02.06.2018 04:48 12,3 °C 91 % 1016,8 hPa 0,0 mm 0,0 km/h (0 Bft) SW 217 ° 0 min 0,000 mm 0,0 UV-I 0 W/m² 10,9 °C 12,3 °C 0,0 km/h (0 Bft)
02.06.2018 04:49 12,3 °C 91 % 1016,7 hPa 0,0 mm 0,0 km/h (0 Bft) SW 217 ° 0 min 0,000 mm 0,0 UV-I 0 W/m² 10,9 °C 12,3 °C 0,0 km/h (0 Bft)
02.06.2018 04:50 12,3 °C 91 % 1016,7 hPa 0,0 mm 0,0 km/h (0 Bft) SW 217 ° 0 min 0,000 mm 0,0 UV-I 0 W/m² 10,9 °C 12,3 °C 0,0 km/h (0 Bft)
02.06.2018 04:51 12,3 °C 91 % 1016,8 hPa 0,0 mm 0,0 km/h (0 Bft) SW 217 ° 0 min 0,000 mm 0,0 UV-I 0 W/m² 10,9 °C 12,3 °C 0,0 km/h (0 Bft)
02.06.2018 04:52 12,4 °C 91 % 1016,8 hPa 0,0 mm 0,0 km/h (0 Bft) SW 217 ° 0 min 0,000 mm 0,0 UV-I 0 W/m² 11,0 °C 12,4 °C 0,0 km/h (0 Bft)
02.06.2018 04:53 12,4 °C 91 % 1016,8 hPa 0,0 mm 0,0 km/h (0 Bft) SW 217 ° 0 min 0,000 mm 0,0 UV-I 0 W/m² 11,0 °C 12,4 °C 0,0 km/h (0 Bft)
02.06.2018 04:54 12,3 °C 91 % 1016,8 hPa 0,0 mm 0,0 km/h (0 Bft) SW 217 ° 0 min 0,000 mm 0,0 UV-I 0 W/m² 10,9 °C 12,3 °C 0,0 km/h (0 Bft)
02.06.2018 04:55 12,3 °C 91 % 1016,8 hPa 0,0 mm 0,0 km/h (0 Bft) SW 217 ° 0 min 0,000 mm 0,0 UV-I 0 W/m² 10,9 °C 12,3 °C 0,0 km/h (0 Bft)
02.06.2018 04:56 12,3 °C 91 % 1016,8 hPa 0,0 mm 0,0 km/h (0 Bft) SW 217 ° 0 min 0,000 mm 0,0 UV-I 0 W/m² 10,9 °C 12,3 °C 0,0 km/h (0 Bft)
02.06.2018 04:57 12,3 °C 91 % 1016,7 hPa 0,0 mm 0,0 km/h (0 Bft) SW 217 ° 0 min 0,000 mm 0,0 UV-I 0 W/m² 10,9 °C 12,3 °C 0,0 km/h (0 Bft)
02.06.2018 04:58 12,4 °C 91 % 1016,8 hPa 0,0 mm 0,0 km/h (0 Bft) SW 217 ° 0 min 0,000 mm 0,0 UV-I 0 W/m² 11,0 °C 12,4 °C 0,0 km/h (0 Bft)
02.06.2018 04:59 12,4 °C 91 % 1016,7 hPa 0,0 mm 0,0 km/h (0 Bft) SW 217 ° 0 min 0,000 mm 0,0 UV-I 0 W/m² 11,0 °C 12,4 °C 0,0 km/h (0 Bft)
02.06.2018 05:00 12,4 °C 91 % 1016,7 hPa 0,0 mm 0,0 km/h (0 Bft) SW 217 ° 0 min 0,000 mm 0,0 UV-I 0 W/m² 11,0 °C 12,4 °C 0,0 km/h (0 Bft)
02.06.2018 05:01 12,4 °C 91 % 1016,7 hPa 0,0 mm 0,0 km/h (0 Bft) SW 217 ° 0 min 0,000 mm 0,0 UV-I 0 W/m² 11,0 °C 12,4 °C 0,0 km/h (0 Bft)
02.06.2018 05:02 12,4 °C 91 % 1016,7 hPa 0,0 mm 0,0 km/h (0 Bft) SW 217 ° 0 min 0,000 mm 0,0 UV-I 0 W/m² 11,0 °C 12,4 °C 0,0 km/h (0 Bft)
02.06.2018 05:03 12,4 °C 91 % 1016,6 hPa 0,0 mm 0,0 km/h (0 Bft) SW 217 ° 0 min 0,000 mm 0,0 UV-I 0 W/m² 11,0 °C 12,4 °C 0,0 km/h (0 Bft)
02.06.2018 05:04 12,4 °C 91 % 1016,7 hPa 0,0 mm 0,0 km/h (0 Bft) SW 217 ° 0 min 0,000 mm 0,0 UV-I 0 W/m² 11,0 °C 12,4 °C 0,0 km/h (0 Bft)
02.06.2018 05:05 12,4 °C 91 % 1016,6 hPa 0,0 mm 0,0 km/h (0 Bft) SW 217 ° 0 min 0,000 mm 0,0 UV-I 0 W/m² 11,0 °C 12,4 °C 0,0 km/h (0 Bft)
02.06.2018 05:06 12,4 °C 91 % 1016,6 hPa 0,0 mm 0,0 km/h (0 Bft) SW 217 ° 0 min 0,000 mm 0,0 UV-I 0 W/m² 11,0 °C 12,4 °C 0,0 km/h (0 Bft)
02.06.2018 05:07 12,4 °C 91 % 1016,6 hPa 0,0 mm 0,0 km/h (0 Bft) SW 217 ° 0 min 0,000 mm 0,0 UV-I 0 W/m² 11,0 °C 12,4 °C 0,0 km/h (0 Bft)
02.06.2018 05:08 12,4 °C 91 % 1016,6 hPa 0,0 mm 0,0 km/h (0 Bft) SW 217 ° 0 min 0,000 mm 0,0 UV-I 0 W/m² 11,0 °C 12,4 °C 0,0 km/h (0 Bft)
02.06.2018 05:09 12,4 °C 91 % 1016,6 hPa 0,0 mm 0,0 km/h (0 Bft) SW 217 ° 0 min 0,000 mm 0,0 UV-I 0 W/m² 11,0 °C 12,4 °C 0,0 km/h (0 Bft)
02.06.2018 05:10 12,4 °C 91 % 1016,6 hPa 0,0 mm 0,0 km/h (0 Bft) SW 217 ° 0 min 0,000 mm 0,0 UV-I 0 W/m² 11,0 °C 12,4 °C 0,0 km/h (0 Bft)
02.06.2018 05:11 12,4 °C 91 % 1016,6 hPa 0,0 mm 0,0 km/h (0 Bft) SW 217 ° 0 min 0,000 mm 0,0 UV-I 0 W/m² 11,0 °C 12,4 °C 0,0 km/h (0 Bft)
02.06.2018 05:12 12,4 °C 91 % 1016,6 hPa 0,0 mm 0,0 km/h (0 Bft) SW 217 ° 0 min 0,000 mm 0,0 UV-I 0 W/m² 11,0 °C 12,4 °C 0,0 km/h (0 Bft)
02.06.2018 05:13 12,5 °C 91 % 1016,6 hPa 0,0 mm 0,0 km/h (0 Bft) SW 217 ° 0 min 0,000 mm 0,0 UV-I 0 W/m² 11,1 °C 12,5 °C 0,0 km/h (0 Bft)
02.06.2018 05:14 12,5 °C 91 % 1016,6 hPa 0,0 mm 0,0 km/h (0 Bft) SW 217 ° 0 min 0,000 mm 0,0 UV-I 0 W/m² 11,1 °C 12,5 °C 0,0 km/h (0 Bft)
02.06.2018 05:15 12,5 °C 91 % 1016,6 hPa 0,0 mm 0,0 km/h (0 Bft) SW 217 ° 0 min 0,000 mm 0,0 UV-I 0 W/m² 11,1 °C 12,5 °C 0,0 km/h (0 Bft)
02.06.2018 05:16 12,5 °C 91 % 1016,6 hPa 0,0 mm 0,0 km/h (0 Bft) SW 217 ° 0 min 0,000 mm 0,0 UV-I 0 W/m² 11,1 °C 12,5 °C 0,0 km/h (0 Bft)
02.06.2018 05:17 12,4 °C 91 % 1016,7 hPa 0,0 mm 0,0 km/h (0 Bft) SW 217 ° 0 min 0,000 mm 0,0 UV-I 0 W/m² 11,0 °C 12,4 °C 0,0 km/h (0 Bft)
02.06.2018 05:18 12,4 °C 91 % 1016,6 hPa 0,0 mm 0,0 km/h (0 Bft) SW 217 ° 0 min 0,000 mm 0,0 UV-I 0 W/m² 11,0 °C 12,4 °C 0,0 km/h (0 Bft)
02.06.2018 05:19 12,4 °C 91 % 1016,7 hPa 0,0 mm 0,0 km/h (0 Bft) SW 217 ° 0 min 0,000 mm 0,0 UV-I 0 W/m² 11,0 °C 12,4 °C 0,0 km/h (0 Bft)
02.06.2018 05:20 12,4 °C 92 % 1016,7 hPa 0,0 mm 0,0 km/h (0 Bft) SW 217 ° 0 min 0,000 mm 0,0 UV-I 0 W/m² 11,1 °C 12,4 °C 0,0 km/h (0 Bft)
02.06.2018 05:21 12,4 °C 92 % 1016,7 hPa 0,0 mm 0,0 km/h (0 Bft) SW 217 ° 0 min 0,000 mm 0,0 UV-I 0 W/m² 11,1 °C 12,4 °C 0,0 km/h (0 Bft)
02.06.2018 05:22 12,4 °C 92 % 1016,6 hPa 0,0 mm 0,0 km/h (0 Bft) SW 217 ° 0 min 0,000 mm 0,0 UV-I 0 W/m² 11,1 °C 12,4 °C 0,0 km/h (0 Bft)
02.06.2018 05:23 12,4 °C 92 % 1016,7 hPa 0,0 mm 0,0 km/h (0 Bft) SW 217 ° 0 min 0,000 mm 0,0 UV-I 0 W/m² 11,1 °C 12,4 °C 0,0 km/h (0 Bft)
02.06.2018 05:24 12,4 °C 92 % 1016,7 hPa 0,0 mm 0,0 km/h (0 Bft) SW 217 ° 0 min 0,000 mm 0,0 UV-I 0 W/m² 11,1 °C 12,4 °C 0,0 km/h (0 Bft)
02.06.2018 05:25 12,4 °C 92 % 1016,7 hPa 0,0 mm 0,0 km/h (0 Bft) SW 217 ° 0 min 0,000 mm 0,0 UV-I 0 W/m² 11,1 °C 12,4 °C 0,0 km/h (0 Bft)
02.06.2018 05:26 12,4 °C 92 % 1016,6 hPa 0,0 mm 0,0 km/h (0 Bft) SW 217 ° 0 min 0,000 mm 0,0 UV-I 0 W/m² 11,1 °C 12,4 °C 0,0 km/h (0 Bft)
02.06.2018 05:27 12,4 °C 92 % 1016,7 hPa 0,0 mm 0,0 km/h (0 Bft) SW 217 ° 0 min 0,000 mm 0,0 UV-I 0 W/m² 11,1 °C 12,4 °C 0,0 km/h (0 Bft)
02.06.2018 05:28 12,4 °C 92 % 1016,7 hPa 0,0 mm 0,0 km/h (0 Bft) SW 217 ° 0 min 0,000 mm 0,0 UV-I 0 W/m² 11,1 °C 12,4 °C 0,0 km/h (0 Bft)
02.06.2018 05:29 12,4 °C 92 % 1016,7 hPa 0,0 mm 0,0 km/h (0 Bft) SW 217 ° 0 min 0,000 mm 0,0 UV-I 0 W/m² 11,1 °C 12,4 °C 0,0 km/h (0 Bft)
02.06.2018 05:30 12,4 °C 92 % 1016,7 hPa 0,0 mm 0,0 km/h (0 Bft) SW 217 ° 0 min 0,000 mm 0,0 UV-I 0 W/m² 11,1 °C 12,4 °C 0,0 km/h (0 Bft)
02.06.2018 05:31 12,4 °C 92 % 1016,7 hPa 0,0 mm 0,0 km/h (0 Bft) SW 217 ° 0 min 0,000 mm 0,0 UV-I 0 W/m² 11,1 °C 12,4 °C 0,0 km/h (0 Bft)
02.06.2018 05:32 12,4 °C 92 % 1016,7 hPa 0,0 mm 0,0 km/h (0 Bft) SW 217 ° 0 min 0,000 mm 0,0 UV-I 0 W/m² 11,1 °C 12,4 °C 0,0 km/h (0 Bft)
02.06.2018 05:33 12,5 °C 92 % 1016,7 hPa 0,0 mm 0,0 km/h (0 Bft) SW 217 ° 0 min 0,000 mm 0,0 UV-I 0 W/m² 11,2 °C 12,5 °C 0,0 km/h (0 Bft)
02.06.2018 05:34 12,6 °C 92 % 1016,7 hPa 0,0 mm 0,0 km/h (0 Bft) SW 217 ° 0 min 0,000 mm 0,0 UV-I 0 W/m² 11,3 °C 12,6 °C 0,0 km/h (0 Bft)
02.06.2018 05:35 12,6 °C 92 % 1016,7 hPa 0,0 mm 0,0 km/h (0 Bft) SW 217 ° 0 min 0,000 mm 0,0 UV-I 0 W/m² 11,3 °C 12,6 °C 0,0 km/h (0 Bft)
02.06.2018 05:36 12,7 °C 92 % 1016,7 hPa 0,0 mm 0,0 km/h (0 Bft) SW 217 ° 0 min 0,000 mm 0,0 UV-I 5 W/m² 11,4 °C 12,7 °C 0,0 km/h (0 Bft)
02.06.2018 05:37 12,8 °C 92 % 1016,7 hPa 0,0 mm 0,0 km/h (0 Bft) SW 217 ° 0 min 0,000 mm 0,0 UV-I 5 W/m² 11,5 °C 12,8 °C 0,0 km/h (0 Bft)
02.06.2018 05:38 12,8 °C 92 % 1016,7 hPa 0,0 mm 0,0 km/h (0 Bft) SW 217 ° 0 min 0,000 mm 0,0 UV-I 5 W/m² 11,5 °C 12,8 °C 0,0 km/h (0 Bft)
02.06.2018 05:39 12,9 °C 92 % 1016,8 hPa 0,0 mm 0,0 km/h (0 Bft) SW 217 ° 0 min 0,000 mm 0,0 UV-I 5 W/m² 11,6 °C 12,9 °C 0,0 km/h (0 Bft)
02.06.2018 05:40 12,9 °C 92 % 1016,8 hPa 0,0 mm 0,0 km/h (0 Bft) SW 217 ° 0 min 0,000 mm 0,0 UV-I 5 W/m² 11,6 °C 12,9 °C 0,0 km/h (0 Bft)
02.06.2018 05:41 13,0 °C 92 % 1016,8 hPa 0,0 mm 0,0 km/h (0 Bft) SW 217 ° 0 min 0,000 mm 0,0 UV-I 7 W/m² 11,7 °C 13,0 °C 0,0 km/h (0 Bft)
02.06.2018 05:42 12,9 °C 92 % 1016,8 hPa 0,0 mm 0,0 km/h (0 Bft) SW 217 ° 0 min 0,000 mm 0,0 UV-I 7 W/m² 11,6 °C 12,9 °C 0,0 km/h (0 Bft)
02.06.2018 05:43 12,8 °C 91 % 1016,8 hPa 0,0 mm 0,0 km/h (0 Bft) SW 217 ° 0 min 0,000 mm 0,0 UV-I 7 W/m² 11,4 °C 12,8 °C 0,0 km/h (0 Bft)
02.06.2018 05:44 12,7 °C 91 % 1016,9 hPa 0,0 mm 0,0 km/h (0 Bft) SW 217 ° 0 min 0,000 mm 0,0 UV-I 7 W/m² 11,3 °C 12,7 °C 0,0 km/h (0 Bft)
02.06.2018 05:45 12,6 °C 91 % 1016,8 hPa 0,0 mm 0,0 km/h (0 Bft) SW 217 ° 0 min 0,000 mm 0,0 UV-I 7 W/m² 11,2 °C 12,6 °C 0,0 km/h (0 Bft)
02.06.2018 05:46 12,6 °C 91 % 1016,8 hPa 0,0 mm 0,0 km/h (0 Bft) SW 217 ° 0 min 0,000 mm 0,0 UV-I 9 W/m² 11,2 °C 12,6 °C 0,0 km/h (0 Bft)
02.06.2018 05:47 12,5 °C 91 % 1016,8 hPa 0,0 mm 0,0 km/h (0 Bft) SW 217 ° 0 min 0,000 mm 0,0 UV-I 11 W/m² 11,1 °C 12,5 °C 0,0 km/h (0 Bft)
02.06.2018 05:48 12,4 °C 91 % 1016,8 hPa 0,0 mm 0,0 km/h (0 Bft) SW 217 ° 0 min 0,000 mm 0,0 UV-I 11 W/m² 11,0 °C 12,4 °C 0,0 km/h (0 Bft)
02.06.2018 05:49 12,4 °C 92 % 1016,8 hPa 0,0 mm 0,0 km/h (0 Bft) SW 217 ° 0 min 0,000 mm 0,0 UV-I 11 W/m² 11,1 °C 12,4 °C 0,0 km/h (0 Bft)
02.06.2018 05:50 12,4 °C 92 % 1016,8 hPa 0,0 mm 0,0 km/h (0 Bft) SW 217 ° 0 min 0,000 mm 0,0 UV-I 11 W/m² 11,1 °C 12,4 °C 0,0 km/h (0 Bft)
02.06.2018 05:51 12,4 °C 92 % 1016,9 hPa 0,0 mm 0,0 km/h (0 Bft) SW 217 ° 0 min 0,000 mm 0,0 UV-I 11 W/m² 11,1 °C 12,4 °C 0,0 km/h (0 Bft)
02.06.2018 05:52 12,4 °C 92 % 1016,9 hPa 0,0 mm 0,0 km/h (0 Bft) SW 217 ° 0 min 0,000 mm 0,0 UV-I 11 W/m² 11,1 °C 12,4 °C 0,0 km/h (0 Bft)
02.06.2018 05:53 12,4 °C 92 % 1016,9 hPa 0,0 mm 0,0 km/h (0 Bft) SW 217 ° 0 min 0,000 mm 0,0 UV-I 9 W/m² 11,1 °C 12,4 °C 0,0 km/h (0 Bft)
02.06.2018 05:54 12,5 °C 92 % 1016,9 hPa 0,0 mm 0,0 km/h (0 Bft) SW 217 ° 0 min 0,000 mm 0,0 UV-I 9 W/m² 11,2 °C 12,5 °C 0,0 km/h (0 Bft)
02.06.2018 05:55 12,5 °C 92 % 1016,9 hPa 0,0 mm 0,0 km/h (0 Bft) SW 217 ° 0 min 0,000 mm 0,0 UV-I 9 W/m² 11,2 °C 12,5 °C 0,0 km/h (0 Bft)
02.06.2018 05:56 12,5 °C 92 % 1016,9 hPa 0,0 mm 0,0 km/h (0 Bft) SW 217 ° 0 min 0,000 mm 0,0 UV-I 9 W/m² 11,2 °C 12,5 °C 0,0 km/h (0 Bft)
02.06.2018 05:57 12,6 °C 92 % 1017,0 hPa 0,0 mm 0,0 km/h (0 Bft) SW 217 ° 0 min 0,000 mm 0,0 UV-I 11 W/m² 11,3 °C 12,6 °C 0,0 km/h (0 Bft)
02.06.2018 05:58 12,6 °C 92 % 1017,0 hPa 0,0 mm 0,0 km/h (0 Bft) SW 217 ° 0 min 0,000 mm 0,0 UV-I 12 W/m² 11,3 °C 12,6 °C 0,0 km/h (0 Bft)
02.06.2018 05:59 12,6 °C 92 % 1017,0 hPa 0,0 mm 0,0 km/h (0 Bft) SW 217 ° 0 min 0,000 mm 0,0 UV-I 12 W/m² 11,3 °C 12,6 °C 0,0 km/h (0 Bft)
02.06.2018 06:00 12,6 °C 92 % 1017,0 hPa 0,0 mm 0,0 km/h (0 Bft) SW 217 ° 0 min 0,000 mm 0,0 UV-I 12 W/m² 11,3 °C 12,6 °C 0,0 km/h (0 Bft)
02.06.2018 06:01 12,6 °C 92 % 1017,0 hPa 0,0 mm 0,0 km/h (0 Bft) SW 217 ° 0 min 0,000 mm 0,0 UV-I 12 W/m² 11,3 °C 12,6 °C 0,0 km/h (0 Bft)
02.06.2018 06:02 12,7 °C 92 % 1017,0 hPa 0,0 mm 0,0 km/h (0 Bft) SW 217 ° 0 min 0,000 mm 0,0 UV-I 12 W/m² 11,4 °C 12,7 °C 0,0 km/h (0 Bft)
02.06.2018 06:03 12,7 °C 92 % 1017,0 hPa 0,0 mm 0,0 km/h (0 Bft) SW 217 ° 0 min 0,000 mm 0,0 UV-I 12 W/m² 11,4 °C 12,7 °C 0,0 km/h (0 Bft)
02.06.2018 06:04 12,7 °C 92 % 1017,0 hPa 0,0 mm 0,0 km/h (0 Bft) SW 217 ° 0 min 0,000 mm 0,0 UV-I 12 W/m² 11,4 °C 12,7 °C 0,0 km/h (0 Bft)
02.06.2018 06:05 12,8 °C 92 % 1017,0 hPa 0,0 mm 0,0 km/h (0 Bft) SW 217 ° 0 min 0,000 mm 0,0 UV-I 12 W/m² 11,5 °C 12,8 °C 0,0 km/h (0 Bft)
02.06.2018 06:06 12,8 °C 92 % 1017,0 hPa 0,0 mm 0,0 km/h (0 Bft) SW 217 ° 0 min 0,000 mm 0,0 UV-I 12 W/m² 11,5 °C 12,8 °C 0,0 km/h (0 Bft)
02.06.2018 06:07 12,8 °C 92 % 1017,0 hPa 0,0 mm 0,0 km/h (0 Bft) SW 217 ° 0 min 0,000 mm 0,0 UV-I 14 W/m² 11,5 °C 12,8 °C 0,0 km/h (0 Bft)
02.06.2018 06:08 12,8 °C 92 % 1017,0 hPa 0,0 mm 0,0 km/h (0 Bft) SW 217 ° 0 min 0,000 mm 0,0 UV-I 14 W/m² 11,5 °C 12,8 °C 0,0 km/h (0 Bft)
02.06.2018 06:09 12,8 °C 92 % 1017,0 hPa 0,0 mm 0,0 km/h (0 Bft) SW 217 ° 0 min 0,000 mm 0,0 UV-I 16 W/m² 11,5 °C 12,8 °C 0,0 km/h (0 Bft)
02.06.2018 06:10 12,8 °C 91 % 1017,0 hPa 0,0 mm 0,0 km/h (0 Bft) SW 217 ° 0 min 0,000 mm 0,0 UV-I 16 W/m² 11,4 °C 12,8 °C 0,0 km/h (0 Bft)
02.06.2018 06:11 12,8 °C 91 % 1017,0 hPa 0,0 mm 0,0 km/h (0 Bft) SW 217 ° 0 min 0,000 mm 0,0 UV-I 16 W/m² 11,4 °C 12,8 °C 0,0 km/h (0 Bft)
02.06.2018 06:12 12,9 °C 91 % 1017,0 hPa 0,0 mm 0,0 km/h (0 Bft) SW 217 ° 0 min 0,000 mm 0,0 UV-I 16 W/m² 11,5 °C 12,9 °C 0,0 km/h (0 Bft)
02.06.2018 06:13 12,9 °C 91 % 1017,0 hPa 0,0 mm 0,0 km/h (0 Bft) SW 217 ° 0 min 0,000 mm 0,0 UV-I 18 W/m² 11,5 °C 12,9 °C 0,0 km/h (0 Bft)
02.06.2018 06:14 13,0 °C 92 % 1017,0 hPa 0,0 mm 0,0 km/h (0 Bft) SW 217 ° 0 min 0,000 mm 0,0 UV-I 18 W/m² 11,7 °C 13,0 °C 0,0 km/h (0 Bft)
02.06.2018 06:15 13,1 °C 92 % 1017,1 hPa 0,0 mm 0,0 km/h (0 Bft) SW 217 ° 0 min 0,000 mm 0,0 UV-I 18 W/m² 11,8 °C 13,1 °C 0,0 km/h (0 Bft)
02.06.2018 06:16 13,1 °C 92 % 1017,0 hPa 0,0 mm 0,0 km/h (0 Bft) SW 217 ° 0 min 0,000 mm 0,0 UV-I 18 W/m² 11,8 °C 13,1 °C 0,0 km/h (0 Bft)
02.06.2018 06:17 13,2 °C 92 % 1017,0 hPa 0,0 mm 0,0 km/h (0 Bft) SW 217 ° 0 min 0,000 mm 0,0 UV-I 19 W/m² 11,9 °C 13,2 °C 0,0 km/h (0 Bft)
02.06.2018 06:18 13,2 °C 91 % 1017,1 hPa 0,0 mm 0,0 km/h (0 Bft) SW 217 ° 0 min 0,000 mm 0,0 UV-I 19 W/m² 11,8 °C 13,2 °C 0,0 km/h (0 Bft)
02.06.2018 06:19 13,2 °C 91 % 1017,0 hPa 0,0 mm 0,0 km/h (0 Bft) SW 217 ° 0 min 0,000 mm 0,0 UV-I 21 W/m² 11,8 °C 13,2 °C 0,0 km/h (0 Bft)
02.06.2018 06:20 13,2 °C 91 % 1017,0 hPa 0,0 mm 0,0 km/h (0 Bft) SW 217 ° 0 min 0,000 mm 0,0 UV-I 21 W/m² 11,8 °C 13,2 °C 0,0 km/h (0 Bft)
02.06.2018 06:21 13,2 °C 91 % 1017,0 hPa 0,0 mm 0,0 km/h (0 Bft) SW 217 ° 0 min 0,000 mm 0,0 UV-I 25 W/m² 11,8 °C 13,2 °C 0,0 km/h (0 Bft)
02.06.2018 06:22 13,2 °C 91 % 1017,0 hPa 0,0 mm 0,0 km/h (0 Bft) SW 217 ° 0 min 0,000 mm 0,0 UV-I 25 W/m² 11,8 °C 13,2 °C 0,0 km/h (0 Bft)
02.06.2018 06:23 13,2 °C 91 % 1017,0 hPa 0,0 mm 0,0 km/h (0 Bft) SW 217 ° 0 min 0,000 mm 0,0 UV-I 26 W/m² 11,8 °C 13,2 °C 0,0 km/h (0 Bft)
02.06.2018 06:24 13,2 °C 91 % 1017,1 hPa 0,0 mm 0,0 km/h (0 Bft) SW 217 ° 0 min 0,000 mm 0,0 UV-I 26 W/m² 11,8 °C 13,2 °C 0,0 km/h (0 Bft)
02.06.2018 06:25 13,2 °C 91 % 1017,1 hPa 0,0 mm 0,0 km/h (0 Bft) SW 217 ° 0 min 0,000 mm 0,0 UV-I 26 W/m² 11,8 °C 13,2 °C 0,0 km/h (0 Bft)
02.06.2018 06:26 13,2 °C 91 % 1017,1 hPa 0,0 mm 0,0 km/h (0 Bft) SW 217 ° 0 min 0,000 mm 0,0 UV-I 26 W/m² 11,8 °C 13,2 °C 0,0 km/h (0 Bft)
02.06.2018 06:27 13,3 °C 91 % 1017,1 hPa 0,0 mm 0,0 km/h (0 Bft) SW 217 ° 0 min 0,000 mm 0,0 UV-I 28 W/m² 11,9 °C 13,3 °C 0,0 km/h (0 Bft)
02.06.2018 06:28 13,3 °C 91 % 1017,1 hPa 0,0 mm 0,0 km/h (0 Bft) SW 217 ° 0 min 0,000 mm 0,0 UV-I 28 W/m² 11,9 °C 13,3 °C 0,0 km/h (0 Bft)
02.06.2018 06:29 13,3 °C 91 % 1017,1 hPa 0,0 mm 0,0 km/h (0 Bft) SW 217 ° 0 min 0,000 mm 0,0 UV-I 30 W/m² 11,9 °C 13,3 °C 0,0 km/h (0 Bft)
02.06.2018 06:30 13,3 °C 91 % 1017,1 hPa 0,0 mm 0,0 km/h (0 Bft) SW 217 ° 0 min 0,000 mm 0,0 UV-I 33 W/m² 11,9 °C 13,3 °C 0,0 km/h (0 Bft)
02.06.2018 06:31 13,3 °C 91 % 1017,0 hPa 0,0 mm 0,0 km/h (0 Bft) SW 217 ° 0 min 0,000 mm 0,0 UV-I 35 W/m² 11,9 °C 13,3 °C 0,0 km/h (0 Bft)
02.06.2018 06:32 13,3 °C 91 % 1017,0 hPa 0,0 mm 0,0 km/h (0 Bft) SW 217 ° 0 min 0,000 mm 0,0 UV-I 39 W/m² 11,9 °C 13,3 °C 0,0 km/h (0 Bft)
02.06.2018 06:33 13,3 °C 91 % 1017,1 hPa 0,0 mm 0,0 km/h (0 Bft) SW 217 ° 0 min 0,000 mm 0,0 UV-I 39 W/m² 11,9 °C 13,3 °C 0,0 km/h (0 Bft)
02.06.2018 06:34 13,3 °C 91 % 1017,0 hPa 0,0 mm 0,0 km/h (0 Bft) SW 217 ° 0 min 0,000 mm 0,0 UV-I 40 W/m² 11,9 °C 13,3 °C 0,0 km/h (0 Bft)
02.06.2018 06:35 13,3 °C 91 % 1017,0 hPa 0,0 mm 0,0 km/h (0 Bft) SW 217 ° 0 min 0,000 mm 0,0 UV-I 40 W/m² 11,9 °C 13,3 °C 0,0 km/h (0 Bft)
02.06.2018 06:36 13,3 °C 91 % 1017,0 hPa 0,0 mm 0,0 km/h (0 Bft) SW 217 ° 0 min 0,000 mm 0,0 UV-I 40 W/m² 11,9 °C 13,3 °C 0,0 km/h (0 Bft)
02.06.2018 06:37 13,3 °C 91 % 1017,0 hPa 0,0 mm 0,0 km/h (0 Bft) SW 217 ° 0 min 0,000 mm 0,0 UV-I 42 W/m² 11,9 °C 13,3 °C 0,0 km/h (0 Bft)
02.06.2018 06:38 13,4 °C 91 % 1017,0 hPa 0,0 mm 0,0 km/h (0 Bft) SW 217 ° 0 min 0,000 mm 0,0 UV-I 42 W/m² 12,0 °C 13,4 °C 0,0 km/h (0 Bft)
02.06.2018 06:39 13,4 °C 91 % 1017,0 hPa 0,0 mm 0,0 km/h (0 Bft) SW 217 ° 0 min 0,000 mm 0,0 UV-I 44 W/m² 12,0 °C 13,4 °C 0,0 km/h (0 Bft)
02.06.2018 06:40 13,5 °C 91 % 1017,0 hPa 0,0 mm 0,0 km/h (0 Bft) SW 217 ° 0 min 0,000 mm 0,0 UV-I 44 W/m² 12,1 °C 13,5 °C 0,0 km/h (0 Bft)
02.06.2018 06:41 13,6 °C 91 % 1017,0 hPa 0,0 mm 0,6 km/h (0 Bft) SW 217 ° 0 min 0,000 mm 0,0 UV-I 46 W/m² 12,2 °C 13,6 °C 3,2 km/h (1 Bft)
02.06.2018 06:42 13,6 °C 91 % 1017,0 hPa 0,0 mm 1,0 km/h (0 Bft) SW 217 ° 0 min 0,000 mm 0,0 UV-I 46 W/m² 12,2 °C 13,6 °C 3,2 km/h (1 Bft)
02.06.2018 06:43 13,7 °C 91 % 1017,1 hPa 0,0 mm 1,4 km/h (1 Bft) SW 217 ° 0 min 0,000 mm 0,0 UV-I 47 W/m² 12,3 °C 13,7 °C 3,2 km/h (1 Bft)
02.06.2018 06:44 13,7 °C 91 % 1017,0 hPa 0,0 mm 1,0 km/h (0 Bft) SW 217 ° 0 min 0,000 mm 0,0 UV-I 49 W/m² 12,3 °C 13,7 °C 3,2 km/h (1 Bft)
02.06.2018 06:45 13,8 °C 91 % 1017,1 hPa 0,0 mm 0,0 km/h (0 Bft) SW 217 ° 0 min 0,000 mm 0,0 UV-I 49 W/m² 12,4 °C 13,8 °C 0,0 km/h (0 Bft)
02.06.2018 06:46 13,8 °C 91 % 1017,1 hPa 0,0 mm 0,0 km/h (0 Bft) SW 217 ° 0 min 0,000 mm 0,0 UV-I 51 W/m² 12,4 °C 13,8 °C 0,0 km/h (0 Bft)
02.06.2018 06:47 13,9 °C 91 % 1017,1 hPa 0,0 mm 0,0 km/h (0 Bft) SW 217 ° 0 min 0,000 mm 0,0 UV-I 53 W/m² 12,5 °C 13,9 °C 0,0 km/h (0 Bft)
02.06.2018 06:48 13,9 °C 91 % 1017,1 hPa 0,0 mm 0,0 km/h (0 Bft) SW 217 ° 0 min 0,000 mm 0,0 UV-I 53 W/m² 12,5 °C 13,9 °C 0,0 km/h (0 Bft)
02.06.2018 06:49 13,9 °C 90 % 1017,1 hPa 0,0 mm 0,0 km/h (0 Bft) SW 217 ° 0 min 0,000 mm 0,0 UV-I 54 W/m² 12,3 °C 13,9 °C 0,0 km/h (0 Bft)
02.06.2018 06:50 14,0 °C 90 % 1017,1 hPa 0,0 mm 0,0 km/h (0 Bft) SW 217 ° 0 min 0,000 mm 0,0 UV-I 54 W/m² 12,4 °C 14,0 °C 0,0 km/h (0 Bft)
02.06.2018 06:51 14,0 °C 90 % 1017,1 hPa 0,0 mm 0,0 km/h (0 Bft) SW 217 ° 0 min 0,000 mm 0,0 UV-I 54 W/m² 12,4 °C 14,0 °C 0,0 km/h (0 Bft)
02.06.2018 06:52 14,0 °C 90 % 1017,1 hPa 0,0 mm 2,5 km/h (1 Bft) SW 217 ° 0 min 0,000 mm 0,0 UV-I 54 W/m² 12,4 °C 14,0 °C 4,8 km/h (1 Bft)
02.06.2018 06:53 14,1 °C 89 % 1017,1 hPa 0,0 mm 5,9 km/h (2 Bft) SW 215 ° 0 min 0,000 mm 0,0 UV-I 54 W/m² 12,3 °C 14,1 °C 8,0 km/h (2 Bft)
02.06.2018 06:54 14,1 °C 89 % 1017,1 hPa 0,0 mm 3,4 km/h (1 Bft) SW 215 ° 0 min 0,000 mm 0,0 UV-I 54 W/m² 12,3 °C 14,1 °C 4,8 km/h (1 Bft)
02.06.2018 06:55 14,1 °C 89 % 1017,2 hPa 0,0 mm 1,6 km/h (1 Bft) SW 215 ° 0 min 0,000 mm 0,0 UV-I 54 W/m² 12,3 °C 14,1 °C 3,2 km/h (1 Bft)
02.06.2018 06:56 14,2 °C 89 % 1017,2 hPa 0,0 mm 0,5 km/h (0 Bft) SW 215 ° 0 min 0,000 mm 0,0 UV-I 54 W/m² 12,4 °C 14,2 °C 3,2 km/h (1 Bft)
02.06.2018 06:57 14,2 °C 89 % 1017,2 hPa 0,0 mm 0,0 km/h (0 Bft) SW 215 ° 0 min 0,000 mm 0,0 UV-I 54 W/m² 12,4 °C 14,2 °C 0,0 km/h (0 Bft)
02.06.2018 06:58 14,2 °C 89 % 1017,2 hPa 0,0 mm 0,0 km/h (0 Bft) SW 215 ° 0 min 0,000 mm 0,0 UV-I 53 W/m² 12,4 °C 14,2 °C 0,0 km/h (0 Bft)
02.06.2018 06:59 14,2 °C 89 % 1017,2 hPa 0,0 mm 0,7 km/h (0 Bft) SW 215 ° 0 min 0,000 mm 0,0 UV-I 53 W/m² 12,4 °C 14,2 °C 1,6 km/h (1 Bft)
02.06.2018 07:00 14,2 °C 89 % 1017,2 hPa 0,0 mm 0,1 km/h (0 Bft) SW 215 ° 0 min 0,025 mm 0,0 UV-I 53 W/m² 12,4 °C 14,2 °C 1,6 km/h (1 Bft)
02.06.2018 07:01 14,2 °C 89 % 1017,2 hPa 0,0 mm 0,0 km/h (0 Bft) SW 215 ° 0 min 0,000 mm 0,0 UV-I 53 W/m² 12,4 °C 14,2 °C 0,0 km/h (0 Bft)
02.06.2018 07:02 14,3 °C 89 % 1017,3 hPa 0,0 mm 0,0 km/h (0 Bft) SW 215 ° 0 min 0,000 mm 0,0 UV-I 54 W/m² 12,5 °C 14,3 °C 0,0 km/h (0 Bft)
02.06.2018 07:03 14,3 °C 89 % 1017,2 hPa 0,0 mm 0,0 km/h (0 Bft) SW 215 ° 0 min 0,000 mm 0,0 UV-I 56 W/m² 12,5 °C 14,3 °C 0,0 km/h (0 Bft)
02.06.2018 07:04 14,3 °C 89 % 1017,2 hPa 0,0 mm 0,0 km/h (0 Bft) SW 215 ° 0 min 0,000 mm 0,0 UV-I 58 W/m² 12,5 °C 14,3 °C 0,0 km/h (0 Bft)
02.06.2018 07:05 14,3 °C 89 % 1017,2 hPa 0,0 mm 0,0 km/h (0 Bft) SW 215 ° 0 min 0,000 mm 0,0 UV-I 58 W/m² 12,5 °C 14,3 °C 0,0 km/h (0 Bft)
02.06.2018 07:06 14,3 °C 89 % 1017,2 hPa 0,0 mm 0,0 km/h (0 Bft) SW 215 ° 0 min 0,000 mm 0,0 UV-I 60 W/m² 12,5 °C 14,3 °C 0,0 km/h (0 Bft)
02.06.2018 07:07 14,3 °C 89 % 1017,2 hPa 0,0 mm 0,0 km/h (0 Bft) SW 215 ° 0 min 0,000 mm 0,0 UV-I 62 W/m² 12,5 °C 14,3 °C 0,0 km/h (0 Bft)
02.06.2018 07:08 14,3 °C 89 % 1017,2 hPa 0,0 mm 0,0 km/h (0 Bft) SW 215 ° 0 min 0,000 mm 0,0 UV-I 63 W/m² 12,5 °C 14,3 °C 0,0 km/h (0 Bft)
02.06.2018 07:09 14,3 °C 90 % 1017,2 hPa 0,0 mm 0,0 km/h (0 Bft) SW 215 ° 0 min 0,000 mm 0,0 UV-I 65 W/m² 12,7 °C 14,3 °C 0,0 km/h (0 Bft)
02.06.2018 07:10 14,3 °C 90 % 1017,2 hPa 0,0 mm 0,0 km/h (0 Bft) SW 215 ° 0 min 0,000 mm 0,0 UV-I 67 W/m² 12,7 °C 14,3 °C 0,0 km/h (0 Bft)
02.06.2018 07:11 14,3 °C 90 % 1017,1 hPa 0,0 mm 0,0 km/h (0 Bft) SW 215 ° 0 min 0,000 mm 0,0 UV-I 67 W/m² 12,7 °C 14,3 °C 0,0 km/h (0 Bft)
02.06.2018 07:12 14,2 °C 90 % 1017,1 hPa 0,0 mm 0,0 km/h (0 Bft) SW 215 ° 0 min 0,000 mm 0,0 UV-I 69 W/m² 12,6 °C 14,2 °C 0,0 km/h (0 Bft)
02.06.2018 07:13 14,2 °C 89 % 1017,1 hPa 0,0 mm 0,0 km/h (0 Bft) SW 215 ° 0 min 0,000 mm 0,0 UV-I 72 W/m² 12,4 °C 14,2 °C 0,0 km/h (0 Bft)
02.06.2018 07:14 14,2 °C 89 % 1017,1 hPa 0,0 mm 0,0 km/h (0 Bft) SW 215 ° 0 min 0,000 mm 0,5 UV-I 76 W/m² 12,4 °C 14,2 °C 0,0 km/h (0 Bft)
02.06.2018 07:15 14,2 °C 89 % 1017,1 hPa 0,0 mm 0,0 km/h (0 Bft) SW 215 ° 0 min 0,000 mm 0,5 UV-I 77 W/m² 12,4 °C 14,2 °C 0,0 km/h (0 Bft)
02.06.2018 07:16 14,2 °C 89 % 1017,1 hPa 0,0 mm 0,0 km/h (0 Bft) SW 215 ° 0 min 0,000 mm 0,5 UV-I 79 W/m² 12,4 °C 14,2 °C 0,0 km/h (0 Bft)
02.06.2018 07:17 14,3 °C 90 % 1017,1 hPa 0,0 mm 0,0 km/h (0 Bft) SW 215 ° 0 min 0,000 mm 0,5 UV-I 83 W/m² 12,7 °C 14,3 °C 0,0 km/h (0 Bft)
02.06.2018 07:18 14,3 °C 90 % 1017,1 hPa 0,0 mm 0,0 km/h (0 Bft) SW 215 ° 0 min 0,000 mm 0,5 UV-I 84 W/m² 12,7 °C 14,3 °C 0,0 km/h (0 Bft)
02.06.2018 07:19 14,4 °C 90 % 1017,2 hPa 0,0 mm 0,0 km/h (0 Bft) SW 215 ° 0 min 0,000 mm 0,5 UV-I 86 W/m² 12,8 °C 14,4 °C 0,0 km/h (0 Bft)
02.06.2018 07:20 14,4 °C 90 % 1017,2 hPa 0,0 mm 0,0 km/h (0 Bft) SW 215 ° 0 min 0,000 mm 0,5 UV-I 88 W/m² 12,8 °C 14,4 °C 0,0 km/h (0 Bft)
02.06.2018 07:21 14,4 °C 90 % 1017,1 hPa 0,0 mm 0,0 km/h (0 Bft) SW 215 ° 0 min 0,000 mm 0,6 UV-I 91 W/m² 12,8 °C 14,4 °C 0,0 km/h (0 Bft)
02.06.2018 07:22 14,4 °C 90 % 1017,2 hPa 0,0 mm 0,0 km/h (0 Bft) SW 215 ° 0 min 0,000 mm 0,6 UV-I 91 W/m² 12,8 °C 14,4 °C 0,0 km/h (0 Bft)
02.06.2018 07:23 14,5 °C 90 % 1017,2 hPa 0,0 mm 0,0 km/h (0 Bft) SW 215 ° 0 min 0,000 mm 0,6 UV-I 93 W/m² 12,9 °C 14,5 °C 0,0 km/h (0 Bft)
02.06.2018 07:24 14,5 °C 90 % 1017,2 hPa 0,0 mm 0,0 km/h (0 Bft) SW 215 ° 0 min 0,000 mm 0,6 UV-I 93 W/m² 12,9 °C 14,5 °C 0,0 km/h (0 Bft)
02.06.2018 07:25 14,5 °C 90 % 1017,2 hPa 0,0 mm 0,0 km/h (0 Bft) SW 215 ° 0 min 0,000 mm 0,6 UV-I 97 W/m² 12,9 °C 14,5 °C 0,0 km/h (0 Bft)
02.06.2018 07:26 14,5 °C 90 % 1017,2 hPa 0,0 mm 0,0 km/h (0 Bft) SW 215 ° 0 min 0,000 mm 0,6 UV-I 97 W/m² 12,9 °C 14,5 °C 0,0 km/h (0 Bft)
02.06.2018 07:27 14,4 °C 89 % 1017,2 hPa 0,0 mm 0,0 km/h (0 Bft) SW 215 ° 0 min 0,000 mm 0,6 UV-I 98 W/m² 12,6 °C 14,4 °C 0,0 km/h (0 Bft)
02.06.2018 07:28 14,5 °C 89 % 1017,2 hPa 0,0 mm 0,0 km/h (0 Bft) SW 215 ° 0 min 0,000 mm 0,6 UV-I 98 W/m² 12,7 °C 14,5 °C 0,0 km/h (0 Bft)
02.06.2018 07:29 14,5 °C 89 % 1017,2 hPa 0,0 mm 0,0 km/h (0 Bft) SW 215 ° 0 min 0,000 mm 0,6 UV-I 100 W/m² 12,7 °C 14,5 °C 0,0 km/h (0 Bft)
02.06.2018 07:30 14,5 °C 89 % 1017,2 hPa 0,0 mm 0,0 km/h (0 Bft) SW 215 ° 0 min 0,000 mm 0,7 UV-I 100 W/m² 12,7 °C 14,5 °C 0,0 km/h (0 Bft)
02.06.2018 07:31 14,6 °C 90 % 1017,2 hPa 0,0 mm 0,0 km/h (0 Bft) SW 215 ° 0 min 0,000 mm 0,7 UV-I 100 W/m² 13,0 °C 14,6 °C 0,0 km/h (0 Bft)
02.06.2018 07:32 14,6 °C 90 % 1017,2 hPa 0,0 mm 0,0 km/h (0 Bft) SW 215 ° 0 min 0,000 mm 0,7 UV-I 100 W/m² 13,0 °C 14,6 °C 0,0 km/h (0 Bft)
02.06.2018 07:33 14,6 °C 90 % 1017,2 hPa 0,0 mm 0,0 km/h (0 Bft) SW 215 ° 0 min 0,000 mm 0,7 UV-I 100 W/m² 13,0 °C 14,6 °C 0,0 km/h (0 Bft)
02.06.2018 07:34 14,6 °C 90 % 1017,2 hPa 0,0 mm 0,0 km/h (0 Bft) SW 215 ° 0 min 0,000 mm 0,7 UV-I 100 W/m² 13,0 °C 14,6 °C 0,0 km/h (0 Bft)
02.06.2018 07:35 14,7 °C 90 % 1017,3 hPa 0,0 mm 0,0 km/h (0 Bft) SW 215 ° 0 min 0,000 mm 0,7 UV-I 100 W/m² 13,1 °C 14,7 °C 0,0 km/h (0 Bft)
02.06.2018 07:36 14,7 °C 90 % 1017,3 hPa 0,0 mm 0,0 km/h (0 Bft) SW 215 ° 0 min 0,000 mm 0,7 UV-I 102 W/m² 13,1 °C 14,7 °C 0,0 km/h (0 Bft)
02.06.2018 07:37 14,7 °C 90 % 1017,3 hPa 0,0 mm 0,0 km/h (0 Bft) SW 215 ° 0 min 0,000 mm 0,7 UV-I 104 W/m² 13,1 °C 14,7 °C 0,0 km/h (0 Bft)
02.06.2018 07:38 14,7 °C 90 % 1017,3 hPa 0,0 mm 0,0 km/h (0 Bft) SW 215 ° 0 min 0,000 mm 0,7 UV-I 104 W/m² 13,1 °C 14,7 °C 0,0 km/h (0 Bft)
02.06.2018 07:39 14,7 °C 90 % 1017,3 hPa 0,0 mm 0,0 km/h (0 Bft) SW 215 ° 0 min 0,000 mm 0,7 UV-I 100 W/m² 13,1 °C 14,7 °C 0,0 km/h (0 Bft)
02.06.2018 07:40 14,7 °C 89 % 1017,3 hPa 0,0 mm 0,0 km/h (0 Bft) SW 215 ° 0 min 0,000 mm 0,7 UV-I 98 W/m² 12,9 °C 14,7 °C 0,0 km/h (0 Bft)
02.06.2018 07:41 14,7 °C 89 % 1017,3 hPa 0,0 mm 0,0 km/h (0 Bft) SW 215 ° 0 min 0,000 mm 0,7 UV-I 98 W/m² 12,9 °C 14,7 °C 0,0 km/h (0 Bft)
02.06.2018 07:42 14,7 °C 90 % 1017,3 hPa 0,0 mm 0,0 km/h (0 Bft) SW 215 ° 0 min 0,000 mm 0,7 UV-I 100 W/m² 13,1 °C 14,7 °C 0,0 km/h (0 Bft)
02.06.2018 07:43 14,7 °C 90 % 1017,3 hPa 0,0 mm 0,0 km/h (0 Bft) SW 215 ° 0 min 0,000 mm 0,8 UV-I 107 W/m² 13,1 °C 14,7 °C 0,0 km/h (0 Bft)
02.06.2018 07:44 14,7 °C 90 % 1017,3 hPa 0,0 mm 0,0 km/h (0 Bft) SW 215 ° 0 min 0,000 mm 0,8 UV-I 113 W/m² 13,1 °C 14,7 °C 0,0 km/h (0 Bft)
02.06.2018 07:45 14,8 °C 90 % 1017,3 hPa 0,0 mm 0,0 km/h (0 Bft) SW 215 ° 0 min 0,000 mm 0,8 UV-I 118 W/m² 13,2 °C 14,8 °C 0,0 km/h (0 Bft)
02.06.2018 07:46 14,8 °C 90 % 1017,2 hPa 0,0 mm 0,0 km/h (0 Bft) SW 215 ° 0 min 0,000 mm 0,8 UV-I 123 W/m² 13,2 °C 14,8 °C 0,0 km/h (0 Bft)
02.06.2018 07:47 14,8 °C 90 % 1017,2 hPa 0,0 mm 0,0 km/h (0 Bft) SW 215 ° 0 min 0,000 mm 0,8 UV-I 127 W/m² 13,2 °C 14,8 °C 0,0 km/h (0 Bft)
02.06.2018 07:48 14,9 °C 90 % 1017,3 hPa 0,0 mm 0,0 km/h (0 Bft) SW 215 ° 0 min 0,000 mm 0,8 UV-I 128 W/m² 13,3 °C 14,9 °C 0,0 km/h (0 Bft)
02.06.2018 07:49 14,9 °C 90 % 1017,3 hPa 0,0 mm 0,0 km/h (0 Bft) SW 215 ° 0 min 0,000 mm 0,8 UV-I 128 W/m² 13,3 °C 14,9 °C 0,0 km/h (0 Bft)
02.06.2018 07:50 15,0 °C 90 % 1017,3 hPa 0,0 mm 0,0 km/h (0 Bft) SW 215 ° 0 min 0,000 mm 0,8 UV-I 130 W/m² 13,4 °C 15,0 °C 0,0 km/h (0 Bft)
02.06.2018 07:51 15,0 °C 89 % 1017,3 hPa 0,0 mm 0,0 km/h (0 Bft) SW 215 ° 0 min 0,000 mm 0,8 UV-I 132 W/m² 13,2 °C 15,0 °C 0,0 km/h (0 Bft)
02.06.2018 07:52 15,1 °C 90 % 1017,3 hPa 0,0 mm 0,0 km/h (0 Bft) SW 215 ° 0 min 0,000 mm 0,9 UV-I 134 W/m² 13,5 °C 15,1 °C 0,0 km/h (0 Bft)
02.06.2018 07:53 15,1 °C 89 % 1017,3 hPa 0,0 mm 0,0 km/h (0 Bft) SW 215 ° 0 min 0,000 mm 0,9 UV-I 139 W/m² 13,3 °C 15,1 °C 0,0 km/h (0 Bft)
02.06.2018 07:54 15,2 °C 88 % 1017,3 hPa 0,0 mm 0,0 km/h (0 Bft) SW 215 ° 0 min 0,000 mm 0,9 UV-I 141 W/m² 13,2 °C 15,2 °C 0,0 km/h (0 Bft)
02.06.2018 07:55 15,2 °C 87 % 1017,3 hPa 0,0 mm 0,0 km/h (0 Bft) SW 215 ° 0 min 0,000 mm 0,9 UV-I 142 W/m² 13,0 °C 15,2 °C 0,0 km/h (0 Bft)
02.06.2018 07:56 15,3 °C 87 % 1017,3 hPa 0,0 mm 0,0 km/h (0 Bft) SW 215 ° 0 min 0,000 mm 0,9 UV-I 142 W/m² 13,1 °C 15,3 °C 0,0 km/h (0 Bft)
02.06.2018 07:57 15,4 °C 87 % 1017,3 hPa 0,0 mm 0,0 km/h (0 Bft) SW 215 ° 0 min 0,000 mm 1,0 UV-I 146 W/m² 13,2 °C 15,4 °C 0,0 km/h (0 Bft)
02.06.2018 07:58 15,5 °C 88 % 1017,3 hPa 0,0 mm 0,0 km/h (0 Bft) SW 215 ° 0 min 0,000 mm 1,0 UV-I 149 W/m² 13,5 °C 15,5 °C 0,0 km/h (0 Bft)
02.06.2018 07:59 15,6 °C 87 % 1017,2 hPa 0,0 mm 0,0 km/h (0 Bft) SW 215 ° 0 min 0,000 mm 1,0 UV-I 155 W/m² 13,4 °C 15,6 °C 0,0 km/h (0 Bft)
02.06.2018 08:00 15,6 °C 85 % 1017,2 hPa 0,0 mm 0,0 km/h (0 Bft) SW 215 ° 0 min 0,051 mm 1,1 UV-I 165 W/m² 13,1 °C 15,6 °C 0,0 km/h (0 Bft)
02.06.2018 08:01 15,6 °C 85 % 1017,2 hPa 0,0 mm 0,0 km/h (0 Bft) SW 215 ° 0 min 0,000 mm 1,1 UV-I 169 W/m² 13,1 °C 15,6 °C 0,0 km/h (0 Bft)
02.06.2018 08:02 15,7 °C 85 % 1017,1 hPa 0,0 mm 0,0 km/h (0 Bft) SW 215 ° 0 min 0,000 mm 1,2 UV-I 171 W/m² 13,2 °C 15,7 °C 0,0 km/h (0 Bft)
02.06.2018 08:03 15,8 °C 86 % 1017,1 hPa 0,0 mm 0,0 km/h (0 Bft) SW 215 ° 0 min 0,000 mm 1,2 UV-I 172 W/m² 13,5 °C 15,8 °C 0,0 km/h (0 Bft)
02.06.2018 08:04 15,8 °C 85 % 1017,1 hPa 0,0 mm 0,0 km/h (0 Bft) SW 215 ° 0 min 0,000 mm 1,2 UV-I 174 W/m² 13,3 °C 15,8 °C 0,0 km/h (0 Bft)
02.06.2018 08:05 15,8 °C 84 % 1017,1 hPa 0,0 mm 0,0 km/h (0 Bft) SW 215 ° 0 min 0,000 mm 1,2 UV-I 192 W/m² 13,1 °C 15,8 °C 0,0 km/h (0 Bft)
02.06.2018 08:06 15,8 °C 84 % 1017,1 hPa 0,0 mm 0,0 km/h (0 Bft) SW 215 ° 0 min 0,000 mm 1,2 UV-I 183 W/m² 13,1 °C 15,8 °C 0,0 km/h (0 Bft)
02.06.2018 08:07 15,8 °C 84 % 1017,1 hPa 0,0 mm 0,0 km/h (0 Bft) SW 215 ° 0 min 0,000 mm 1,3 UV-I 181 W/m² 13,1 °C 15,8 °C 0,0 km/h (0 Bft)
02.06.2018 08:08 15,8 °C 84 % 1017,1 hPa 0,0 mm 0,0 km/h (0 Bft) SW 215 ° 0 min 0,000 mm 1,3 UV-I 185 W/m² 13,1 °C 15,8 °C 0,0 km/h (0 Bft)
02.06.2018 08:09 15,8 °C 83 % 1017,1 hPa 0,0 mm 0,0 km/h (0 Bft) SW 215 ° 0 min 0,000 mm 1,3 UV-I 188 W/m² 12,9 °C 15,8 °C 0,0 km/h (0 Bft)
02.06.2018 08:10 15,9 °C 85 % 1017,1 hPa 0,0 mm 0,0 km/h (0 Bft) SW 215 ° 0 min 0,000 mm 1,3 UV-I 190 W/m² 13,4 °C 15,9 °C 0,0 km/h (0 Bft)
02.06.2018 08:11 15,9 °C 83 % 1017,2 hPa 0,0 mm 0,0 km/h (0 Bft) SW 215 ° 0 min 0,000 mm 1,3 UV-I 195 W/m² 13,0 °C 15,9 °C 0,0 km/h (0 Bft)
02.06.2018 08:12 15,9 °C 83 % 1017,2 hPa 0,0 mm 0,0 km/h (0 Bft) SW 215 ° 0 min 0,000 mm 1,4 UV-I 207 W/m² 13,0 °C 15,9 °C 0,0 km/h (0 Bft)
02.06.2018 08:13 15,9 °C 83 % 1017,2 hPa 0,0 mm 0,0 km/h (0 Bft) SW 215 ° 0 min 0,000 mm 1,4 UV-I 218 W/m² 13,0 °C 15,9 °C 0,0 km/h (0 Bft)
02.06.2018 08:14 15,9 °C 83 % 1017,2 hPa 0,0 mm 0,0 km/h (0 Bft) SW 215 ° 0 min 0,000 mm 1,5 UV-I 230 W/m² 13,0 °C 15,9 °C 0,0 km/h (0 Bft)
02.06.2018 08:15 15,9 °C 83 % 1017,2 hPa 0,0 mm 0,0 km/h (0 Bft) SW 215 ° 0 min 0,000 mm 1,4 UV-I 200 W/m² 13,0 °C 15,9 °C 0,0 km/h (0 Bft)
02.06.2018 08:16 15,9 °C 83 % 1017,2 hPa 0,0 mm 0,0 km/h (0 Bft) SW 215 ° 0 min 0,000 mm 1,3 UV-I 190 W/m² 13,0 °C 15,9 °C 0,0 km/h (0 Bft)
02.06.2018 08:17 15,9 °C 83 % 1017,2 hPa 0,0 mm 0,0 km/h (0 Bft) SW 215 ° 0 min 0,000 mm 1,3 UV-I 181 W/m² 13,0 °C 15,9 °C 0,0 km/h (0 Bft)
02.06.2018 08:18 15,9 °C 82 % 1017,2 hPa 0,0 mm 0,0 km/h (0 Bft) SW 215 ° 0 min 0,000 mm 1,3 UV-I 171 W/m² 12,8 °C 15,9 °C 0,0 km/h (0 Bft)
02.06.2018 08:19 15,9 °C 83 % 1017,2 hPa 0,0 mm 0,0 km/h (0 Bft) SW 215 ° 0 min 0,000 mm 1,3 UV-I 172 W/m² 13,0 °C 15,9 °C 0,0 km/h (0 Bft)
02.06.2018 08:20 16,0 °C 84 % 1017,2 hPa 0,0 mm 0,0 km/h (0 Bft) SW 215 ° 0 min 0,000 mm 1,4 UV-I 178 W/m² 13,3 °C 16,0 °C 0,0 km/h (0 Bft)
02.06.2018 08:21 15,9 °C 83 % 1017,2 hPa 0,0 mm 0,0 km/h (0 Bft) SW 215 ° 0 min 0,000 mm 1,4 UV-I 183 W/m² 13,0 °C 15,9 °C 0,0 km/h (0 Bft)
02.06.2018 08:22 16,0 °C 84 % 1017,2 hPa 0,0 mm 0,0 km/h (0 Bft) SW 215 ° 0 min 0,000 mm 1,4 UV-I 186 W/m² 13,3 °C 16,0 °C 0,0 km/h (0 Bft)
02.06.2018 08:23 16,1 °C 85 % 1017,2 hPa 0,0 mm 0,0 km/h (0 Bft) SW 215 ° 0 min 0,000 mm 1,4 UV-I 188 W/m² 13,6 °C 16,1 °C 0,0 km/h (0 Bft)
02.06.2018 08:24 16,1 °C 85 % 1017,2 hPa 0,0 mm 0,0 km/h (0 Bft) SW 215 ° 0 min 0,000 mm 1,5 UV-I 186 W/m² 13,6 °C 16,1 °C 0,0 km/h (0 Bft)
02.06.2018 08:25 16,2 °C 85 % 1017,2 hPa 0,0 mm 0,0 km/h (0 Bft) SW 215 ° 0 min 0,000 mm 1,5 UV-I 186 W/m² 13,7 °C 16,2 °C 0,0 km/h (0 Bft)
02.06.2018 08:26 16,2 °C 85 % 1017,2 hPa 0,0 mm 0,0 km/h (0 Bft) SW 215 ° 0 min 0,000 mm 1,6 UV-I 190 W/m² 13,7 °C 16,2 °C 0,0 km/h (0 Bft)
02.06.2018 08:27 16,1 °C 83 % 1017,2 hPa 0,0 mm 0,0 km/h (0 Bft) SW 215 ° 0 min 0,000 mm 1,6 UV-I 193 W/m² 13,2 °C 16,1 °C 0,0 km/h (0 Bft)
02.06.2018 08:28 16,1 °C 84 % 1017,1 hPa 0,0 mm 0,0 km/h (0 Bft) SW 215 ° 0 min 0,000 mm 1,7 UV-I 204 W/m² 13,4 °C 16,1 °C 0,0 km/h (0 Bft)
02.06.2018 08:29 16,2 °C 83 % 1017,2 hPa 0,0 mm 0,0 km/h (0 Bft) SW 215 ° 0 min 0,000 mm 1,7 UV-I 244 W/m² 13,3 °C 16,2 °C 0,0 km/h (0 Bft)
02.06.2018 08:30 16,1 °C 83 % 1017,2 hPa 0,0 mm 0,0 km/h (0 Bft) SW 215 ° 0 min 0,000 mm 1,8 UV-I 253 W/m² 13,2 °C 16,1 °C 0,0 km/h (0 Bft)
02.06.2018 08:31 16,1 °C 82 % 1017,2 hPa 0,0 mm 0,0 km/h (0 Bft) SW 215 ° 0 min 0,000 mm 1,9 UV-I 287 W/m² 13,0 °C 16,1 °C 0,0 km/h (0 Bft)
02.06.2018 08:32 16,1 °C 82 % 1017,2 hPa 0,0 mm 0,0 km/h (0 Bft) SW 215 ° 0 min 0,000 mm 2,0 UV-I 301 W/m² 13,0 °C 16,1 °C 0,0 km/h (0 Bft)
02.06.2018 08:33 16,1 °C 82 % 1017,2 hPa 0,0 mm 0,0 km/h (0 Bft) SW 215 ° 0 min 0,000 mm 1,9 UV-I 308 W/m² 13,0 °C 16,1 °C 0,0 km/h (0 Bft)
02.06.2018 08:34 16,1 °C 84 % 1017,2 hPa 0,0 mm 0,0 km/h (0 Bft) SW 215 ° 0 min 0,000 mm 1,8 UV-I 272 W/m² 13,4 °C 16,1 °C 0,0 km/h (0 Bft)
02.06.2018 08:35 16,1 °C 83 % 1017,2 hPa 0,0 mm 0,0 km/h (0 Bft) SW 215 ° 0 min 0,000 mm 1,9 UV-I 336 W/m² 13,2 °C 16,1 °C 0,0 km/h (0 Bft)
02.06.2018 08:36 16,2 °C 83 % 1017,1 hPa 0,0 mm 0,0 km/h (0 Bft) SW 215 ° 0 min 0,000 mm 2,0 UV-I 258 W/m² 13,3 °C 16,2 °C 0,0 km/h (0 Bft)
02.06.2018 08:37 16,3 °C 83 % 1017,2 hPa 0,0 mm 0,0 km/h (0 Bft) SW 215 ° 0 min 0,000 mm 1,8 UV-I 234 W/m² 13,4 °C 16,3 °C 0,0 km/h (0 Bft)
02.06.2018 08:38 16,3 °C 82 % 1017,1 hPa 0,0 mm 0,0 km/h (0 Bft) SW 215 ° 0 min 0,000 mm 1,8 UV-I 236 W/m² 13,2 °C 16,3 °C 0,0 km/h (0 Bft)
02.06.2018 08:39 16,3 °C 82 % 1017,1 hPa 0,0 mm 0,0 km/h (0 Bft) SW 215 ° 0 min 0,000 mm 1,8 UV-I 258 W/m² 13,2 °C 16,3 °C 0,0 km/h (0 Bft)
02.06.2018 08:40 16,3 °C 83 % 1017,1 hPa 0,0 mm 0,0 km/h (0 Bft) SW 215 ° 0 min 0,000 mm 1,8 UV-I 237 W/m² 13,4 °C 16,3 °C 0,0 km/h (0 Bft)
02.06.2018 08:41 16,4 °C 83 % 1017,1 hPa 0,0 mm 0,0 km/h (0 Bft) SW 215 ° 0 min 0,000 mm 1,7 UV-I 229 W/m² 13,5 °C 16,4 °C 0,0 km/h (0 Bft)
02.06.2018 08:42 16,4 °C 83 % 1017,1 hPa 0,0 mm 0,0 km/h (0 Bft) SW 215 ° 0 min 0,000 mm 1,8 UV-I 206 W/m² 13,5 °C 16,4 °C 0,0 km/h (0 Bft)
02.06.2018 08:43 16,4 °C 82 % 1017,1 hPa 0,0 mm 0,0 km/h (0 Bft) SW 215 ° 0 min 0,000 mm 1,7 UV-I 218 W/m² 13,3 °C 16,4 °C 0,0 km/h (0 Bft)
02.06.2018 08:44 16,3 °C 81 % 1017,1 hPa 0,0 mm 0,0 km/h (0 Bft) SW 215 ° 0 min 0,000 mm 1,6 UV-I 185 W/m² 13,0 °C 16,3 °C 0,0 km/h (0 Bft)
02.06.2018 08:45 16,3 °C 83 % 1017,2 hPa 0,0 mm 0,0 km/h (0 Bft) SW 215 ° 0 min 0,000 mm 1,6 UV-I 195 W/m² 13,4 °C 16,3 °C 0,0 km/h (0 Bft)
02.06.2018 08:46 16,3 °C 84 % 1017,1 hPa 0,0 mm 0,0 km/h (0 Bft) SW 215 ° 0 min 0,000 mm 1,6 UV-I 188 W/m² 13,6 °C 16,3 °C 0,0 km/h (0 Bft)
02.06.2018 08:47 16,3 °C 83 % 1017,2 hPa 0,0 mm 0,0 km/h (0 Bft) SW 215 ° 0 min 0,000 mm 1,6 UV-I 174 W/m² 13,4 °C 16,3 °C 0,0 km/h (0 Bft)
02.06.2018 08:48 16,3 °C 83 % 1017,2 hPa 0,0 mm 0,0 km/h (0 Bft) SW 215 ° 0 min 0,000 mm 1,6 UV-I 172 W/m² 13,4 °C 16,3 °C 0,0 km/h (0 Bft)
02.06.2018 08:49 16,3 °C 83 % 1017,2 hPa 0,0 mm 0,0 km/h (0 Bft) SW 215 ° 0 min 0,000 mm 1,6 UV-I 169 W/m² 13,4 °C 16,3 °C 0,0 km/h (0 Bft)
02.06.2018 08:50 16,3 °C 82 % 1017,2 hPa 0,0 mm 0,4 km/h (0 Bft) SW 215 ° 0 min 0,000 mm 1,6 UV-I 169 W/m² 13,2 °C 16,3 °C 1,6 km/h (1 Bft)
02.06.2018 08:51 16,3 °C 83 % 1017,2 hPa 0,0 mm 1,1 km/h (1 Bft) W-SW 248 ° 0 min 0,000 mm 1,7 UV-I 176 W/m² 13,4 °C 16,3 °C 3,2 km/h (1 Bft)
02.06.2018 08:52 16,3 °C 83 % 1017,2 hPa 0,0 mm 2,7 km/h (1 Bft) NW 306 ° 0 min 0,000 mm 1,8 UV-I 190 W/m² 13,4 °C 16,3 °C 3,2 km/h (1 Bft)
02.06.2018 08:53 16,3 °C 82 % 1017,2 hPa 0,0 mm 1,9 km/h (1 Bft) NW 306 ° 0 min 0,000 mm 1,8 UV-I 229 W/m² 13,2 °C 16,3 °C 4,8 km/h (1 Bft)
02.06.2018 08:54 16,3 °C 83 % 1017,1 hPa 0,0 mm 3,2 km/h (1 Bft) NW 306 ° 0 min 0,000 mm 2,5 UV-I 229 W/m² 13,4 °C 16,3 °C 4,8 km/h (1 Bft)
02.06.2018 08:55 16,4 °C 84 % 1017,1 hPa 0,0 mm 3,4 km/h (1 Bft) NW 306 ° 0 min 0,000 mm 2,1 UV-I 229 W/m² 13,7 °C 16,4 °C 4,8 km/h (1 Bft)
02.06.2018 08:56 16,5 °C 83 % 1017,1 hPa 0,0 mm 1,8 km/h (1 Bft) NW 306 ° 0 min 0,000 mm 2,0 UV-I 257 W/m² 13,6 °C 16,5 °C 3,2 km/h (1 Bft)
02.06.2018 08:57 16,6 °C 81 % 1017,2 hPa 0,0 mm 1,3 km/h (1 Bft) NW 306 ° 0 min 0,000 mm 2,4 UV-I 315 W/m² 13,3 °C 16,6 °C 3,2 km/h (1 Bft)
02.06.2018 08:58 16,6 °C 82 % 1017,1 hPa 0,0 mm 1,7 km/h (1 Bft) NW 306 ° 0 min 0,000 mm 2,3 UV-I 309 W/m² 13,5 °C 16,6 °C 4,8 km/h (1 Bft)
02.06.2018 08:59 16,6 °C 83 % 1017,1 hPa 0,0 mm 2,6 km/h (1 Bft) NW 306 ° 0 min 0,000 mm 2,2 UV-I 253 W/m² 13,7 °C 16,6 °C 4,8 km/h (1 Bft)
02.06.2018 09:00 16,7 °C 82 % 1017,1 hPa 0,0 mm 1,5 km/h (1 Bft) NW 306 ° 0 min 0,000 mm 2,5 UV-I 253 W/m² 13,6 °C 16,7 °C 3,2 km/h (1 Bft)
02.06.2018 09:01 16,7 °C 82 % 1017,1 hPa 0,0 mm 2,8 km/h (1 Bft) NW 306 ° 0 min 0,127 mm 2,4 UV-I 366 W/m² 13,6 °C 16,7 °C 4,8 km/h (1 Bft)
02.06.2018 09:02 16,6 °C 82 % 1017,1 hPa 0,0 mm 1,7 km/h (1 Bft) NW 305 ° 0 min 0,000 mm 2,5 UV-I 350 W/m² 13,5 °C 16,6 °C 6,4 km/h (2 Bft)
02.06.2018 09:03 16,7 °C 84 % 1017,1 hPa 0,0 mm 1,7 km/h (1 Bft) NW 306 ° 0 min 0,000 mm 2,6 UV-I 338 W/m² 14,0 °C 16,7 °C 3,2 km/h (1 Bft)
02.06.2018 09:04 16,8 °C 83 % 1017,0 hPa 0,0 mm 0,5 km/h (0 Bft) NW 306 ° 0 min 0,000 mm 3,0 UV-I 338 W/m² 13,9 °C 16,8 °C 1,6 km/h (1 Bft)
02.06.2018 09:05 16,8 °C 82 % 1017,0 hPa 0,0 mm 0,2 km/h (0 Bft) NW 306 ° 0 min 0,000 mm 3,0 UV-I 538 W/m² 13,7 °C 16,8 °C 1,6 km/h (1 Bft)
02.06.2018 09:06 16,8 °C 81 % 1017,0 hPa 0,0 mm 0,0 km/h (0 Bft) NW 306 ° 0 min 0,000 mm 3,1 UV-I 566 W/m² 13,5 °C 16,8 °C 0,0 km/h (0 Bft)
02.06.2018 09:07 16,9 °C 82 % 1017,0 hPa 0,0 mm 0,1 km/h (0 Bft) NW 306 ° 0 min 0,000 mm 3,0 UV-I 548 W/m² 13,8 °C 16,9 °C 1,6 km/h (1 Bft)
02.06.2018 09:08 17,0 °C 85 % 1017,0 hPa 0,0 mm 2,7 km/h (1 Bft) NW 305 ° 0 min 0,000 mm 3,0 UV-I 540 W/m² 14,5 °C 17,0 °C 4,8 km/h (1 Bft)
02.06.2018 09:09 17,2 °C 82 % 1016,9 hPa 0,0 mm 1,7 km/h (1 Bft) NW 305 ° 0 min 0,000 mm 3,1 UV-I 559 W/m² 14,1 °C 17,2 °C 4,8 km/h (1 Bft)
02.06.2018 09:10 17,2 °C 81 % 1017,0 hPa 0,0 mm 1,7 km/h (1 Bft) NW 306 ° 0 min 0,000 mm 3,1 UV-I 534 W/m² 13,9 °C 17,2 °C 3,2 km/h (1 Bft)
02.06.2018 09:11 17,2 °C 81 % 1017,0 hPa 0,0 mm 3,0 km/h (1 Bft) N-NW 335 ° 0 min 0,000 mm 3,1 UV-I 557 W/m² 13,9 °C 17,2 °C 4,8 km/h (1 Bft)
02.06.2018 09:12 17,3 °C 80 % 1017,0 hPa 0,0 mm 4,2 km/h (1 Bft) N-NW 335 ° 0 min 0,000 mm 3,2 UV-I 559 W/m² 13,8 °C 17,3 °C 4,8 km/h (1 Bft)
02.06.2018 09:13 17,3 °C 81 % 1017,0 hPa 0,0 mm 3,1 km/h (1 Bft) N-NW 335 ° 0 min 0,000 mm 3,3 UV-I 568 W/m² 14,0 °C 17,3 °C 4,8 km/h (1 Bft)
02.06.2018 09:14 17,2 °C 80 % 1017,0 hPa 0,0 mm 0,9 km/h (0 Bft) N-NW 335 ° 0 min 0,000 mm 3,2 UV-I 564 W/m² 13,7 °C 17,2 °C 3,2 km/h (1 Bft)
02.06.2018 09:15 17,1 °C 81 % 1017,0 hPa 0,0 mm 1,6 km/h (1 Bft) N-NW 335 ° 0 min 0,000 mm 3,2 UV-I 564 W/m² 13,8 °C 17,1 °C 4,8 km/h (1 Bft)
02.06.2018 09:16 17,1 °C 80 % 1017,0 hPa 0,0 mm 1,4 km/h (1 Bft) N-NW 335 ° 0 min 0,000 mm 2,4 UV-I 564 W/m² 13,6 °C 17,1 °C 3,2 km/h (1 Bft)
02.06.2018 09:17 17,1 °C 79 % 1017,0 hPa 0,0 mm 0,3 km/h (0 Bft) N-NW 335 ° 0 min 0,000 mm 3,2 UV-I 564 W/m² 13,4 °C 17,1 °C 1,6 km/h (1 Bft)
02.06.2018 09:18 17,1 °C 79 % 1017,0 hPa 0,0 mm 0,1 km/h (0 Bft) N-NW 335 ° 0 min 0,000 mm 2,9 UV-I 564 W/m² 13,4 °C 17,1 °C 1,6 km/h (1 Bft)
02.06.2018 09:19 16,9 °C 79 % 1017,0 hPa 0,0 mm 0,4 km/h (0 Bft) N-NW 335 ° 0 min 0,000 mm 3,1 UV-I 564 W/m² 13,2 °C 16,9 °C 1,6 km/h (1 Bft)
02.06.2018 09:20 16,8 °C 79 % 1017,0 hPa 0,0 mm 0,0 km/h (0 Bft) N-NW 335 ° 0 min 0,000 mm 2,5 UV-I 564 W/m² 13,1 °C 16,8 °C 0,0 km/h (0 Bft)
02.06.2018 09:21 16,8 °C 81 % 1017,0 hPa 0,0 mm 1,0 km/h (0 Bft) N-NW 335 ° 0 min 0,000 mm 2,4 UV-I 216 W/m² 13,5 °C 16,8 °C 3,2 km/h (1 Bft)
02.06.2018 09:22 16,9 °C 82 % 1017,0 hPa 0,0 mm 2,4 km/h (1 Bft) N-NW 335 ° 0 min 0,000 mm 3,1 UV-I 216 W/m² 13,8 °C 16,9 °C 3,2 km/h (1 Bft)
02.06.2018 09:23 17,1 °C 83 % 1017,0 hPa 0,0 mm 2,1 km/h (1 Bft) N-NW 335 ° 0 min 0,000 mm 2,7 UV-I 376 W/m² 14,2 °C 17,1 °C 3,2 km/h (1 Bft)
02.06.2018 09:24 17,3 °C 82 % 1017,0 hPa 0,0 mm 2,9 km/h (1 Bft) N-NW 335 ° 0 min 0,000 mm 2,9 UV-I 348 W/m² 14,2 °C 17,3 °C 4,8 km/h (1 Bft)
02.06.2018 09:25 17,3 °C 82 % 1017,0 hPa 0,0 mm 1,6 km/h (1 Bft) N-NW 335 ° 0 min 0,000 mm 3,5 UV-I 348 W/m² 14,2 °C 17,3 °C 3,2 km/h (1 Bft)
02.06.2018 09:26 17,5 °C 82 % 1016,9 hPa 0,0 mm 2,3 km/h (1 Bft) N-NW 335 ° 0 min 0,000 mm 3,4 UV-I 591 W/m² 14,4 °C 17,5 °C 3,2 km/h (1 Bft)
02.06.2018 09:27 17,6 °C 79 % 1017,0 hPa 0,0 mm 2,4 km/h (1 Bft) N-NW 335 ° 1 min 0,000 mm 3,4 UV-I 638 W/m² 13,9 °C 17,6 °C 3,2 km/h (1 Bft)
02.06.2018 09:28 17,6 °C 78 % 1017,0 hPa 0,0 mm 1,1 km/h (1 Bft) N-NW 335 ° 1 min 0,000 mm 3,6 UV-I 650 W/m² 13,7 °C 17,6 °C 3,2 km/h (1 Bft)
02.06.2018 09:29 17,6 °C 78 % 1017,0 hPa 0,0 mm 0,3 km/h (0 Bft) N-NW 335 ° 1 min 0,000 mm 3,7 UV-I 654 W/m² 13,7 °C 17,6 °C 1,6 km/h (1 Bft)
02.06.2018 09:30 17,6 °C 78 % 1017,0 hPa 0,0 mm 1,0 km/h (0 Bft) N-NW 335 ° 1 min 0,000 mm 3,7 UV-I 643 W/m² 13,7 °C 17,6 °C 3,2 km/h (1 Bft)
02.06.2018 09:31 17,7 °C 78 % 1017,0 hPa 0,0 mm 1,9 km/h (1 Bft) N-NW 335 ° 0 min 0,000 mm 3,3 UV-I 548 W/m² 13,8 °C 17,7 °C 3,2 km/h (1 Bft)
02.06.2018 09:32 17,7 °C 77 % 1017,0 hPa 0,0 mm 0,3 km/h (0 Bft) N-NW 335 ° 0 min 0,000 mm 3,3 UV-I 478 W/m² 13,6 °C 17,7 °C 1,6 km/h (1 Bft)
02.06.2018 09:33 17,6 °C 79 % 1017,0 hPa 0,0 mm 1,7 km/h (1 Bft) N 350 ° 0 min 0,000 mm 3,4 UV-I 555 W/m² 13,9 °C 17,6 °C 3,2 km/h (1 Bft)
02.06.2018 09:34 17,7 °C 78 % 1017,0 hPa 0,0 mm 1,7 km/h (1 Bft) N 350 ° 0 min 0,000 mm 3,4 UV-I 496 W/m² 13,8 °C 17,7 °C 3,2 km/h (1 Bft)
02.06.2018 09:35 17,6 °C 78 % 1017,0 hPa 0,0 mm 2,1 km/h (1 Bft) N 350 ° 1 min 0,000 mm 3,9 UV-I 671 W/m² 13,7 °C 17,6 °C 3,2 km/h (1 Bft)
02.06.2018 09:36 17,8 °C 81 % 1017,0 hPa 0,0 mm 3,8 km/h (1 Bft) N 360 ° 1 min 0,000 mm 3,9 UV-I 664 W/m² 14,5 °C 17,8 °C 6,4 km/h (2 Bft)
02.06.2018 09:37 17,9 °C 78 % 1017,0 hPa 0,0 mm 3,0 km/h (1 Bft) N 360 ° 1 min 0,000 mm 3,9 UV-I 664 W/m² 14,0 °C 17,9 °C 4,8 km/h (1 Bft)
02.06.2018 09:38 17,8 °C 77 % 1017,0 hPa 0,0 mm 2,3 km/h (1 Bft) N 5 ° 1 min 0,000 mm 3,9 UV-I 671 W/m² 13,7 °C 17,8 °C 8,0 km/h (2 Bft)
02.06.2018 09:39 17,8 °C 78 % 1017,0 hPa 0,0 mm 5,6 km/h (1 Bft) N 5 ° 1 min 0,000 mm 3,8 UV-I 652 W/m² 13,9 °C 17,8 °C 8,0 km/h (2 Bft)
02.06.2018 09:40 17,8 °C 77 % 1017,0 hPa 0,0 mm 2,2 km/h (1 Bft) N 5 ° 1 min 0,000 mm 3,6 UV-I 652 W/m² 13,7 °C 17,8 °C 3,2 km/h (1 Bft)
02.06.2018 09:41 17,8 °C 78 % 1017,0 hPa 0,0 mm 0,8 km/h (0 Bft) N 5 ° 1 min 0,000 mm 4,1 UV-I 652 W/m² 13,9 °C 17,8 °C 1,6 km/h (1 Bft)
02.06.2018 09:42 17,8 °C 79 % 1017,0 hPa 0,0 mm 0,1 km/h (0 Bft) N 5 ° 1 min 0,000 mm 4,1 UV-I 705 W/m² 14,1 °C 17,8 °C 1,6 km/h (1 Bft)
02.06.2018 09:43 17,8 °C 78 % 1017,0 hPa 0,0 mm 2,9 km/h (1 Bft) O-NO 68 ° 1 min 0,000 mm 4,1 UV-I 701 W/m² 13,9 °C 17,8 °C 6,4 km/h (2 Bft)
02.06.2018 09:44 17,7 °C 78 % 1017,0 hPa 0,0 mm 3,0 km/h (1 Bft) O-NO 69 ° 1 min 0,000 mm 4,1 UV-I 694 W/m² 13,8 °C 17,7 °C 4,8 km/h (1 Bft)
02.06.2018 09:45 17,7 °C 79 % 1017,0 hPa 0,0 mm 0,1 km/h (0 Bft) O-NO 69 ° 1 min 0,000 mm 4,1 UV-I 691 W/m² 14,0 °C 17,7 °C 1,6 km/h (1 Bft)
02.06.2018 09:46 17,9 °C 78 % 1017,0 hPa 0,0 mm 3,6 km/h (1 Bft) NO 40 ° 1 min 0,000 mm 4,1 UV-I 696 W/m² 14,0 °C 17,9 °C 6,4 km/h (2 Bft)
02.06.2018 09:47 18,1 °C 78 % 1016,9 hPa 0,0 mm 5,3 km/h (1 Bft) N-NW 344 ° 1 min 0,000 mm 4,2 UV-I 701 W/m² 14,2 °C 18,1 °C 6,4 km/h (2 Bft)
02.06.2018 09:48 18,1 °C 78 % 1016,9 hPa 0,0 mm 1,5 km/h (1 Bft) N-NW 344 ° 1 min 0,000 mm 4,2 UV-I 705 W/m² 14,2 °C 18,1 °C 4,8 km/h (1 Bft)
02.06.2018 09:49 18,2 °C 77 % 1016,9 hPa 0,0 mm 1,3 km/h (1 Bft) N 351 ° 1 min 0,000 mm 4,2 UV-I 707 W/m² 14,1 °C 18,2 °C 3,2 km/h (1 Bft)
02.06.2018 09:50 18,0 °C 76 % 1016,9 hPa 0,0 mm 1,9 km/h (1 Bft) N 360 ° 1 min 0,000 mm 4,2 UV-I 714 W/m² 13,7 °C 18,0 °C 4,8 km/h (1 Bft)
02.06.2018 09:51 18,0 °C 79 % 1016,9 hPa 0,0 mm 5,1 km/h (1 Bft) N 360 ° 1 min 0,000 mm 4,2 UV-I 715 W/m² 14,3 °C 18,0 °C 6,4 km/h (2 Bft)
02.06.2018 09:52 18,2 °C 78 % 1016,9 hPa 0,0 mm 3,6 km/h (1 Bft) N-NO 15 ° 1 min 0,000 mm 4,4 UV-I 740 W/m² 14,3 °C 18,2 °C 6,4 km/h (2 Bft)
02.06.2018 09:53 18,2 °C 77 % 1016,9 hPa 0,0 mm 3,6 km/h (1 Bft) N 5 ° 1 min 0,000 mm 4,4 UV-I 754 W/m² 14,1 °C 18,2 °C 6,4 km/h (2 Bft)
02.06.2018 09:54 18,3 °C 76 % 1016,9 hPa 0,0 mm 0,9 km/h (0 Bft) N 5 ° 1 min 0,000 mm 4,5 UV-I 761 W/m² 14,0 °C 18,3 °C 3,2 km/h (1 Bft)
02.06.2018 09:55 18,4 °C 76 % 1016,9 hPa 0,0 mm 5,4 km/h (1 Bft) O 85 ° 1 min 0,000 mm 4,5 UV-I 766 W/m² 14,1 °C 18,4 °C 8,0 km/h (2 Bft)
02.06.2018 09:56 18,2 °C 75 % 1016,9 hPa 0,0 mm 3,4 km/h (1 Bft) O 85 ° 1 min 0,000 mm 4,5 UV-I 770 W/m² 13,7 °C 18,2 °C 6,4 km/h (2 Bft)
02.06.2018 09:57 18,1 °C 75 % 1016,8 hPa 0,0 mm 0,9 km/h (0 Bft) O 85 ° 1 min 0,000 mm 4,5 UV-I 784 W/m² 13,6 °C 18,1 °C 3,2 km/h (1 Bft)
02.06.2018 09:58 18,1 °C 75 % 1016,9 hPa 0,0 mm 0,0 km/h (0 Bft) O 85 ° 1 min 0,000 mm 4,5 UV-I 788 W/m² 13,6 °C 18,1 °C 0,0 km/h (0 Bft)
02.06.2018 09:59 18,2 °C 75 % 1016,8 hPa 0,0 mm 1,8 km/h (1 Bft) O 85 ° 1 min 0,000 mm 4,6 UV-I 800 W/m² 13,7 °C 18,2 °C 3,2 km/h (1 Bft)
02.06.2018 10:00 18,3 °C 76 % 1016,8 hPa 0,0 mm 0,0 km/h (0 Bft) O 85 ° 1 min 0,000 mm 3,8 UV-I 752 W/m² 14,0 °C 18,3 °C 0,0 km/h (0 Bft)
02.06.2018 10:01 18,3 °C 76 % 1016,8 hPa 0,0 mm 0,5 km/h (0 Bft) O-SO 108 ° 1 min 0,330 mm 4,6 UV-I 800 W/m² 14,0 °C 18,3 °C 1,6 km/h (1 Bft)
02.06.2018 10:02 18,4 °C 76 % 1016,9 hPa 0,0 mm 1,5 km/h (1 Bft) O-SO 115 ° 1 min 0,000 mm 4,6 UV-I 782 W/m² 14,1 °C 18,4 °C 3,2 km/h (1 Bft)
02.06.2018 10:03 18,5 °C 77 % 1016,8 hPa 0,0 mm 0,3 km/h (0 Bft) O-SO 115 ° 1 min 0,000 mm 4,7 UV-I 759 W/m² 14,4 °C 18,5 °C 1,6 km/h (1 Bft)
02.06.2018 10:04 18,6 °C 77 % 1016,9 hPa 0,0 mm 2,6 km/h (1 Bft) O-SO 115 ° 1 min 0,000 mm 4,6 UV-I 751 W/m² 14,5 °C 18,6 °C 4,8 km/h (1 Bft)
02.06.2018 10:05 18,3 °C 74 % 1016,9 hPa 0,0 mm 2,3 km/h (1 Bft) O-SO 115 ° 1 min 0,000 mm 4,7 UV-I 744 W/m² 13,6 °C 18,3 °C 4,8 km/h (1 Bft)
02.06.2018 10:06 18,2 °C 74 % 1016,9 hPa 0,0 mm 0,1 km/h (0 Bft) O-SO 115 ° 1 min 0,000 mm 4,6 UV-I 726 W/m² 13,5 °C 18,2 °C 1,6 km/h (1 Bft)
02.06.2018 10:07 18,2 °C 77 % 1016,9 hPa 0,0 mm 4,3 km/h (1 Bft) N-NW 329 ° 1 min 0,000 mm 4,7 UV-I 721 W/m² 14,1 °C 18,2 °C 8,0 km/h (2 Bft)
02.06.2018 10:08 18,5 °C 76 % 1016,9 hPa 0,0 mm 4,4 km/h (1 Bft) NW 313 ° 1 min 0,000 mm 4,8 UV-I 729 W/m² 14,2 °C 18,5 °C 6,4 km/h (2 Bft)
02.06.2018 10:09 18,7 °C 77 % 1016,9 hPa 0,0 mm 2,6 km/h (1 Bft) NW 312 ° 1 min 0,000 mm 4,8 UV-I 687 W/m² 14,6 °C 18,7 °C 6,4 km/h (2 Bft)
02.06.2018 10:10 18,7 °C 74 % 1017,0 hPa 0,0 mm 3,0 km/h (1 Bft) NW 311 ° 1 min 0,000 mm 4,0 UV-I 687 W/m² 14,0 °C 18,7 °C 4,8 km/h (1 Bft)
02.06.2018 10:11 18,6 °C 73 % 1017,0 hPa 0,0 mm 1,6 km/h (1 Bft) NW 311 ° 1 min 0,000 mm 3,8 UV-I 659 W/m² 13,7 °C 18,6 °C 4,8 km/h (1 Bft)
02.06.2018 10:12 18,5 °C 73 % 1016,9 hPa 0,0 mm 3,8 km/h (1 Bft) NW 311 ° 1 min 0,000 mm 3,1 UV-I 659 W/m² 13,6 °C 18,5 °C 4,8 km/h (1 Bft)
02.06.2018 10:13 18,4 °C 75 % 1016,9 hPa 0,0 mm 1,4 km/h (1 Bft) NW 311 ° 1 min 0,000 mm 3,6 UV-I 659 W/m² 13,9 °C 18,4 °C 3,2 km/h (1 Bft)
02.06.2018 10:14 18,4 °C 76 % 1016,9 hPa 0,0 mm 0,6 km/h (0 Bft) NW 311 ° 1 min 0,000 mm 4,8 UV-I 659 W/m² 14,1 °C 18,4 °C 3,2 km/h (1 Bft)
02.06.2018 10:15 18,6 °C 77 % 1016,9 hPa 0,0 mm 1,1 km/h (1 Bft) NW 311 ° 1 min 0,000 mm 3,4 UV-I 659 W/m² 14,5 °C 18,6 °C 3,2 km/h (1 Bft)
02.06.2018 10:16 18,6 °C 75 % 1016,9 hPa 0,0 mm 2,3 km/h (1 Bft) O-NO 74 ° 0 min 0,000 mm 2,7 UV-I 172 W/m² 14,1 °C 18,6 °C 4,8 km/h (1 Bft)
02.06.2018 10:17 18,4 °C 73 % 1016,9 hPa 0,0 mm 1,8 km/h (1 Bft) O-NO 74 ° 0 min 0,000 mm 2,8 UV-I 178 W/m² 13,5 °C 18,4 °C 3,2 km/h (1 Bft)
02.06.2018 10:18 18,2 °C 74 % 1016,9 hPa 0,0 mm 0,0 km/h (0 Bft) O-NO 74 ° 0 min 0,000 mm 4,9 UV-I 178 W/m² 13,5 °C 18,2 °C 0,0 km/h (0 Bft)
02.06.2018 10:19 18,1 °C 75 % 1016,9 hPa 0,0 mm 0,7 km/h (0 Bft) O-NO 74 ° 0 min 0,000 mm 4,8 UV-I 178 W/m² 13,6 °C 18,1 °C 1,6 km/h (1 Bft)
02.06.2018 10:20 18,2 °C 76 % 1016,9 hPa 0,0 mm 0,0 km/h (0 Bft) O-NO 74 ° 0 min 0,000 mm 5,1 UV-I 178 W/m² 13,9 °C 18,2 °C 0,0 km/h (0 Bft)
02.06.2018 10:21 18,3 °C 75 % 1017,0 hPa 0,0 mm 0,6 km/h (0 Bft) N 349 ° 1 min 0,000 mm 5,1 UV-I 789 W/m² 13,8 °C 18,3 °C 3,2 km/h (1 Bft)
02.06.2018 10:22 18,3 °C 75 % 1016,9 hPa 0,0 mm 3,3 km/h (1 Bft) N-NW 337 ° 1 min 0,000 mm 3,8 UV-I 789 W/m² 13,8 °C 18,3 °C 4,8 km/h (1 Bft)
02.06.2018 10:23 18,4 °C 74 % 1016,9 hPa 0,0 mm 3,1 km/h (1 Bft) N 355 ° 1 min 0,000 mm 5,2 UV-I 789 W/m² 13,7 °C 18,4 °C 6,4 km/h (2 Bft)
02.06.2018 10:24 18,4 °C 74 % 1017,0 hPa 0,0 mm 5,8 km/h (2 Bft) N-NO 12 ° 1 min 0,000 mm 5,2 UV-I 831 W/m² 13,7 °C 18,4 °C 8,0 km/h (2 Bft)
02.06.2018 10:25 18,6 °C 76 % 1016,9 hPa 0,0 mm 3,1 km/h (1 Bft) NW 320 ° 1 min 0,000 mm 5,2 UV-I 831 W/m² 14,3 °C 18,6 °C 6,4 km/h (2 Bft)
02.06.2018 10:26 18,9 °C 76 % 1016,9 hPa 0,0 mm 3,4 km/h (1 Bft) N-NW 329 ° 1 min 0,000 mm 5,3 UV-I 831 W/m² 14,6 °C 18,9 °C 6,4 km/h (2 Bft)
02.06.2018 10:27 19,2 °C 76 % 1016,9 hPa 0,0 mm 1,7 km/h (1 Bft) W-NW 299 ° 1 min 0,000 mm 5,3 UV-I 803 W/m² 14,9 °C 19,2 °C 3,2 km/h (1 Bft)
02.06.2018 10:28 19,2 °C 74 % 1016,9 hPa 0,0 mm 2,3 km/h (1 Bft) W-NW 302 ° 1 min 0,000 mm 5,3 UV-I 798 W/m² 14,4 °C 19,2 °C 4,8 km/h (1 Bft)
02.06.2018 10:29 19,2 °C 74 % 1016,9 hPa 0,0 mm 6,3 km/h (2 Bft) W 271 ° 1 min 0,000 mm 5,3 UV-I 805 W/m² 14,4 °C 19,2 °C 8,0 km/h (2 Bft)
02.06.2018 10:30 19,2 °C 75 % 1016,8 hPa 0,0 mm 4,2 km/h (1 Bft) N-NW 335 ° 1 min 0,000 mm 5,3 UV-I 800 W/m² 14,7 °C 19,2 °C 6,4 km/h (2 Bft)
02.06.2018 10:31 19,2 °C 73 % 1016,9 hPa 0,0 mm 6,4 km/h (2 Bft) N-NW 345 ° 1 min 0,000 mm 5,3 UV-I 802 W/m² 14,2 °C 19,2 °C 9,7 km/h (2 Bft)
02.06.2018 10:32 19,3 °C 73 % 1016,9 hPa 0,0 mm 6,0 km/h (2 Bft) N 350 ° 1 min 0,000 mm 5,3 UV-I 809 W/m² 14,3 °C 19,3 °C 9,7 km/h (2 Bft)
02.06.2018 10:33 19,3 °C 73 % 1016,9 hPa 0,0 mm 4,8 km/h (1 Bft) N-NO 19 ° 1 min 0,000 mm 5,4 UV-I 826 W/m² 14,3 °C 19,3 °C 8,0 km/h (2 Bft)
02.06.2018 10:34 19,3 °C 71 % 1016,9 hPa 0,0 mm 5,2 km/h (1 Bft) N-NO 22 ° 1 min 0,000 mm 5,4 UV-I 823 W/m² 13,9 °C 19,3 °C 8,0 km/h (2 Bft)
02.06.2018 10:35 19,1 °C 70 % 1016,9 hPa 0,0 mm 3,9 km/h (1 Bft) N-NO 19 ° 1 min 0,000 mm 5,4 UV-I 814 W/m² 13,5 °C 19,1 °C 6,4 km/h (2 Bft)
02.06.2018 10:36 19,1 °C 71 % 1016,9 hPa 0,0 mm 4,0 km/h (1 Bft) N-NO 19 ° 1 min 0,000 mm 5,3 UV-I 795 W/m² 13,7 °C 19,1 °C 6,4 km/h (2 Bft)
02.06.2018 10:37 19,1 °C 72 % 1016,9 hPa 0,0 mm 3,6 km/h (1 Bft) N-NO 19 ° 1 min 0,000 mm 5,2 UV-I 782 W/m² 13,9 °C 19,1 °C 4,8 km/h (1 Bft)
02.06.2018 10:38 19,1 °C 72 % 1016,9 hPa 0,0 mm 6,4 km/h (2 Bft) NW 316 ° 1 min 0,000 mm 5,3 UV-I 786 W/m² 13,9 °C 19,1 °C 8,0 km/h (2 Bft)
02.06.2018 10:39 19,2 °C 74 % 1016,9 hPa 0,0 mm 4,7 km/h (1 Bft) N-NW 333 ° 1 min 0,000 mm 5,4 UV-I 809 W/m² 14,4 °C 19,2 °C 6,4 km/h (2 Bft)
02.06.2018 10:40 19,2 °C 72 % 1016,9 hPa 0,0 mm 3,4 km/h (1 Bft) NW 311 ° 1 min 0,000 mm 5,4 UV-I 838 W/m² 14,0 °C 19,2 °C 4,8 km/h (1 Bft)
02.06.2018 10:41 19,3 °C 72 % 1017,0 hPa 0,0 mm 2,6 km/h (1 Bft) N-NW 333 ° 1 min 0,000 mm 5,4 UV-I 838 W/m² 14,1 °C 19,3 °C 4,8 km/h (1 Bft)
02.06.2018 10:42 19,4 °C 74 % 1016,9 hPa 0,0 mm 4,9 km/h (1 Bft) W 273 ° 1 min 0,000 mm 5,4 UV-I 853 W/m² 14,6 °C 19,4 °C 8,0 km/h (2 Bft)
02.06.2018 10:43 19,4 °C 71 % 1016,9 hPa 0,0 mm 6,0 km/h (2 Bft) NW 306 ° 1 min 0,000 mm 5,5 UV-I 867 W/m² 14,0 °C 19,4 °C 9,7 km/h (2 Bft)
02.06.2018 10:44 19,4 °C 72 % 1016,9 hPa 0,0 mm 5,0 km/h (1 Bft) NW 319 ° 1 min 0,000 mm 5,6 UV-I 911 W/m² 14,2 °C 19,4 °C 6,4 km/h (2 Bft)
02.06.2018 10:45 19,4 °C 72 % 1016,9 hPa 0,0 mm 2,3 km/h (1 Bft) N-NO 22 ° 1 min 0,000 mm 3,9 UV-I 911 W/m² 14,2 °C 19,4 °C 4,8 km/h (1 Bft)
02.06.2018 10:46 19,3 °C 72 % 1016,9 hPa 0,0 mm 0,3 km/h (0 Bft) N-NO 22 ° 0 min 0,000 mm 2,9 UV-I 248 W/m² 14,1 °C 19,3 °C 1,6 km/h (1 Bft)
02.06.2018 10:47 19,1 °C 70 % 1016,9 hPa 0,0 mm 0,7 km/h (0 Bft) N-NO 22 ° 0 min 0,000 mm 2,9 UV-I 244 W/m² 13,5 °C 19,1 °C 3,2 km/h (1 Bft)
02.06.2018 10:48 18,9 °C 73 % 1016,9 hPa 0,0 mm 2,0 km/h (1 Bft) N-NO 17 ° 0 min 0,000 mm 2,9 UV-I 255 W/m² 13,9 °C 18,9 °C 3,2 km/h (1 Bft)
02.06.2018 10:49 18,8 °C 73 % 1016,9 hPa 0,0 mm 1,3 km/h (1 Bft) N-NO 17 ° 0 min 0,000 mm 2,9 UV-I 262 W/m² 13,9 °C 18,8 °C 1,6 km/h (1 Bft)
02.06.2018 10:50 18,7 °C 73 % 1016,9 hPa 0,0 mm 3,4 km/h (1 Bft) W-SW 248 ° 1 min 0,000 mm 4,2 UV-I 626 W/m² 13,8 °C 18,7 °C 4,8 km/h (1 Bft)
02.06.2018 10:51 18,8 °C 75 % 1016,9 hPa 0,0 mm 2,4 km/h (1 Bft) N-NW 339 ° 1 min 0,000 mm 2,7 UV-I 626 W/m² 14,3 °C 18,8 °C 6,4 km/h (2 Bft)
02.06.2018 10:52 18,8 °C 73 % 1016,9 hPa 0,0 mm 7,4 km/h (2 Bft) NW 319 ° 1 min 0,000 mm 2,4 UV-I 626 W/m² 13,9 °C 18,8 °C 12,9 km/h (3 Bft)
02.06.2018 10:53 18,7 °C 73 % 1016,9 hPa 0,0 mm 4,4 km/h (1 Bft) N 355 ° 0 min 0,000 mm 2,4 UV-I 227 W/m² 13,8 °C 18,7 °C 6,4 km/h (2 Bft)
02.06.2018 10:54 18,6 °C 74 % 1016,9 hPa 0,0 mm 2,8 km/h (1 Bft) NW 306 ° 0 min 0,000 mm 2,3 UV-I 211 W/m² 13,9 °C 18,6 °C 4,8 km/h (1 Bft)
02.06.2018 10:55 18,6 °C 74 % 1016,8 hPa 0,0 mm 8,4 km/h (2 Bft) N-NW 329 ° 0 min 0,000 mm 2,1 UV-I 186 W/m² 13,9 °C 18,6 °C 12,9 km/h (3 Bft)
02.06.2018 10:56 18,5 °C 75 % 1016,9 hPa 0,0 mm 5,4 km/h (1 Bft) N 355 ° 0 min 0,000 mm 1,9 UV-I 141 W/m² 14,0 °C 18,5 °C 9,7 km/h (2 Bft)
02.06.2018 10:57 18,4 °C 75 % 1017,0 hPa 0,0 mm 6,0 km/h (2 Bft) NW 319 ° 0 min 0,000 mm 1,8 UV-I 137 W/m² 13,9 °C 18,4 °C 9,7 km/h (2 Bft)
02.06.2018 10:58 18,4 °C 75 % 1017,0 hPa 0,0 mm 6,9 km/h (2 Bft) N 10 ° 0 min 0,000 mm 1,8 UV-I 127 W/m² 13,9 °C 18,4 °C 8,0 km/h (2 Bft)
02.06.2018 10:59 18,3 °C 75 % 1017,0 hPa 0,0 mm 3,8 km/h (1 Bft) N 9 ° 0 min 0,000 mm 1,8 UV-I 127 W/m² 13,8 °C 18,3 °C 6,4 km/h (2 Bft)
02.06.2018 11:00 18,3 °C 76 % 1016,9 hPa 0,0 mm 3,1 km/h (1 Bft) N-NW 340 ° 0 min 0,000 mm 1,8 UV-I 128 W/m² 14,0 °C 18,3 °C 4,8 km/h (1 Bft)
02.06.2018 11:01 18,3 °C 75 % 1016,9 hPa 0,0 mm 5,0 km/h (1 Bft) NW 323 ° 0 min 0,356 mm 1,9 UV-I 130 W/m² 13,8 °C 18,3 °C 6,4 km/h (2 Bft)
02.06.2018 11:02 18,2 °C 77 % 1016,9 hPa 0,0 mm 3,9 km/h (1 Bft) N 355 ° 0 min 0,000 mm 2,0 UV-I 142 W/m² 14,1 °C 18,2 °C 4,8 km/h (1 Bft)
02.06.2018 11:03 18,2 °C 76 % 1017,0 hPa 0,0 mm 3,6 km/h (1 Bft) N-NW 343 ° 0 min 0,000 mm 2,3 UV-I 142 W/m² 13,9 °C 18,2 °C 4,8 km/h (1 Bft)
02.06.2018 11:04 18,2 °C 76 % 1016,9 hPa 0,0 mm 4,0 km/h (1 Bft) N-NW 341 ° 0 min 0,000 mm 2,4 UV-I 137 W/m² 13,9 °C 18,2 °C 8,0 km/h (2 Bft)
02.06.2018 11:05 18,1 °C 75 % 1016,9 hPa 0,0 mm 3,2 km/h (1 Bft) N-NW 338 ° 0 min 0,000 mm 2,6 UV-I 144 W/m² 13,6 °C 18,1 °C 8,0 km/h (2 Bft)
02.06.2018 11:06 18,1 °C 75 % 1016,9 hPa 0,0 mm 4,3 km/h (1 Bft) NW 321 ° 0 min 0,000 mm 4,2 UV-I 144 W/m² 13,6 °C 18,1 °C 6,4 km/h (2 Bft)
02.06.2018 11:07 18,1 °C 75 % 1016,9 hPa 0,0 mm 3,5 km/h (1 Bft) N-NW 338 ° 0 min 0,000 mm 5,7 UV-I 144 W/m² 13,6 °C 18,1 °C 6,4 km/h (2 Bft)
02.06.2018 11:08 18,4 °C 77 % 1016,9 hPa 0,0 mm 1,8 km/h (1 Bft) N-NW 345 ° 1 min 0,000 mm 5,7 UV-I 846 W/m² 14,3 °C 18,4 °C 4,8 km/h (1 Bft)
02.06.2018 11:09 18,8 °C 80 % 1016,9 hPa 0,0 mm 5,0 km/h (1 Bft) NW 315 ° 1 min 0,000 mm 5,8 UV-I 846 W/m² 15,3 °C 18,8 °C 6,4 km/h (2 Bft)
02.06.2018 11:10 19,1 °C 80 % 1016,9 hPa 0,0 mm 2,3 km/h (1 Bft) NW 319 ° 1 min 0,000 mm 5,8 UV-I 849 W/m² 15,6 °C 19,1 °C 6,4 km/h (2 Bft)
02.06.2018 11:11 19,2 °C 75 % 1016,9 hPa 0,0 mm 2,0 km/h (1 Bft) W-NW 288 ° 1 min 0,000 mm 5,9 UV-I 854 W/m² 14,7 °C 19,2 °C 6,4 km/h (2 Bft)
02.06.2018 11:12 19,4 °C 74 % 1016,8 hPa 0,0 mm 4,3 km/h (1 Bft) W 281 ° 1 min 0,000 mm 5,9 UV-I 863 W/m² 14,6 °C 19,4 °C 6,4 km/h (2 Bft)
02.06.2018 11:13 19,6 °C 73 % 1016,8 hPa 0,0 mm 5,6 km/h (1 Bft) NW 318 ° 1 min 0,000 mm 6,0 UV-I 872 W/m² 14,6 °C 19,6 °C 8,0 km/h (2 Bft)
02.06.2018 11:14 19,7 °C 73 % 1016,8 hPa 0,0 mm 2,5 km/h (1 Bft) NW 318 ° 1 min 0,000 mm 6,0 UV-I 872 W/m² 14,7 °C 19,7 °C 4,8 km/h (1 Bft)
02.06.2018 11:15 19,7 °C 71 % 1016,8 hPa 0,0 mm 4,0 km/h (1 Bft) NW 310 ° 1 min 0,000 mm 6,2 UV-I 884 W/m² 14,3 °C 19,7 °C 4,8 km/h (1 Bft)
02.06.2018 11:16 19,7 °C 71 % 1016,9 hPa 0,0 mm 3,1 km/h (1 Bft) W-NW 300 ° 1 min 0,000 mm 6,3 UV-I 893 W/m² 14,3 °C 19,7 °C 4,8 km/h (1 Bft)
02.06.2018 11:17 19,7 °C 72 % 1016,9 hPa 0,0 mm 3,5 km/h (1 Bft) W 275 ° 1 min 0,000 mm 6,3 UV-I 898 W/m² 14,5 °C 19,7 °C 6,4 km/h (2 Bft)
02.06.2018 11:18 19,7 °C 71 % 1016,9 hPa 0,0 mm 1,0 km/h (0 Bft) W 275 ° 1 min 0,000 mm 6,3 UV-I 902 W/m² 14,3 °C 19,7 °C 3,2 km/h (1 Bft)
02.06.2018 11:19 19,8 °C 73 % 1016,9 hPa 0,0 mm 1,1 km/h (1 Bft) W 275 ° 1 min 0,000 mm 6,3 UV-I 911 W/m² 14,8 °C 19,8 °C 1,6 km/h (1 Bft)
02.06.2018 11:20 19,9 °C 70 % 1016,9 hPa 0,0 mm 4,4 km/h (1 Bft) O-NO 65 ° 1 min 0,000 mm 6,4 UV-I 914 W/m² 14,3 °C 19,9 °C 8,0 km/h (2 Bft)
02.06.2018 11:21 19,9 °C 72 % 1016,9 hPa 0,0 mm 3,0 km/h (1 Bft) O-NO 61 ° 1 min 0,000 mm 6,4 UV-I 923 W/m² 14,7 °C 19,9 °C 6,4 km/h (2 Bft)
02.06.2018 11:22 19,8 °C 71 % 1016,9 hPa 0,0 mm 3,0 km/h (1 Bft) NO 55 ° 1 min 0,000 mm 6,5 UV-I 935 W/m² 14,4 °C 19,8 °C 8,0 km/h (2 Bft)
02.06.2018 11:23 19,6 °C 69 % 1016,9 hPa 0,0 mm 7,8 km/h (2 Bft) N-NO 30 ° 1 min 0,000 mm 6,6 UV-I 951 W/m² 13,8 °C 19,6 °C 12,9 km/h (3 Bft)
02.06.2018 11:24 19,4 °C 69 % 1016,9 hPa 0,0 mm 6,9 km/h (2 Bft) NO 49 ° 1 min 0,000 mm 6,6 UV-I 960 W/m² 13,6 °C 19,4 °C 11,3 km/h (2 Bft)
02.06.2018 11:25 19,4 °C 71 % 1016,8 hPa 0,0 mm 4,5 km/h (1 Bft) NO 56 ° 1 min 0,000 mm 6,6 UV-I 979 W/m² 14,0 °C 19,4 °C 6,4 km/h (2 Bft)
02.06.2018 11:26 19,6 °C 71 % 1016,8 hPa 0,0 mm 3,3 km/h (1 Bft) O-NO 78 ° 1 min 0,000 mm 6,6 UV-I 997 W/m² 14,2 °C 19,6 °C 4,8 km/h (1 Bft)
02.06.2018 11:27 19,6 °C 71 % 1016,8 hPa 0,0 mm 3,1 km/h (1 Bft) S-SO 152 ° 1 min 0,000 mm 6,8 UV-I 1025 W/m² 14,2 °C 19,6 °C 6,4 km/h (2 Bft)
02.06.2018 11:28 19,7 °C 68 % 1016,8 hPa 0,0 mm 0,5 km/h (0 Bft) O-SO 118 ° 1 min 0,000 mm 6,7 UV-I 1044 W/m² 13,6 °C 19,7 °C 1,6 km/h (1 Bft)
02.06.2018 11:29 19,8 °C 71 % 1016,7 hPa 0,0 mm 4,4 km/h (1 Bft) N 5 ° 1 min 0,000 mm 6,8 UV-I 993 W/m² 14,4 °C 19,8 °C 12,9 km/h (3 Bft)
02.06.2018 11:30 19,8 °C 69 % 1016,8 hPa 0,0 mm 8,0 km/h (2 Bft) N 360 ° 1 min 0,000 mm 7,0 UV-I 1069 W/m² 13,9 °C 19,8 °C 12,9 km/h (3 Bft)
02.06.2018 11:31 19,9 °C 71 % 1016,7 hPa 0,0 mm 6,6 km/h (2 Bft) O-NO 59 ° 1 min 0,000 mm 6,8 UV-I 1037 W/m² 14,5 °C 19,9 °C 11,3 km/h (2 Bft)
02.06.2018 11:32 19,9 °C 68 % 1016,8 hPa 0,0 mm 5,4 km/h (1 Bft) SO 124 ° 1 min 0,000 mm 6,8 UV-I 1034 W/m² 13,8 °C 19,9 °C 8,0 km/h (2 Bft)
02.06.2018 11:33 19,8 °C 69 % 1016,8 hPa 0,0 mm 4,3 km/h (1 Bft) O-SO 117 ° 1 min 0,000 mm 7,0 UV-I 1121 W/m² 13,9 °C 19,8 °C 6,4 km/h (2 Bft)
02.06.2018 11:34 19,7 °C 69 % 1016,8 hPa 0,0 mm 0,8 km/h (0 Bft) O 79 ° 1 min 0,000 mm 6,9 UV-I 1118 W/m² 13,8 °C 19,7 °C 6,4 km/h (2 Bft)
02.06.2018 11:35 19,8 °C 70 % 1016,8 hPa 0,0 mm 5,2 km/h (1 Bft) O 88 ° 1 min 0,000 mm 6,8 UV-I 1120 W/m² 14,2 °C 19,8 °C 9,7 km/h (2 Bft)
02.06.2018 11:36 19,8 °C 68 % 1016,8 hPa 0,0 mm 0,0 km/h (0 Bft) O 88 ° 1 min 0,000 mm 6,7 UV-I 1114 W/m² 13,7 °C 19,8 °C 0,0 km/h (0 Bft)
02.06.2018 11:37 19,9 °C 72 % 1016,8 hPa 0,0 mm 0,3 km/h (0 Bft) O 88 ° 1 min 0,000 mm 6,5 UV-I 1083 W/m² 14,7 °C 19,9 °C 1,6 km/h (1 Bft)
02.06.2018 11:38 20,1 °C 72 % 1016,8 hPa 0,0 mm 2,3 km/h (1 Bft) O 89 ° 1 min 0,000 mm 5,9 UV-I 1055 W/m² 14,9 °C 20,1 °C 4,8 km/h (1 Bft)
02.06.2018 11:39 20,1 °C 72 % 1016,8 hPa 0,0 mm 1,2 km/h (1 Bft) N-NO 27 ° 1 min 0,000 mm 3,8 UV-I 1055 W/m² 14,9 °C 20,1 °C 6,4 km/h (2 Bft)
02.06.2018 11:40 20,1 °C 69 % 1016,8 hPa 0,0 mm 4,2 km/h (1 Bft) N-NO 16 ° 1 min 0,000 mm 2,9 UV-I 1055 W/m² 14,2 °C 20,1 °C 6,4 km/h (2 Bft)
02.06.2018 11:41 20,2 °C 69 % 1016,7 hPa 0,0 mm 3,8 km/h (1 Bft) N-NO 13 ° 1 min 0,000 mm 3,0 UV-I 605 W/m² 14,3 °C 20,2 °C 4,8 km/h (1 Bft)
02.06.2018 11:42 20,1 °C 67 % 1016,7 hPa 0,0 mm 1,9 km/h (1 Bft) N 9 ° 1 min 0,000 mm 2,1 UV-I 605 W/m² 13,8 °C 20,1 °C 3,2 km/h (1 Bft)
02.06.2018 11:43 19,9 °C 68 % 1016,8 hPa 0,0 mm 3,6 km/h (1 Bft) N 9 ° 0 min 0,000 mm 2,0 UV-I 188 W/m² 13,8 °C 19,9 °C 4,8 km/h (1 Bft)
02.06.2018 11:44 19,8 °C 68 % 1016,8 hPa 0,0 mm 4,2 km/h (1 Bft) N-NO 18 ° 0 min 0,000 mm 1,9 UV-I 174 W/m² 13,7 °C 19,8 °C 6,4 km/h (2 Bft)
02.06.2018 11:45 19,7 °C 69 % 1016,8 hPa 0,0 mm 3,6 km/h (1 Bft) N-NO 18 ° 0 min 0,000 mm 1,8 UV-I 163 W/m² 13,8 °C 19,7 °C 4,8 km/h (1 Bft)
02.06.2018 11:46 19,7 °C 69 % 1016,8 hPa 0,0 mm 3,0 km/h (1 Bft) N-NO 18 ° 0 min 0,000 mm 1,8 UV-I 155 W/m² 13,8 °C 19,7 °C 4,8 km/h (1 Bft)
02.06.2018 11:47 19,6 °C 70 % 1016,8 hPa 0,0 mm 3,4 km/h (1 Bft) N-NW 339 ° 0 min 0,000 mm 1,8 UV-I 148 W/m² 14,0 °C 19,6 °C 6,4 km/h (2 Bft)
02.06.2018 11:48 19,5 °C 71 % 1016,8 hPa 0,0 mm 2,3 km/h (1 Bft) NW 322 ° 0 min 0,000 mm 1,8 UV-I 148 W/m² 14,1 °C 19,5 °C 4,8 km/h (1 Bft)
02.06.2018 11:49 19,4 °C 70 % 1016,8 hPa 0,0 mm 0,1 km/h (0 Bft) NW 322 ° 0 min 0,000 mm 1,8 UV-I 142 W/m² 13,8 °C 19,4 °C 1,6 km/h (1 Bft)
02.06.2018 11:50 19,3 °C 70 % 1016,8 hPa 0,0 mm 2,1 km/h (1 Bft) NW 309 ° 0 min 0,000 mm 1,8 UV-I 130 W/m² 13,7 °C 19,3 °C 4,8 km/h (1 Bft)
02.06.2018 11:51 19,2 °C 72 % 1016,8 hPa 0,0 mm 1,8 km/h (1 Bft) NW 310 ° 0 min 0,000 mm 1,8 UV-I 123 W/m² 14,0 °C 19,2 °C 4,8 km/h (1 Bft)
02.06.2018 11:52 19,1 °C 73 % 1016,7 hPa 0,0 mm 1,9 km/h (1 Bft) NW 312 ° 0 min 0,000 mm 1,9 UV-I 121 W/m² 14,1 °C 19,1 °C 4,8 km/h (1 Bft)
02.06.2018 11:53 19,1 °C 72 % 1016,8 hPa 0,0 mm 3,0 km/h (1 Bft) NW 312 ° 0 min 0,000 mm 1,9 UV-I 121 W/m² 13,9 °C 19,1 °C 4,8 km/h (1 Bft)
02.06.2018 11:54 19,0 °C 69 % 1016,8 hPa 0,0 mm 2,4 km/h (1 Bft) NW 312 ° 0 min 0,000 mm 1,9 UV-I 127 W/m² 13,2 °C 19,0 °C 3,2 km/h (1 Bft)
02.06.2018 11:55 19,1 °C 70 % 1016,8 hPa 0,0 mm 3,7 km/h (1 Bft) N-NW 344 ° 0 min 0,000 mm 2,0 UV-I 128 W/m² 13,5 °C 19,1 °C 4,8 km/h (1 Bft)
02.06.2018 11:56 19,1 °C 70 % 1016,8 hPa 0,0 mm 1,8 km/h (1 Bft) N-NW 348 ° 0 min 0,000 mm 2,1 UV-I 134 W/m² 13,5 °C 19,1 °C 3,2 km/h (1 Bft)
02.06.2018 11:57 19,0 °C 70 % 1016,7 hPa 0,0 mm 3,6 km/h (1 Bft) N-NW 348 ° 0 min 0,000 mm 2,2 UV-I 141 W/m² 13,4 °C 19,0 °C 6,4 km/h (2 Bft)
02.06.2018 11:58 19,0 °C 70 % 1016,7 hPa 0,0 mm 3,4 km/h (1 Bft) N-NW 348 ° 0 min 0,000 mm 2,3 UV-I 146 W/m² 13,4 °C 19,0 °C 4,8 km/h (1 Bft)
02.06.2018 11:59 18,9 °C 70 % 1016,8 hPa 0,0 mm 2,1 km/h (1 Bft) N 5 ° 0 min 0,000 mm 2,4 UV-I 151 W/m² 13,3 °C 18,9 °C 3,2 km/h (1 Bft)
02.06.2018 12:00 18,9 °C 71 % 1016,7 hPa 0,0 mm 1,1 km/h (1 Bft) N 5 ° 0 min 0,000 mm 2,5 UV-I 153 W/m² 13,5 °C 18,9 °C 3,2 km/h (1 Bft)
02.06.2018 12:01 18,9 °C 72 % 1016,7 hPa 0,0 mm 0,4 km/h (0 Bft) N 5 ° 0 min 0,355 mm 2,6 UV-I 155 W/m² 13,7 °C 18,9 °C 1,6 km/h (1 Bft)
02.06.2018 12:02 18,8 °C 70 % 1016,7 hPa 0,0 mm 0,9 km/h (0 Bft) O 89 ° 0 min 0,000 mm 3,0 UV-I 178 W/m² 13,2 °C 18,8 °C 4,8 km/h (1 Bft)
02.06.2018 12:03 18,9 °C 71 % 1016,7 hPa 0,0 mm 3,4 km/h (1 Bft) O-SO 105 ° 0 min 0,000 mm 5,2 UV-I 178 W/m² 13,5 °C 18,9 °C 6,4 km/h (2 Bft)
02.06.2018 12:04 19,1 °C 71 % 1016,7 hPa 0,0 mm 2,3 km/h (1 Bft) O-SO 105 ° 1 min 0,000 mm 5,7 UV-I 877 W/m² 13,7 °C 19,1 °C 4,8 km/h (1 Bft)
02.06.2018 12:05 19,2 °C 70 % 1016,7 hPa 0,0 mm 3,0 km/h (1 Bft) O-SO 110 ° 1 min 0,000 mm 6,4 UV-I 942 W/m² 13,6 °C 19,2 °C 4,8 km/h (1 Bft)
02.06.2018 12:06 19,2 °C 70 % 1016,7 hPa 0,0 mm 5,0 km/h (1 Bft) O 101 ° 1 min 0,000 mm 4,7 UV-I 942 W/m² 13,6 °C 19,2 °C 9,7 km/h (2 Bft)
02.06.2018 12:07 19,2 °C 73 % 1016,7 hPa 0,0 mm 7,8 km/h (2 Bft) O-SO 109 ° 1 min 0,000 mm 6,4 UV-I 877 W/m² 14,2 °C 19,2 °C 11,3 km/h (2 Bft)
02.06.2018 12:08 19,2 °C 71 % 1016,7 hPa 0,0 mm 4,7 km/h (1 Bft) O-SO 114 ° 1 min 0,000 mm 6,8 UV-I 969 W/m² 13,8 °C 19,2 °C 6,4 km/h (2 Bft)
02.06.2018 12:09 19,2 °C 69 % 1016,7 hPa 0,0 mm 2,1 km/h (1 Bft) O-NO 57 ° 1 min 0,000 mm 6,8 UV-I 963 W/m² 13,4 °C 19,2 °C 3,2 km/h (1 Bft)
02.06.2018 12:10 19,3 °C 74 % 1016,7 hPa 0,0 mm 5,4 km/h (1 Bft) O 92 ° 1 min 0,000 mm 6,8 UV-I 969 W/m² 14,5 °C 19,3 °C 6,4 km/h (2 Bft)
02.06.2018 12:11 19,4 °C 72 % 1016,7 hPa 0,0 mm 2,6 km/h (1 Bft) O 92 ° 1 min 0,000 mm 3,5 UV-I 969 W/m² 14,2 °C 19,4 °C 4,8 km/h (1 Bft)
02.06.2018 12:12 19,6 °C 71 % 1016,7 hPa 0,0 mm 3,4 km/h (1 Bft) O-NO 62 ° 0 min 0,000 mm 4,0 UV-I 271 W/m² 14,2 °C 19,6 °C 6,4 km/h (2 Bft)
02.06.2018 12:13 19,6 °C 72 % 1016,7 hPa 0,0 mm 3,0 km/h (1 Bft) O 80 ° 0 min 0,000 mm 6,6 UV-I 271 W/m² 14,4 °C 19,6 °C 4,8 km/h (1 Bft)
02.06.2018 12:14 19,7 °C 69 % 1016,7 hPa 0,0 mm 2,5 km/h (1 Bft) O 88 ° 1 min 0,000 mm 6,9 UV-I 953 W/m² 13,8 °C 19,7 °C 4,8 km/h (1 Bft)
02.06.2018 12:15 19,7 °C 68 % 1016,7 hPa 0,0 mm 1,8 km/h (1 Bft) O 88 ° 1 min 0,000 mm 6,9 UV-I 947 W/m² 13,6 °C 19,7 °C 3,2 km/h (1 Bft)
02.06.2018 12:16 19,8 °C 71 % 1016,6 hPa 0,0 mm 2,9 km/h (1 Bft) O-NO 72 ° 1 min 0,000 mm 6,9 UV-I 940 W/m² 14,4 °C 19,8 °C 4,8 km/h (1 Bft)
02.06.2018 12:17 19,9 °C 69 % 1016,6 hPa 0,0 mm 5,9 km/h (2 Bft) O 93 ° 1 min 0,000 mm 7,0 UV-I 953 W/m² 14,0 °C 19,9 °C 6,4 km/h (2 Bft)
02.06.2018 12:18 20,0 °C 73 % 1016,7 hPa 0,0 mm 5,9 km/h (2 Bft) O 82 ° 1 min 0,000 mm 7,0 UV-I 969 W/m² 15,0 °C 20,0 °C 8,0 km/h (2 Bft)
02.06.2018 12:19 19,9 °C 70 % 1016,6 hPa 0,0 mm 4,8 km/h (1 Bft) O-SO 105 ° 1 min 0,000 mm 7,1 UV-I 974 W/m² 14,3 °C 19,9 °C 6,4 km/h (2 Bft)
02.06.2018 12:20 20,0 °C 68 % 1016,6 hPa 0,0 mm 3,1 km/h (1 Bft) N-NO 12 ° 1 min 0,000 mm 7,2 UV-I 986 W/m² 13,9 °C 20,0 °C 8,0 km/h (2 Bft)
02.06.2018 12:21 20,1 °C 72 % 1016,6 hPa 0,0 mm 4,8 km/h (1 Bft) N 5 ° 1 min 0,000 mm 7,3 UV-I 997 W/m² 14,9 °C 20,1 °C 8,0 km/h (2 Bft)
02.06.2018 12:22 20,3 °C 71 % 1016,5 hPa 0,0 mm 5,2 km/h (1 Bft) N-NO 30 ° 1 min 0,000 mm 7,4 UV-I 1009 W/m² 14,9 °C 20,3 °C 9,7 km/h (2 Bft)
02.06.2018 12:23 20,6 °C 70 % 1016,5 hPa 0,0 mm 5,0 km/h (1 Bft) N-NO 25 ° 1 min 0,000 mm 7,5 UV-I 1025 W/m² 14,9 °C 20,6 °C 6,4 km/h (2 Bft)
02.06.2018 12:24 20,7 °C 68 % 1016,4 hPa 0,0 mm 4,4 km/h (1 Bft) O-NO 65 ° 1 min 0,000 mm 7,5 UV-I 1037 W/m² 14,6 °C 20,7 °C 6,4 km/h (2 Bft)
02.06.2018 12:25 20,6 °C 66 % 1016,5 hPa 0,0 mm 3,2 km/h (1 Bft) NO 55 ° 1 min 0,000 mm 7,5 UV-I 1044 W/m² 14,0 °C 20,6 °C 4,8 km/h (1 Bft)
02.06.2018 12:26 20,7 °C 70 % 1016,5 hPa 0,0 mm 9,1 km/h (2 Bft) O-NO 57 ° 1 min 0,000 mm 7,5 UV-I 1049 W/m² 15,0 °C 20,7 °C 14,5 km/h (3 Bft)
02.06.2018 12:27 20,6 °C 68 % 1016,5 hPa 0,0 mm 6,8 km/h (2 Bft) O 80 ° 1 min 0,000 mm 7,5 UV-I 1056 W/m² 14,5 °C 20,6 °C 12,9 km/h (3 Bft)
02.06.2018 12:28 20,6 °C 67 % 1016,5 hPa 0,0 mm 5,4 km/h (1 Bft) O 80 ° 1 min 0,000 mm 7,5 UV-I 1076 W/m² 14,3 °C 20,6 °C 12,9 km/h (3 Bft)
02.06.2018 12:29 20,4 °C 67 % 1016,5 hPa 0,0 mm 4,2 km/h (1 Bft) O-NO 61 ° 1 min 0,000 mm 4,7 UV-I 1076 W/m² 14,1 °C 20,4 °C 8,0 km/h (2 Bft)
02.06.2018 12:30 20,4 °C 71 % 1016,4 hPa 0,0 mm 5,0 km/h (1 Bft) O 89 ° 0 min 0,000 mm 4,5 UV-I 506 W/m² 15,0 °C 20,4 °C 9,7 km/h (2 Bft)
02.06.2018 12:31 20,3 °C 69 % 1016,5 hPa 0,0 mm 3,0 km/h (1 Bft) NO 41 ° 0 min 0,000 mm 5,1 UV-I 506 W/m² 14,4 °C 20,3 °C 4,8 km/h (1 Bft)
02.06.2018 12:32 20,2 °C 70 % 1016,5 hPa 0,0 mm 4,0 km/h (1 Bft) O-NO 59 ° 0 min 0,000 mm 3,8 UV-I 506 W/m² 14,5 °C 20,2 °C 9,7 km/h (2 Bft)
02.06.2018 12:33 20,2 °C 70 % 1016,5 hPa 0,0 mm 5,9 km/h (2 Bft) O 101 ° 0 min 0,000 mm 3,2 UV-I 339 W/m² 14,5 °C 20,2 °C 11,3 km/h (2 Bft)
02.06.2018 12:34 20,1 °C 71 % 1016,4 hPa 0,0 mm 11,9 km/h (2 Bft) O-SO 113 ° 0 min 0,000 mm 2,8 UV-I 299 W/m² 14,7 °C 20,1 °C 16,1 km/h (3 Bft)
02.06.2018 12:35 19,9 °C 68 % 1016,5 hPa 0,0 mm 6,0 km/h (2 Bft) O-SO 107 ° 0 min 0,000 mm 2,6 UV-I 257 W/m² 13,8 °C 19,9 °C 8,0 km/h (2 Bft)
02.06.2018 12:36 19,7 °C 69 % 1016,5 hPa 0,0 mm 3,7 km/h (1 Bft) O 101 ° 0 min 0,000 mm 2,4 UV-I 207 W/m² 13,8 °C 19,7 °C 6,4 km/h (2 Bft)
02.06.2018 12:37 19,6 °C 71 % 1016,6 hPa 0,0 mm 4,8 km/h (1 Bft) NO 44 ° 0 min 0,000 mm 2,0 UV-I 190 W/m² 14,2 °C 19,6 °C 8,0 km/h (2 Bft)
02.06.2018 12:38 19,4 °C 70 % 1016,6 hPa 0,0 mm 3,1 km/h (1 Bft) NO 51 ° 0 min 0,000 mm 2,0 UV-I 179 W/m² 13,8 °C 19,4 °C 8,0 km/h (2 Bft)
02.06.2018 12:39 19,4 °C 70 % 1016,5 hPa 0,0 mm 5,8 km/h (2 Bft) NO 39 ° 0 min 0,000 mm 1,9 UV-I 178 W/m² 13,8 °C 19,4 °C 9,7 km/h (2 Bft)
02.06.2018 12:40 19,4 °C 70 % 1016,4 hPa 0,0 mm 5,3 km/h (1 Bft) O 97 ° 0 min 0,000 mm 1,9 UV-I 178 W/m² 13,8 °C 19,4 °C 8,0 km/h (2 Bft)
02.06.2018 12:41 19,3 °C 69 % 1016,6 hPa 0,0 mm 4,3 km/h (1 Bft) O-NO 68 ° 0 min 0,000 mm 1,9 UV-I 169 W/m² 13,5 °C 19,3 °C 8,0 km/h (2 Bft)
02.06.2018 12:42 19,2 °C 69 % 1016,5 hPa 0,0 mm 2,7 km/h (1 Bft) O-NO 67 ° 0 min 0,000 mm 1,9 UV-I 171 W/m² 13,4 °C 19,2 °C 4,8 km/h (1 Bft)
02.06.2018 12:43 19,2 °C 72 % 1016,5 hPa 0,0 mm 2,5 km/h (1 Bft) O 84 ° 0 min 0,000 mm 1,8 UV-I 158 W/m² 14,0 °C 19,2 °C 4,8 km/h (1 Bft)
02.06.2018 12:44 19,2 °C 72 % 1016,5 hPa 0,0 mm 2,1 km/h (1 Bft) O 97 ° 0 min 0,000 mm 1,6 UV-I 137 W/m² 14,0 °C 19,2 °C 3,2 km/h (1 Bft)
02.06.2018 12:45 19,1 °C 74 % 1016,5 hPa 0,0 mm 0,4 km/h (0 Bft) O 96 ° 0 min 0,000 mm 1,6 UV-I 130 W/m² 14,4 °C 19,1 °C 3,2 km/h (1 Bft)
02.06.2018 12:46 18,9 °C 71 % 1016,5 hPa 0,0 mm 2,3 km/h (1 Bft) O-NO 63 ° 0 min 0,000 mm 1,5 UV-I 127 W/m² 13,5 °C 18,9 °C 4,8 km/h (1 Bft)
02.06.2018 12:47 18,9 °C 71 % 1016,6 hPa 0,0 mm 2,9 km/h (1 Bft) O-NO 63 ° 0 min 0,000 mm 1,5 UV-I 114 W/m² 13,5 °C 18,9 °C 6,4 km/h (2 Bft)
02.06.2018 12:48 18,9 °C 70 % 1016,5 hPa 0,0 mm 0,0 km/h (0 Bft) O-NO 63 ° 0 min 0,000 mm 1,4 UV-I 107 W/m² 13,3 °C 18,9 °C 0,0 km/h (0 Bft)
02.06.2018 12:49 19,0 °C 69 % 1016,6 hPa 0,0 mm 0,4 km/h (0 Bft) O-NO 63 ° 0 min 0,000 mm 1,3 UV-I 104 W/m² 13,2 °C 19,0 °C 3,2 km/h (1 Bft)
02.06.2018 12:50 19,1 °C 70 % 1016,5 hPa 0,0 mm 1,4 km/h (1 Bft) O-NO 63 ° 0 min 0,000 mm 1,3 UV-I 98 W/m² 13,5 °C 19,1 °C 3,2 km/h (1 Bft)
02.06.2018 12:51 19,1 °C 70 % 1016,5 hPa 0,0 mm 0,0 km/h (0 Bft) O-NO 63 ° 0 min 0,000 mm 1,3 UV-I 98 W/m² 13,5 °C 19,1 °C 0,0 km/h (0 Bft)
02.06.2018 12:52 19,0 °C 73 % 1016,5 hPa 0,0 mm 0,0 km/h (0 Bft) O-NO 63 ° 0 min 0,000 mm 1,3 UV-I 98 W/m² 14,0 °C 19,0 °C 0,0 km/h (0 Bft)
02.06.2018 12:53 19,0 °C 74 % 1016,5 hPa 0,0 mm 0,0 km/h (0 Bft) O-NO 63 ° 0 min 0,000 mm 1,3 UV-I 93 W/m² 14,3 °C 19,0 °C 0,0 km/h (0 Bft)
02.06.2018 12:54 18,9 °C 75 % 1016,5 hPa 0,0 mm 0,0 km/h (0 Bft) O-NO 63 ° 0 min 0,000 mm 1,3 UV-I 91 W/m² 14,4 °C 18,9 °C 0,0 km/h (0 Bft)
02.06.2018 12:55 18,8 °C 74 % 1016,5 hPa 0,0 mm 0,6 km/h (0 Bft) O-NO 63 ° 0 min 0,000 mm 1,4 UV-I 90 W/m² 14,1 °C 18,8 °C 1,6 km/h (1 Bft)
02.06.2018 12:56 18,6 °C 75 % 1016,5 hPa 0,0 mm 1,1 km/h (1 Bft) O-NO 63 ° 0 min 0,000 mm 1,4 UV-I 88 W/m² 14,1 °C 18,6 °C 3,2 km/h (1 Bft)
02.06.2018 12:57 18,6 °C 72 % 1016,5 hPa 0,0 mm 0,0 km/h (0 Bft) O-NO 63 ° 0 min 0,000 mm 1,4 UV-I 86 W/m² 13,4 °C 18,6 °C 0,0 km/h (0 Bft)
02.06.2018 12:58 18,6 °C 72 % 1016,5 hPa 0,0 mm 1,8 km/h (1 Bft) O 88 ° 0 min 0,000 mm 1,5 UV-I 88 W/m² 13,4 °C 18,6 °C 3,2 km/h (1 Bft)
02.06.2018 12:59 18,5 °C 73 % 1016,5 hPa 0,0 mm 0,6 km/h (0 Bft) O 88 ° 0 min 0,000 mm 1,5 UV-I 93 W/m² 13,6 °C 18,5 °C 1,6 km/h (1 Bft)
02.06.2018 13:00 18,4 °C 74 % 1016,5 hPa 0,2 mm 2,9 km/h (1 Bft) O 88 ° 0 min 0,000 mm 1,6 UV-I 95 W/m² 13,7 °C 18,4 °C 4,8 km/h (1 Bft)
02.06.2018 13:01 18,2 °C 77 % 1016,4 hPa 0,0 mm 2,4 km/h (1 Bft) O 88 ° 0 min 0,305 mm 1,7 UV-I 102 W/m² 14,1 °C 18,2 °C 4,8 km/h (1 Bft)
02.06.2018 13:02 17,9 °C 80 % 1016,4 hPa 0,0 mm 2,3 km/h (1 Bft) O-SO 111 ° 0 min 0,000 mm 1,8 UV-I 111 W/m² 14,4 °C 17,9 °C 4,8 km/h (1 Bft)
02.06.2018 13:03 17,5 °C 82 % 1016,5 hPa 0,2 mm 0,4 km/h (0 Bft) O-SO 111 ° 0 min 0,000 mm 1,9 UV-I 123 W/m² 14,4 °C 17,5 °C 1,6 km/h (1 Bft)
02.06.2018 13:04 17,2 °C 84 % 1016,5 hPa 0,0 mm 3,2 km/h (1 Bft) O-SO 113 ° 0 min 0,000 mm 2,0 UV-I 135 W/m² 14,5 °C 17,2 °C 4,8 km/h (1 Bft)
02.06.2018 13:05 16,9 °C 85 % 1016,5 hPa 0,0 mm 2,0 km/h (1 Bft) O-SO 113 ° 0 min 0,000 mm 2,1 UV-I 167 W/m² 14,4 °C 16,9 °C 3,2 km/h (1 Bft)
02.06.2018 13:06 16,8 °C 86 % 1016,5 hPa 0,0 mm 4,2 km/h (1 Bft) O-SO 121 ° 0 min 0,000 mm 2,4 UV-I 186 W/m² 14,4 °C 16,8 °C 4,8 km/h (1 Bft)
02.06.2018 13:07 16,6 °C 86 % 1016,5 hPa 0,0 mm 2,4 km/h (1 Bft) O-SO 121 ° 0 min 0,000 mm 2,6 UV-I 202 W/m² 14,2 °C 16,6 °C 4,8 km/h (1 Bft)
02.06.2018 13:08 16,5 °C 88 % 1016,5 hPa 0,0 mm 1,1 km/h (1 Bft) O-SO 121 ° 0 min 0,000 mm 2,7 UV-I 220 W/m² 14,5 °C 16,5 °C 3,2 km/h (1 Bft)
02.06.2018 13:09 16,4 °C 88 % 1016,5 hPa 0,0 mm 0,5 km/h (0 Bft) O-SO 121 ° 0 min 0,000 mm 2,9 UV-I 241 W/m² 14,4 °C 16,4 °C 1,6 km/h (1 Bft)
02.06.2018 13:10 16,4 °C 89 % 1016,4 hPa 0,0 mm 0,9 km/h (0 Bft) O-SO 121 ° 0 min 0,000 mm 3,2 UV-I 274 W/m² 14,6 °C 16,4 °C 3,2 km/h (1 Bft)
02.06.2018 13:11 16,4 °C 89 % 1016,4 hPa 0,0 mm 0,8 km/h (0 Bft) O-SO 121 ° 0 min 0,000 mm 3,4 UV-I 366 W/m² 14,6 °C 16,4 °C 1,6 km/h (1 Bft)
02.06.2018 13:12 16,5 °C 89 % 1016,4 hPa 0,0 mm 1,1 km/h (1 Bft) O-SO 121 ° 0 min 0,000 mm 6,7 UV-I 366 W/m² 14,7 °C 16,5 °C 3,2 km/h (1 Bft)
02.06.2018 13:13 16,7 °C 89 % 1016,4 hPa 0,0 mm 0,1 km/h (0 Bft) O-SO 121 ° 0 min 0,000 mm 3,8 UV-I 366 W/m² 14,9 °C 16,7 °C 1,6 km/h (1 Bft)
02.06.2018 13:14 16,9 °C 89 % 1016,4 hPa 0,0 mm 2,2 km/h (1 Bft) O-SO 121 ° 0 min 0,000 mm 4,5 UV-I 353 W/m² 15,1 °C 16,9 °C 4,8 km/h (1 Bft)
02.06.2018 13:15 17,2 °C 90 % 1016,4 hPa 0,0 mm 3,8 km/h (1 Bft) O-SO 108 ° 0 min 0,000 mm 7,0 UV-I 353 W/m² 15,5 °C 17,2 °C 6,4 km/h (2 Bft)
02.06.2018 13:16 17,3 °C 89 % 1016,5 hPa 0,0 mm 4,1 km/h (1 Bft) SO 128 ° 1 min 0,000 mm 7,1 UV-I 976 W/m² 15,5 °C 17,3 °C 8,0 km/h (2 Bft)
02.06.2018 13:17 17,7 °C 90 % 1016,5 hPa 0,0 mm 3,8 km/h (1 Bft) SO 130 ° 1 min 0,000 mm 7,2 UV-I 976 W/m² 16,0 °C 17,7 °C 6,4 km/h (2 Bft)
02.06.2018 13:18 18,0 °C 89 % 1016,5 hPa 0,0 mm 3,2 km/h (1 Bft) SO 128 ° 1 min 0,000 mm 6,5 UV-I 976 W/m² 16,2 °C 18,0 °C 6,4 km/h (2 Bft)
02.06.2018 13:19 18,1 °C 89 % 1016,5 hPa 0,0 mm 3,9 km/h (1 Bft) SO 143 ° 1 min 0,000 mm 4,2 UV-I 976 W/m² 16,3 °C 18,1 °C 6,4 km/h (2 Bft)
02.06.2018 13:20 18,2 °C 84 % 1016,5 hPa 0,0 mm 5,7 km/h (1 Bft) O-SO 113 ° 1 min 0,000 mm 5,0 UV-I 976 W/m² 15,4 °C 18,2 °C 11,3 km/h (2 Bft)
02.06.2018 13:21 18,3 °C 87 % 1016,5 hPa 0,0 mm 1,1 km/h (1 Bft) O 85 ° 1 min 0,000 mm 7,2 UV-I 976 W/m² 16,1 °C 18,3 °C 3,2 km/h (1 Bft)
02.06.2018 13:22 18,4 °C 86 % 1016,5 hPa 0,0 mm 5,1 km/h (1 Bft) SO 130 ° 1 min 0,000 mm 7,2 UV-I 944 W/m² 16,0 °C 18,4 °C 8,0 km/h (2 Bft)
02.06.2018 13:23 18,5 °C 86 % 1016,5 hPa 0,0 mm 3,4 km/h (1 Bft) O-SO 104 ° 1 min 0,000 mm 7,3 UV-I 944 W/m² 16,1 °C 18,5 °C 6,4 km/h (2 Bft)
02.06.2018 13:24 18,8 °C 86 % 1016,4 hPa 0,0 mm 3,9 km/h (1 Bft) O-NO 67 ° 1 min 0,000 mm 7,4 UV-I 953 W/m² 16,4 °C 18,8 °C 9,7 km/h (2 Bft)
02.06.2018 13:25 19,0 °C 85 % 1016,4 hPa 0,0 mm 6,4 km/h (2 Bft) O-SO 119 ° 1 min 0,000 mm 7,3 UV-I 951 W/m² 16,4 °C 19,0 °C 9,7 km/h (2 Bft)
02.06.2018 13:26 19,3 °C 84 % 1016,4 hPa 0,0 mm 3,4 km/h (1 Bft) O-NO 63 ° 1 min 0,000 mm 7,3 UV-I 944 W/m² 16,5 °C 19,3 °C 6,4 km/h (2 Bft)
02.06.2018 13:27 19,4 °C 78 % 1016,4 hPa 0,0 mm 3,1 km/h (1 Bft) O-NO 69 ° 1 min 0,000 mm 7,3 UV-I 942 W/m² 15,5 °C 19,4 °C 8,0 km/h (2 Bft)
02.06.2018 13:28 19,4 °C 77 % 1016,4 hPa 0,0 mm 6,2 km/h (2 Bft) O-NO 58 ° 1 min 0,000 mm 7,2 UV-I 946 W/m² 15,3 °C 19,4 °C 8,0 km/h (2 Bft)
02.06.2018 13:29 19,4 °C 76 % 1016,3 hPa 0,0 mm 3,8 km/h (1 Bft) O-NO 65 ° 1 min 0,000 mm 7,2 UV-I 956 W/m² 15,1 °C 19,4 °C 6,4 km/h (2 Bft)
02.06.2018 13:30 19,4 °C 75 % 1016,4 hPa 0,0 mm 4,1 km/h (1 Bft) N-NO 33 ° 1 min 0,000 mm 7,2 UV-I 958 W/m² 14,8 °C 19,4 °C 6,4 km/h (2 Bft)
02.06.2018 13:31 19,5 °C 77 % 1016,3 hPa 0,0 mm 3,5 km/h (1 Bft) O 79 ° 1 min 0,000 mm 7,2 UV-I 963 W/m² 15,4 °C 19,5 °C 4,8 km/h (1 Bft)
02.06.2018 13:32 19,7 °C 79 % 1016,4 hPa 0,0 mm 5,2 km/h (1 Bft) O-NO 58 ° 1 min 0,000 mm 7,2 UV-I 963 W/m² 16,0 °C 19,7 °C 9,7 km/h (2 Bft)
02.06.2018 13:33 19,7 °C 77 % 1016,3 hPa 0,0 mm 4,3 km/h (1 Bft) O-NO 66 ° 1 min 0,000 mm 7,2 UV-I 962 W/m² 15,5 °C 19,7 °C 6,4 km/h (2 Bft)
02.06.2018 13:34 19,8 °C 76 % 1016,2 hPa 0,0 mm 5,3 km/h (1 Bft) NO 44 ° 1 min 0,000 mm 7,2 UV-I 962 W/m² 15,4 °C 19,8 °C 6,4 km/h (2 Bft)
02.06.2018 13:35 19,8 °C 75 % 1016,2 hPa 0,0 mm 2,6 km/h (1 Bft) O-NO 69 ° 1 min 0,000 mm 7,3 UV-I 963 W/m² 15,2 °C 19,8 °C 4,8 km/h (1 Bft)
02.06.2018 13:36 20,1 °C 80 % 1016,2 hPa 0,0 mm 4,5 km/h (1 Bft) O-NO 63 ° 1 min 0,000 mm 7,3 UV-I 963 W/m² 16,5 °C 20,1 °C 6,4 km/h (2 Bft)
02.06.2018 13:37 20,2 °C 76 % 1016,2 hPa 0,0 mm 5,6 km/h (1 Bft) O-SO 116 ° 1 min 0,000 mm 7,3 UV-I 967 W/m² 15,8 °C 20,2 °C 9,7 km/h (2 Bft)
02.06.2018 13:38 20,0 °C 75 % 1016,2 hPa 0,0 mm 5,3 km/h (1 Bft) O-SO 121 ° 1 min 0,000 mm 7,3 UV-I 969 W/m² 15,4 °C 20,0 °C 9,7 km/h (2 Bft)
02.06.2018 13:39 19,9 °C 74 % 1016,2 hPa 0,0 mm 2,9 km/h (1 Bft) O-SO 115 ° 1 min 0,000 mm 7,3 UV-I 969 W/m² 15,1 °C 19,9 °C 6,4 km/h (2 Bft)
02.06.2018 13:40 19,9 °C 77 % 1016,1 hPa 0,0 mm 3,2 km/h (1 Bft) NO 40 ° 1 min 0,000 mm 7,3 UV-I 969 W/m² 15,7 °C 19,9 °C 6,4 km/h (2 Bft)
02.06.2018 13:41 20,1 °C 80 % 1016,1 hPa 0,0 mm 2,8 km/h (1 Bft) O-SO 107 ° 1 min 0,000 mm 7,3 UV-I 979 W/m² 16,5 °C 20,1 °C 4,8 km/h (1 Bft)
02.06.2018 13:42 20,1 °C 75 % 1016,1 hPa 0,0 mm 3,3 km/h (1 Bft) NO 49 ° 1 min 0,000 mm 7,4 UV-I 986 W/m² 15,5 °C 20,1 °C 8,0 km/h (2 Bft)
02.06.2018 13:43 20,2 °C 73 % 1016,1 hPa 0,0 mm 6,5 km/h (2 Bft) O-NO 73 ° 1 min 0,000 mm 7,4 UV-I 991 W/m² 15,2 °C 20,2 °C 11,3 km/h (2 Bft)
02.06.2018 13:44 20,2 °C 74 % 1016,1 hPa 0,0 mm 7,6 km/h (2 Bft) O 94 ° 1 min 0,000 mm 7,4 UV-I 1000 W/m² 15,4 °C 20,2 °C 9,7 km/h (2 Bft)
02.06.2018 13:45 20,1 °C 70 % 1016,1 hPa 0,0 mm 7,8 km/h (2 Bft) S-SO 150 ° 1 min 0,000 mm 3,7 UV-I 1000 W/m² 14,5 °C 20,1 °C 11,3 km/h (2 Bft)
02.06.2018 13:46 19,9 °C 70 % 1016,1 hPa 0,0 mm 4,0 km/h (1 Bft) S-SO 155 ° 1 min 0,000 mm 5,4 UV-I 1065 W/m² 14,3 °C 19,9 °C 4,8 km/h (1 Bft)
02.06.2018 13:47 20,0 °C 73 % 1016,1 hPa 0,0 mm 1,3 km/h (1 Bft) O 88 ° 1 min 0,000 mm 7,5 UV-I 1042 W/m² 15,0 °C 20,0 °C 3,2 km/h (1 Bft)
02.06.2018 13:48 20,1 °C 75 % 1016,0 hPa 0,0 mm 3,8 km/h (1 Bft) N-NO 14 ° 1 min 0,000 mm 7,5 UV-I 1065 W/m² 15,5 °C 20,1 °C 8,0 km/h (2 Bft)
02.06.2018 13:49 20,3 °C 77 % 1016,1 hPa 0,0 mm 5,3 km/h (1 Bft) SO 140 ° 1 min 0,000 mm 7,6 UV-I 1088 W/m² 16,1 °C 20,3 °C 8,0 km/h (2 Bft)
02.06.2018 13:50 20,2 °C 77 % 1016,1 hPa 0,0 mm 5,0 km/h (1 Bft) SO 125 ° 1 min 0,000 mm 7,5 UV-I 1107 W/m² 16,0 °C 20,2 °C 11,3 km/h (2 Bft)
02.06.2018 13:51 20,1 °C 73 % 1016,0 hPa 0,0 mm 1,5 km/h (1 Bft) O-NO 78 ° 1 min 0,000 mm 7,6 UV-I 1090 W/m² 15,1 °C 20,1 °C 4,8 km/h (1 Bft)
02.06.2018 13:52 20,2 °C 74 % 1016,0 hPa 0,0 mm 2,3 km/h (1 Bft) O-NO 68 ° 1 min 0,000 mm 7,5 UV-I 1056 W/m² 15,4 °C 20,2 °C 6,4 km/h (2 Bft)
02.06.2018 13:53 20,5 °C 79 % 1016,0 hPa 0,0 mm 5,0 km/h (1 Bft) SO 144 ° 1 min 0,000 mm 7,4 UV-I 1042 W/m² 16,7 °C 20,5 °C 6,4 km/h (2 Bft)
02.06.2018 13:54 20,4 °C 73 % 1015,9 hPa 0,0 mm 1,7 km/h (1 Bft) S-SO 152 ° 1 min 0,000 mm 7,4 UV-I 1049 W/m² 15,4 °C 20,4 °C 6,4 km/h (2 Bft)
02.06.2018 13:55 20,6 °C 71 % 1015,9 hPa 0,0 mm 1,8 km/h (1 Bft) O-SO 115 ° 1 min 0,000 mm 7,6 UV-I 1085 W/m² 15,2 °C 20,6 °C 4,8 km/h (1 Bft)
02.06.2018 13:56 20,7 °C 73 % 1015,9 hPa 0,0 mm 0,7 km/h (0 Bft) O-SO 115 ° 1 min 0,000 mm 6,7 UV-I 1085 W/m² 15,7 °C 20,7 °C 3,2 km/h (1 Bft)
02.06.2018 13:57 20,8 °C 71 % 1015,9 hPa 0,0 mm 3,5 km/h (1 Bft) NO 49 ° 1 min 0,000 mm 7,3 UV-I 1085 W/m² 15,3 °C 20,8 °C 6,4 km/h (2 Bft)
02.06.2018 13:58 20,8 °C 72 % 1015,9 hPa 0,0 mm 2,3 km/h (1 Bft) O-NO 59 ° 1 min 0,000 mm 6,9 UV-I 1085 W/m² 15,6 °C 20,8 °C 6,4 km/h (2 Bft)
02.06.2018 13:59 20,9 °C 74 % 1015,8 hPa 0,0 mm 6,4 km/h (2 Bft) O-NO 57 ° 0 min 0,000 mm 3,5 UV-I 241 W/m² 16,1 °C 20,9 °C 12,9 km/h (3 Bft)
02.06.2018 14:00 20,8 °C 72 % 1015,8 hPa 0,0 mm 6,2 km/h (2 Bft) O 98 ° 0 min 0,000 mm 3,6 UV-I 253 W/m² 15,6 °C 20,8 °C 12,9 km/h (3 Bft)
02.06.2018 14:01 20,7 °C 69 % 1015,9 hPa 0,0 mm 1,2 km/h (1 Bft) NO 34 ° 0 min 0,432 mm 6,9 UV-I 253 W/m² 14,8 °C 20,7 °C 4,8 km/h (1 Bft)
02.06.2018 14:02 20,6 °C 70 % 1015,9 hPa 0,0 mm 4,2 km/h (1 Bft) O-NO 67 ° 1 min 0,000 mm 6,8 UV-I 689 W/m² 14,9 °C 20,6 °C 6,4 km/h (2 Bft)
02.06.2018 14:03 20,5 °C 72 % 1015,9 hPa 0,0 mm 6,2 km/h (2 Bft) O-SO 118 ° 1 min 0,000 mm 4,0 UV-I 689 W/m² 15,3 °C 20,5 °C 11,3 km/h (2 Bft)
02.06.2018 14:04 20,4 °C 69 % 1015,9 hPa 0,0 mm 0,9 km/h (0 Bft) O-SO 118 ° 0 min 0,000 mm 3,9 UV-I 322 W/m² 14,5 °C 20,4 °C 1,6 km/h (1 Bft)
02.06.2018 14:05 20,3 °C 69 % 1015,9 hPa 0,0 mm 3,8 km/h (1 Bft) O 94 ° 0 min 0,000 mm 5,8 UV-I 322 W/m² 14,4 °C 20,3 °C 9,7 km/h (2 Bft)
02.06.2018 14:06 20,3 °C 71 % 1015,9 hPa 0,0 mm 3,5 km/h (1 Bft) O 83 ° 0 min 0,000 mm 6,8 UV-I 322 W/m² 14,9 °C 20,3 °C 6,4 km/h (2 Bft)
02.06.2018 14:07 20,2 °C 68 % 1015,9 hPa 0,0 mm 1,1 km/h (1 Bft) O 86 ° 0 min 0,000 mm 4,0 UV-I 322 W/m² 14,1 °C 20,2 °C 3,2 km/h (1 Bft)
02.06.2018 14:08 20,2 °C 68 % 1015,9 hPa 0,0 mm 1,0 km/h (0 Bft) O 86 ° 0 min 0,000 mm 4,7 UV-I 468 W/m² 14,1 °C 20,2 °C 3,2 km/h (1 Bft)
02.06.2018 14:09 20,2 °C 71 % 1015,8 hPa 0,0 mm 0,7 km/h (0 Bft) O 86 ° 0 min 0,000 mm 4,6 UV-I 468 W/m² 14,8 °C 20,2 °C 3,2 km/h (1 Bft)
02.06.2018 14:10 20,3 °C 70 % 1015,8 hPa 0,0 mm 3,2 km/h (1 Bft) N-NO 14 ° 0 min 0,000 mm 5,1 UV-I 468 W/m² 14,6 °C 20,3 °C 4,8 km/h (1 Bft)
02.06.2018 14:11 20,4 °C 69 % 1015,8 hPa 0,0 mm 1,7 km/h (1 Bft) N-NO 21 ° 1 min 0,000 mm 4,4 UV-I 758 W/m² 14,5 °C 20,4 °C 6,4 km/h (2 Bft)
02.06.2018 14:12 20,5 °C 67 % 1015,8 hPa 0,0 mm 1,3 km/h (1 Bft) O-SO 117 ° 1 min 0,000 mm 3,4 UV-I 758 W/m² 14,2 °C 20,5 °C 3,2 km/h (1 Bft)
02.06.2018 14:13 20,4 °C 70 % 1015,8 hPa 0,0 mm 1,0 km/h (0 Bft) O-SO 117 ° 0 min 0,000 mm 2,7 UV-I 355 W/m² 14,7 °C 20,4 °C 3,2 km/h (1 Bft)
02.06.2018 14:14 20,4 °C 73 % 1015,8 hPa 0,0 mm 2,6 km/h (1 Bft) O-SO 117 ° 0 min 0,000 mm 2,5 UV-I 306 W/m² 15,4 °C 20,4 °C 4,8 km/h (1 Bft)
02.06.2018 14:15 20,3 °C 70 % 1015,7 hPa 0,0 mm 0,2 km/h (0 Bft) O-SO 117 ° 0 min 0,000 mm 2,3 UV-I 264 W/m² 14,6 °C 20,3 °C 1,6 km/h (1 Bft)
02.06.2018 14:16 20,2 °C 69 % 1015,7 hPa 0,0 mm 0,0 km/h (0 Bft) O-SO 117 ° 0 min 0,000 mm 2,0 UV-I 253 W/m² 14,3 °C 20,2 °C 0,0 km/h (0 Bft)
02.06.2018 14:17 20,2 °C 71 % 1015,7 hPa 0,0 mm 1,7 km/h (1 Bft) O-SO 117 ° 0 min 0,000 mm 2,1 UV-I 253 W/m² 14,8 °C 20,2 °C 4,8 km/h (1 Bft)
02.06.2018 14:18 20,1 °C 73 % 1015,7 hPa 0,0 mm 1,9 km/h (1 Bft) O 85 ° 0 min 0,000 mm 2,0 UV-I 253 W/m² 15,1 °C 20,1 °C 3,2 km/h (1 Bft)
02.06.2018 14:19 20,1 °C 70 % 1015,7 hPa 0,0 mm 0,3 km/h (0 Bft) O 85 ° 0 min 0,000 mm 2,0 UV-I 253 W/m² 14,5 °C 20,1 °C 1,6 km/h (1 Bft)
02.06.2018 14:20 20,1 °C 70 % 1015,7 hPa 0,0 mm 0,0 km/h (0 Bft) O 85 ° 0 min 0,000 mm 2,0 UV-I 264 W/m² 14,5 °C 20,1 °C 0,0 km/h (0 Bft)
02.06.2018 14:21 20,1 °C 70 % 1015,7 hPa 0,0 mm 0,1 km/h (0 Bft) O 85 ° 0 min 0,000 mm 1,9 UV-I 216 W/m² 14,5 °C 20,1 °C 1,6 km/h (1 Bft)
02.06.2018 14:22 20,0 °C 70 % 1015,7 hPa 0,0 mm 2,0 km/h (1 Bft) O 86 ° 0 min 0,000 mm 1,5 UV-I 176 W/m² 14,4 °C 20,0 °C 4,8 km/h (1 Bft)
02.06.2018 14:23 20,0 °C 69 % 1015,6 hPa 0,0 mm 1,2 km/h (1 Bft) O 85 ° 0 min 0,000 mm 1,3 UV-I 151 W/m² 14,1 °C 20,0 °C 3,2 km/h (1 Bft)
02.06.2018 14:24 19,9 °C 70 % 1015,6 hPa 0,0 mm 1,8 km/h (1 Bft) N 9 ° 0 min 0,000 mm 1,2 UV-I 141 W/m² 14,3 °C 19,9 °C 4,8 km/h (1 Bft)
02.06.2018 14:25 20,0 °C 71 % 1015,7 hPa 0,0 mm 3,0 km/h (1 Bft) N-NW 338 ° 0 min 0,000 mm 1,2 UV-I 141 W/m² 14,6 °C 20,0 °C 6,4 km/h (2 Bft)
02.06.2018 14:26 20,0 °C 73 % 1015,7 hPa 0,0 mm 4,0 km/h (1 Bft) O-NO 66 ° 0 min 0,000 mm 1,1 UV-I 139 W/m² 15,0 °C 20,0 °C 8,0 km/h (2 Bft)
02.06.2018 14:27 20,1 °C 69 % 1015,7 hPa 0,0 mm 8,1 km/h (2 Bft) O-NO 69 ° 0 min 0,000 mm 1,0 UV-I 116 W/m² 14,2 °C 20,1 °C 12,9 km/h (3 Bft)
02.06.2018 14:28 20,1 °C 71 % 1015,6 hPa 0,0 mm 4,0 km/h (1 Bft) NO 47 ° 0 min 0,000 mm 0,9 UV-I 109 W/m² 14,7 °C 20,1 °C 6,4 km/h (2 Bft)
02.06.2018 14:29 20,0 °C 71 % 1015,6 hPa 0,0 mm 2,3 km/h (1 Bft) NO 34 ° 0 min 0,000 mm 0,9 UV-I 105 W/m² 14,6 °C 20,0 °C 8,0 km/h (2 Bft)
02.06.2018 14:30 19,9 °C 71 % 1015,7 hPa 0,0 mm 9,9 km/h (2 Bft) N 10 ° 0 min 0,000 mm 0,9 UV-I 102 W/m² 14,5 °C 19,9 °C 14,5 km/h (3 Bft)
02.06.2018 14:31 19,9 °C 71 % 1015,6 hPa 0,0 mm 4,1 km/h (1 Bft) N-NO 26 ° 0 min 0,000 mm 0,9 UV-I 102 W/m² 14,5 °C 19,9 °C 6,4 km/h (2 Bft)
02.06.2018 14:32 19,8 °C 71 % 1015,7 hPa 0,0 mm 6,1 km/h (2 Bft) N 5 ° 0 min 0,000 mm 0,9 UV-I 100 W/m² 14,4 °C 19,8 °C 8,0 km/h (2 Bft)
02.06.2018 14:33 19,7 °C 72 % 1015,7 hPa 0,0 mm 6,8 km/h (2 Bft) N-NO 18 ° 0 min 0,000 mm 1,0 UV-I 100 W/m² 14,5 °C 19,7 °C 11,3 km/h (2 Bft)
02.06.2018 14:34 19,7 °C 71 % 1015,7 hPa 0,0 mm 3,4 km/h (1 Bft) N-NO 18 ° 0 min 0,000 mm 1,0 UV-I 97 W/m² 14,3 °C 19,7 °C 6,4 km/h (2 Bft)
02.06.2018 14:35 19,7 °C 72 % 1015,7 hPa 0,0 mm 4,6 km/h (1 Bft) N-NO 14 ° 0 min 0,000 mm 1,0 UV-I 97 W/m² 14,5 °C 19,7 °C 8,0 km/h (2 Bft)
02.06.2018 14:36 19,6 °C 70 % 1015,7 hPa 0,0 mm 7,3 km/h (2 Bft) N-NW 345 ° 0 min 0,000 mm 1,1 UV-I 95 W/m² 14,0 °C 19,6 °C 11,3 km/h (2 Bft)
02.06.2018 14:37 19,6 °C 70 % 1015,6 hPa 0,0 mm 7,0 km/h (2 Bft) N-NO 21 ° 0 min 0,000 mm 1,1 UV-I 95 W/m² 14,0 °C 19,6 °C 12,9 km/h (3 Bft)
02.06.2018 14:38 19,6 °C 70 % 1015,6 hPa 0,0 mm 4,5 km/h (1 Bft) NO 42 ° 0 min 0,000 mm 1,1 UV-I 95 W/m² 14,0 °C 19,6 °C 6,4 km/h (2 Bft)
02.06.2018 14:39 19,5 °C 72 % 1015,6 hPa 0,0 mm 2,6 km/h (1 Bft) NO 41 ° 0 min 0,000 mm 1,2 UV-I 98 W/m² 14,3 °C 19,5 °C 4,8 km/h (1 Bft)
02.06.2018 14:40 19,5 °C 71 % 1015,6 hPa 0,0 mm 2,6 km/h (1 Bft) N-NO 13 ° 0 min 0,000 mm 1,2 UV-I 100 W/m² 14,1 °C 19,5 °C 6,4 km/h (2 Bft)
02.06.2018 14:41 19,4 °C 71 % 1015,6 hPa 0,0 mm 2,6 km/h (1 Bft) N-NO 13 ° 0 min 0,000 mm 1,2 UV-I 102 W/m² 14,0 °C 19,4 °C 4,8 km/h (1 Bft)
02.06.2018 14:42 19,4 °C 72 % 1015,6 hPa 0,0 mm 3,1 km/h (1 Bft) N-NO 13 ° 0 min 0,000 mm 1,3 UV-I 105 W/m² 14,2 °C 19,4 °C 4,8 km/h (1 Bft)
02.06.2018 14:43 19,4 °C 72 % 1015,6 hPa 0,0 mm 4,0 km/h (1 Bft) N-NO 20 ° 0 min 0,000 mm 1,4 UV-I 113 W/m² 14,2 °C 19,4 °C 6,4 km/h (2 Bft)
02.06.2018 14:44 19,4 °C 72 % 1015,6 hPa 0,0 mm 2,6 km/h (1 Bft) NO 44 ° 0 min 0,000 mm 1,5 UV-I 125 W/m² 14,2 °C 19,4 °C 3,2 km/h (1 Bft)
02.06.2018 14:45 19,3 °C 72 % 1015,6 hPa 0,0 mm 4,9 km/h (1 Bft) NO 38 ° 0 min 0,000 mm 1,5 UV-I 142 W/m² 14,1 °C 19,3 °C 8,0 km/h (2 Bft)
02.06.2018 14:46 19,3 °C 72 % 1015,7 hPa 0,2 mm 2,3 km/h (1 Bft) NO 43 ° 0 min 0,000 mm 1,6 UV-I 141 W/m² 14,1 °C 19,3 °C 4,8 km/h (1 Bft)
02.06.2018 14:47 19,3 °C 72 % 1015,8 hPa 0,0 mm 0,2 km/h (0 Bft) NO 43 ° 0 min 0,000 mm 1,6 UV-I 144 W/m² 14,1 °C 19,3 °C 1,6 km/h (1 Bft)
02.06.2018 14:48 19,3 °C 74 % 1015,7 hPa 0,0 mm 1,9 km/h (1 Bft) NO 37 ° 0 min 0,000 mm 1,7 UV-I 153 W/m² 14,5 °C 19,3 °C 4,8 km/h (1 Bft)
02.06.2018 14:49 19,2 °C 75 % 1015,7 hPa 0,0 mm 3,6 km/h (1 Bft) O 84 ° 0 min 0,000 mm 1,7 UV-I 160 W/m² 14,7 °C 19,2 °C 6,4 km/h (2 Bft)
02.06.2018 14:50 19,1 °C 77 % 1015,7 hPa 0,0 mm 2,5 km/h (1 Bft) O 84 ° 0 min 0,000 mm 1,7 UV-I 162 W/m² 15,0 °C 19,1 °C 3,2 km/h (1 Bft)
02.06.2018 14:51 18,8 °C 79 % 1015,7 hPa 0,0 mm 1,0 km/h (0 Bft) O 84 ° 0 min 0,000 mm 1,8 UV-I 160 W/m² 15,1 °C 18,8 °C 1,6 km/h (1 Bft)
02.06.2018 14:52 18,7 °C 78 % 1015,7 hPa 0,0 mm 2,3 km/h (1 Bft) O 84 ° 0 min 0,000 mm 2,8 UV-I 160 W/m² 14,8 °C 18,7 °C 3,2 km/h (1 Bft)
02.06.2018 14:53 18,5 °C 78 % 1015,7 hPa 0,0 mm 2,7 km/h (1 Bft) O 84 ° 0 min 0,000 mm 1,9 UV-I 290 W/m² 14,6 °C 18,5 °C 4,8 km/h (1 Bft)
02.06.2018 14:54 18,4 °C 79 % 1015,7 hPa 0,0 mm 1,5 km/h (1 Bft) O 84 ° 0 min 0,000 mm 1,8 UV-I 290 W/m² 14,7 °C 18,4 °C 3,2 km/h (1 Bft)
02.06.2018 14:55 18,3 °C 79 % 1015,6 hPa 0,0 mm 4,2 km/h (1 Bft) O 91 ° 0 min 0,000 mm 1,8 UV-I 167 W/m² 14,6 °C 18,3 °C 6,4 km/h (2 Bft)
02.06.2018 14:56 18,2 °C 82 % 1015,7 hPa 0,0 mm 2,8 km/h (1 Bft) O-SO 117 ° 0 min 0,000 mm 1,9 UV-I 199 W/m² 15,1 °C 18,2 °C 4,8 km/h (1 Bft)
02.06.2018 14:57 18,1 °C 81 % 1015,6 hPa 0,0 mm 3,1 km/h (1 Bft) O-SO 117 ° 0 min 0,000 mm 2,6 UV-I 199 W/m² 14,8 °C 18,1 °C 4,8 km/h (1 Bft)
02.06.2018 14:58 17,9 °C 83 % 1015,6 hPa 0,0 mm 2,1 km/h (1 Bft) O-SO 117 ° 0 min 0,000 mm 2,7 UV-I 199 W/m² 15,0 °C 17,9 °C 3,2 km/h (1 Bft)
02.06.2018 14:59 17,9 °C 81 % 1015,6 hPa 0,0 mm 1,9 km/h (1 Bft) O-SO 117 ° 0 min 0,000 mm 4,6 UV-I 199 W/m² 14,6 °C 17,9 °C 3,2 km/h (1 Bft)
02.06.2018 15:00 18,1 °C 84 % 1015,6 hPa 0,0 mm 1,6 km/h (1 Bft) O-SO 117 ° 0 min 0,000 mm 2,8 UV-I 199 W/m² 15,4 °C 18,1 °C 3,2 km/h (1 Bft)
02.06.2018 15:01 18,2 °C 83 % 1015,6 hPa 0,0 mm 0,4 km/h (0 Bft) O-SO 117 ° 0 min 0,178 mm 2,3 UV-I 199 W/m² 15,3 °C 18,2 °C 1,6 km/h (1 Bft)
02.06.2018 15:02 18,3 °C 82 % 1015,6 hPa 0,0 mm 0,7 km/h (0 Bft) O-SO 117 ° 0 min 0,000 mm 2,2 UV-I 216 W/m² 15,2 °C 18,3 °C 1,6 km/h (1 Bft)
02.06.2018 15:03 18,4 °C 83 % 1015,6 hPa 0,0 mm 2,3 km/h (1 Bft) O-SO 117 ° 0 min 0,000 mm 2,0 UV-I 209 W/m² 15,5 °C 18,4 °C 3,2 km/h (1 Bft)
02.06.2018 15:04 18,4 °C 80 % 1015,6 hPa 0,0 mm 2,5 km/h (1 Bft) O-SO 117 ° 0 min 0,000 mm 2,0 UV-I 202 W/m² 14,9 °C 18,4 °C 3,2 km/h (1 Bft)
02.06.2018 15:05 18,4 °C 81 % 1015,6 hPa 0,0 mm 3,3 km/h (1 Bft) O-SO 117 ° 0 min 0,000 mm 1,9 UV-I 193 W/m² 15,1 °C 18,4 °C 4,8 km/h (1 Bft)
02.06.2018 15:06 18,3 °C 81 % 1015,6 hPa 0,0 mm 3,9 km/h (1 Bft) SO 132 ° 0 min 0,000 mm 1,8 UV-I 183 W/m² 15,0 °C 18,3 °C 4,8 km/h (1 Bft)
02.06.2018 15:07 18,4 °C 82 % 1015,6 hPa 0,0 mm 4,3 km/h (1 Bft) SO 133 ° 0 min 0,000 mm 1,8 UV-I 178 W/m² 15,3 °C 18,4 °C 4,8 km/h (1 Bft)
02.06.2018 15:08 18,3 °C 81 % 1015,6 hPa 0,0 mm 3,7 km/h (1 Bft) SO 139 ° 0 min 0,000 mm 1,8 UV-I 172 W/m² 15,0 °C 18,3 °C 6,4 km/h (2 Bft)
02.06.2018 15:09 18,4 °C 83 % 1015,6 hPa 0,0 mm 3,7 km/h (1 Bft) SO 140 ° 0 min 0,000 mm 1,8 UV-I 172 W/m² 15,5 °C 18,4 °C 4,8 km/h (1 Bft)
02.06.2018 15:10 18,3 °C 83 % 1015,6 hPa 0,0 mm 4,8 km/h (1 Bft) S-SO 161 ° 0 min 0,000 mm 1,9 UV-I 185 W/m² 15,4 °C 18,3 °C 8,0 km/h (2 Bft)
02.06.2018 15:11 18,3 °C 84 % 1015,6 hPa 0,0 mm 4,5 km/h (1 Bft) O-SO 116 ° 0 min 0,000 mm 2,0 UV-I 204 W/m² 15,5 °C 18,3 °C 6,4 km/h (2 Bft)
02.06.2018 15:12 18,2 °C 84 % 1015,6 hPa 0,0 mm 1,0 km/h (0 Bft) O-SO 116 ° 0 min 0,000 mm 2,2 UV-I 232 W/m² 15,4 °C 18,2 °C 3,2 km/h (1 Bft)
02.06.2018 15:13 18,3 °C 86 % 1015,6 hPa 0,0 mm 0,1 km/h (0 Bft) O-SO 116 ° 0 min 0,000 mm 2,3 UV-I 257 W/m² 15,9 °C 18,3 °C 1,6 km/h (1 Bft)
02.06.2018 15:14 18,2 °C 86 % 1015,6 hPa 0,0 mm 2,2 km/h (1 Bft) O-SO 116 ° 0 min 0,000 mm 2,3 UV-I 260 W/m² 15,8 °C 18,2 °C 3,2 km/h (1 Bft)
02.06.2018 15:15 18,3 °C 86 % 1015,6 hPa 0,0 mm 2,1 km/h (1 Bft) O 101 ° 0 min 0,000 mm 2,4 UV-I 269 W/m² 15,9 °C 18,3 °C 4,8 km/h (1 Bft)
02.06.2018 15:16 18,2 °C 86 % 1015,6 hPa 0,0 mm 4,0 km/h (1 Bft) O-SO 119 ° 0 min 0,000 mm 2,6 UV-I 304 W/m² 15,8 °C 18,2 °C 8,0 km/h (2 Bft)
02.06.2018 15:17 18,3 °C 85 % 1015,6 hPa 0,0 mm 4,1 km/h (1 Bft) SO 132 ° 0 min 0,000 mm 2,9 UV-I 373 W/m² 15,7 °C 18,3 °C 4,8 km/h (1 Bft)
02.06.2018 15:18 18,3 °C 84 % 1015,6 hPa 0,0 mm 2,5 km/h (1 Bft) S-SO 154 ° 0 min 0,000 mm 3,0 UV-I 348 W/m² 15,5 °C 18,3 °C 4,8 km/h (1 Bft)
02.06.2018 15:19 18,4 °C 84 % 1015,5 hPa 0,0 mm 1,1 km/h (1 Bft) S-SO 154 ° 0 min 0,000 mm 4,4 UV-I 348 W/m² 15,6 °C 18,4 °C 3,2 km/h (1 Bft)
02.06.2018 15:20 18,4 °C 84 % 1015,5 hPa 0,0 mm 1,1 km/h (1 Bft) SO 141 ° 0 min 0,000 mm 5,5 UV-I 348 W/m² 15,6 °C 18,4 °C 3,2 km/h (1 Bft)
02.06.2018 15:21 18,6 °C 83 % 1015,5 hPa 0,0 mm 2,3 km/h (1 Bft) O-SO 117 ° 0 min 0,000 mm 3,2 UV-I 348 W/m² 15,7 °C 18,6 °C 4,8 km/h (1 Bft)
02.06.2018 15:22 18,8 °C 81 % 1015,5 hPa 0,0 mm 0,5 km/h (0 Bft) O-SO 117 ° 0 min 0,000 mm 3,1 UV-I 283 W/m² 15,5 °C 18,8 °C 1,6 km/h (1 Bft)
02.06.2018 15:23 18,9 °C 84 % 1015,5 hPa 0,0 mm 2,4 km/h (1 Bft) O 94 ° 0 min 0,000 mm 3,0 UV-I 287 W/m² 16,1 °C 18,9 °C 4,8 km/h (1 Bft)
02.06.2018 15:24 18,9 °C 80 % 1015,4 hPa 0,0 mm 0,8 km/h (0 Bft) S-SO 149 ° 0 min 0,000 mm 3,1 UV-I 301 W/m² 15,4 °C 18,9 °C 3,2 km/h (1 Bft)
02.06.2018 15:25 18,9 °C 77 % 1015,4 hPa 0,0 mm 1,7 km/h (1 Bft) S-SO 150 ° 0 min 0,000 mm 3,1 UV-I 320 W/m² 14,8 °C 18,9 °C 4,8 km/h (1 Bft)
02.06.2018 15:26 19,0 °C 77 % 1015,4 hPa 0,0 mm 2,0 km/h (1 Bft) S-SO 150 ° 0 min 0,000 mm 3,2 UV-I 332 W/m² 14,9 °C 19,0 °C 3,2 km/h (1 Bft)
02.06.2018 15:27 19,1 °C 79 % 1015,4 hPa 0,0 mm 2,3 km/h (1 Bft) S-SO 148 ° 0 min 0,000 mm 3,4 UV-I 350 W/m² 15,4 °C 19,1 °C 3,2 km/h (1 Bft)
02.06.2018 15:28 19,2 °C 80 % 1015,4 hPa 0,0 mm 2,7 km/h (1 Bft) S-SO 148 ° 0 min 0,000 mm 3,5 UV-I 350 W/m² 15,7 °C 19,2 °C 4,8 km/h (1 Bft)
02.06.2018 15:29 19,2 °C 81 % 1015,4 hPa 0,0 mm 0,0 km/h (0 Bft) S-SO 148 ° 0 min 0,000 mm 4,6 UV-I 350 W/m² 15,9 °C 19,2 °C 0,0 km/h (0 Bft)
02.06.2018 15:30 19,3 °C 79 % 1015,4 hPa 0,0 mm 1,4 km/h (1 Bft) S-SO 148 ° 0 min 0,000 mm 4,9 UV-I 570 W/m² 15,6 °C 19,3 °C 3,2 km/h (1 Bft)
02.06.2018 15:31 19,3 °C 80 % 1015,4 hPa 0,0 mm 2,0 km/h (1 Bft) SO 146 ° 0 min 0,000 mm 3,9 UV-I 564 W/m² 15,8 °C 19,3 °C 4,8 km/h (1 Bft)
02.06.2018 15:32 19,3 °C 79 % 1015,4 hPa 0,0 mm 0,3 km/h (0 Bft) SO 146 ° 0 min 0,000 mm 5,9 UV-I 513 W/m² 15,6 °C 19,3 °C 1,6 km/h (1 Bft)
02.06.2018 15:33 19,4 °C 79 % 1015,4 hPa 0,0 mm 3,2 km/h (1 Bft) O 98 ° 0 min 0,000 mm 5,0 UV-I 513 W/m² 15,7 °C 19,4 °C 4,8 km/h (1 Bft)
02.06.2018 15:34 19,7 °C 79 % 1015,4 hPa 0,0 mm 3,3 km/h (1 Bft) SO 134 ° 0 min 0,000 mm 3,8 UV-I 513 W/m² 16,0 °C 19,7 °C 4,8 km/h (1 Bft)
02.06.2018 15:35 19,8 °C 77 % 1015,4 hPa 0,0 mm 2,4 km/h (1 Bft) SO 124 ° 0 min 0,000 mm 3,2 UV-I 413 W/m² 15,6 °C 19,8 °C 6,4 km/h (2 Bft)
02.06.2018 15:36 19,8 °C 76 % 1015,4 hPa 0,0 mm 3,7 km/h (1 Bft) SO 125 ° 0 min 0,000 mm 2,7 UV-I 332 W/m² 15,4 °C 19,8 °C 6,4 km/h (2 Bft)
02.06.2018 15:37 19,8 °C 77 % 1015,4 hPa 0,0 mm 1,7 km/h (1 Bft) SO 125 ° 0 min 0,000 mm 2,3 UV-I 264 W/m² 15,6 °C 19,8 °C 3,2 km/h (1 Bft)
02.06.2018 15:38 19,8 °C 77 % 1015,4 hPa 0,0 mm 5,0 km/h (1 Bft) SO 126 ° 0 min 0,000 mm 2,0 UV-I 248 W/m² 15,6 °C 19,8 °C 11,3 km/h (2 Bft)
02.06.2018 15:39 19,7 °C 78 % 1015,4 hPa 0,0 mm 3,2 km/h (1 Bft) SO 128 ° 0 min 0,000 mm 1,9 UV-I 239 W/m² 15,8 °C 19,7 °C 4,8 km/h (1 Bft)
02.06.2018 15:40 19,7 °C 78 % 1015,4 hPa 0,0 mm 1,1 km/h (1 Bft) SO 128 ° 0 min 0,000 mm 1,8 UV-I 227 W/m² 15,8 °C 19,7 °C 3,2 km/h (1 Bft)
02.06.2018 15:41 19,7 °C 76 % 1015,4 hPa 0,0 mm 3,9 km/h (1 Bft) S-SO 148 ° 0 min 0,000 mm 1,6 UV-I 204 W/m² 15,3 °C 19,7 °C 9,7 km/h (2 Bft)
02.06.2018 15:42 19,7 °C 76 % 1015,4 hPa 0,0 mm 5,8 km/h (2 Bft) O-SO 122 ° 0 min 0,000 mm 1,4 UV-I 174 W/m² 15,3 °C 19,7 °C 8,0 km/h (2 Bft)
02.06.2018 15:43 19,6 °C 76 % 1015,4 hPa 0,0 mm 1,9 km/h (1 Bft) SO 136 ° 0 min 0,000 mm 1,3 UV-I 151 W/m² 15,2 °C 19,6 °C 6,4 km/h (2 Bft)
02.06.2018 15:44 19,4 °C 78 % 1015,4 hPa 0,0 mm 2,9 km/h (1 Bft) SO 136 ° 0 min 0,000 mm 1,1 UV-I 148 W/m² 15,5 °C 19,4 °C 4,8 km/h (1 Bft)
02.06.2018 15:45 19,3 °C 80 % 1015,4 hPa 0,0 mm 0,2 km/h (0 Bft) SO 136 ° 0 min 0,000 mm 1,1 UV-I 148 W/m² 15,8 °C 19,3 °C 1,6 km/h (1 Bft)
02.06.2018 15:46 19,2 °C 81 % 1015,4 hPa 0,0 mm 0,6 km/h (0 Bft) SO 136 ° 0 min 0,000 mm 1,1 UV-I 155 W/m² 15,9 °C 19,2 °C 3,2 km/h (1 Bft)
02.06.2018 15:47 19,2 °C 79 % 1015,4 hPa 0,0 mm 0,6 km/h (0 Bft) SO 136 ° 0 min 0,000 mm 1,2 UV-I 163 W/m² 15,5 °C 19,2 °C 1,6 km/h (1 Bft)
02.06.2018 15:48 19,2 °C 83 % 1015,5 hPa 0,0 mm 0,0 km/h (0 Bft) SO 136 ° 0 min 0,000 mm 1,1 UV-I 163 W/m² 16,2 °C 19,2 °C 0,0 km/h (0 Bft)
02.06.2018 15:49 19,2 °C 82 % 1015,4 hPa 0,0 mm 0,3 km/h (0 Bft) SO 136 ° 0 min 0,000 mm 1,1 UV-I 160 W/m² 16,0 °C 19,2 °C 1,6 km/h (1 Bft)
02.06.2018 15:50 19,1 °C 81 % 1015,4 hPa 0,0 mm 1,5 km/h (1 Bft) SO 136 ° 0 min 0,000 mm 1,1 UV-I 160 W/m² 15,8 °C 19,1 °C 1,6 km/h (1 Bft)
02.06.2018 15:51 19,0 °C 82 % 1015,4 hPa 0,0 mm 1,0 km/h (0 Bft) SO 136 ° 0 min 0,000 mm 1,0 UV-I 151 W/m² 15,9 °C 19,0 °C 1,6 km/h (1 Bft)
02.06.2018 15:52 18,8 °C 84 % 1015,4 hPa 0,0 mm 0,5 km/h (0 Bft) SO 136 ° 0 min 0,000 mm 1,0 UV-I 149 W/m² 16,0 °C 18,8 °C 1,6 km/h (1 Bft)
02.06.2018 15:53 18,8 °C 81 % 1015,5 hPa 0,0 mm 0,2 km/h (0 Bft) SO 136 ° 0 min 0,000 mm 1,0 UV-I 146 W/m² 15,5 °C 18,8 °C 1,6 km/h (1 Bft)
02.06.2018 15:54 18,8 °C 83 % 1015,5 hPa 0,0 mm 0,4 km/h (0 Bft) SO 136 ° 0 min 0,000 mm 1,0 UV-I 144 W/m² 15,8 °C 18,8 °C 1,6 km/h (1 Bft)
02.06.2018 15:55 18,8 °C 83 % 1015,5 hPa 0,0 mm 0,0 km/h (0 Bft) SO 136 ° 0 min 0,000 mm 1,0 UV-I 137 W/m² 15,8 °C 18,8 °C 0,0 km/h (0 Bft)
02.06.2018 15:56 18,8 °C 84 % 1015,5 hPa 0,0 mm 0,0 km/h (0 Bft) SO 136 ° 0 min 0,000 mm 0,9 UV-I 135 W/m² 16,0 °C 18,8 °C 0,0 km/h (0 Bft)
02.06.2018 15:57 18,8 °C 83 % 1015,4 hPa 0,0 mm 0,0 km/h (0 Bft) SO 136 ° 0 min 0,000 mm 0,9 UV-I 132 W/m² 15,8 °C 18,8 °C 0,0 km/h (0 Bft)
02.06.2018 15:58 18,8 °C 84 % 1015,5 hPa 0,0 mm 0,0 km/h (0 Bft) SO 136 ° 0 min 0,000 mm 0,9 UV-I 132 W/m² 16,0 °C 18,8 °C 0,0 km/h (0 Bft)
02.06.2018 15:59 18,8 °C 84 % 1015,4 hPa 0,0 mm 0,0 km/h (0 Bft) SO 136 ° 0 min 0,000 mm 0,9 UV-I 135 W/m² 16,0 °C 18,8 °C 0,0 km/h (0 Bft)
02.06.2018 16:00 18,8 °C 85 % 1015,4 hPa 0,0 mm 0,0 km/h (0 Bft) SO 136 ° 0 min 0,000 mm 0,9 UV-I 135 W/m² 16,2 °C 18,8 °C 0,0 km/h (0 Bft)
02.06.2018 16:01 18,7 °C 85 % 1015,5 hPa 0,0 mm 0,0 km/h (0 Bft) SO 136 ° 0 min 0,152 mm 0,9 UV-I 134 W/m² 16,1 °C 18,7 °C 0,0 km/h (0 Bft)
02.06.2018 16:02 18,6 °C 85 % 1015,4 hPa 0,0 mm 0,4 km/h (0 Bft) SO 136 ° 0 min 0,000 mm 0,9 UV-I 130 W/m² 16,0 °C 18,6 °C 1,6 km/h (1 Bft)
02.06.2018 16:03 18,5 °C 86 % 1015,4 hPa 0,0 mm 0,3 km/h (0 Bft) SO 136 ° 0 min 0,000 mm 0,9 UV-I 132 W/m² 16,1 °C 18,5 °C 1,6 km/h (1 Bft)
02.06.2018 16:04 18,6 °C 80 % 1015,4 hPa 0,0 mm 0,0 km/h (0 Bft) SO 136 ° 0 min 0,000 mm 0,9 UV-I 132 W/m² 15,1 °C 18,6 °C 0,0 km/h (0 Bft)
02.06.2018 16:05 18,7 °C 81 % 1015,4 hPa 0,0 mm 0,0 km/h (0 Bft) SO 136 ° 0 min 0,000 mm 0,9 UV-I 134 W/m² 15,4 °C 18,7 °C 0,0 km/h (0 Bft)
02.06.2018 16:06 18,7 °C 82 % 1015,5 hPa 0,0 mm 0,0 km/h (0 Bft) SO 136 ° 0 min 0,000 mm 1,0 UV-I 141 W/m² 15,6 °C 18,7 °C 0,0 km/h (0 Bft)
02.06.2018 16:07 18,8 °C 77 % 1015,4 hPa 0,0 mm 0,0 km/h (0 Bft) SO 136 ° 0 min 0,000 mm 1,0 UV-I 146 W/m² 14,7 °C 18,8 °C 0,0 km/h (0 Bft)
02.06.2018 16:08 18,9 °C 76 % 1015,4 hPa 0,0 mm 0,0 km/h (0 Bft) SO 136 ° 0 min 0,000 mm 1,1 UV-I 153 W/m² 14,6 °C 18,9 °C 0,0 km/h (0 Bft)
02.06.2018 16:09 18,9 °C 77 % 1015,4 hPa 0,0 mm 0,0 km/h (0 Bft) SO 136 ° 0 min 0,000 mm 1,1 UV-I 158 W/m² 14,8 °C 18,9 °C 0,0 km/h (0 Bft)
02.06.2018 16:10 18,9 °C 78 % 1015,4 hPa 0,0 mm 0,0 km/h (0 Bft) SO 136 ° 0 min 0,000 mm 1,1 UV-I 158 W/m² 15,0 °C 18,9 °C 0,0 km/h (0 Bft)
02.06.2018 16:11 19,1 °C 81 % 1015,4 hPa 0,0 mm 0,0 km/h (0 Bft) SO 136 ° 0 min 0,000 mm 1,2 UV-I 167 W/m² 15,8 °C 19,1 °C 0,0 km/h (0 Bft)
02.06.2018 16:12 18,9 °C 82 % 1015,5 hPa 0,0 mm 0,0 km/h (0 Bft) SO 136 ° 0 min 0,000 mm 1,3 UV-I 190 W/m² 15,8 °C 18,9 °C 0,0 km/h (0 Bft)
02.06.2018 16:13 18,8 °C 83 % 1015,4 hPa 0,0 mm 1,4 km/h (1 Bft) SO 136 ° 0 min 0,000 mm 1,4 UV-I 200 W/m² 15,8 °C 18,8 °C 3,2 km/h (1 Bft)
02.06.2018 16:14 18,8 °C 85 % 1015,4 hPa 0,0 mm 1,7 km/h (1 Bft) SO 136 ° 0 min 0,000 mm 1,6 UV-I 213 W/m² 16,2 °C 18,8 °C 3,2 km/h (1 Bft)
02.06.2018 16:15 18,8 °C 85 % 1015,4 hPa 0,0 mm 2,3 km/h (1 Bft) SO 136 ° 0 min 0,000 mm 1,7 UV-I 221 W/m² 16,2 °C 18,8 °C 4,8 km/h (1 Bft)
02.06.2018 16:16 18,9 °C 82 % 1015,4 hPa 0,0 mm 0,8 km/h (0 Bft) SO 136 ° 0 min 0,000 mm 1,8 UV-I 230 W/m² 15,8 °C 18,9 °C 3,2 km/h (1 Bft)
02.06.2018 16:17 19,1 °C 81 % 1015,4 hPa 0,0 mm 1,4 km/h (1 Bft) O-SO 103 ° 0 min 0,000 mm 1,9 UV-I 244 W/m² 15,8 °C 19,1 °C 4,8 km/h (1 Bft)
02.06.2018 16:18 19,1 °C 82 % 1015,3 hPa 0,0 mm 2,4 km/h (1 Bft) O 101 ° 0 min 0,000 mm 2,0 UV-I 278 W/m² 16,0 °C 19,1 °C 4,8 km/h (1 Bft)
02.06.2018 16:19 19,2 °C 77 % 1015,4 hPa 0,0 mm 4,6 km/h (1 Bft) O 82 ° 0 min 0,000 mm 2,3 UV-I 315 W/m² 15,1 °C 19,2 °C 8,0 km/h (2 Bft)
02.06.2018 16:20 19,2 °C 77 % 1015,3 hPa 0,0 mm 2,9 km/h (1 Bft) O 82 ° 0 min 0,000 mm 2,6 UV-I 360 W/m² 15,1 °C 19,2 °C 4,8 km/h (1 Bft)
02.06.2018 16:21 19,3 °C 77 % 1015,3 hPa 0,0 mm 2,7 km/h (1 Bft) O-NO 76 ° 0 min 0,000 mm 2,8 UV-I 388 W/m² 15,2 °C 19,3 °C 4,8 km/h (1 Bft)
02.06.2018 16:22 19,4 °C 78 % 1015,3 hPa 0,0 mm 1,5 km/h (1 Bft) O-NO 76 ° 0 min 0,000 mm 3,0 UV-I 399 W/m² 15,5 °C 19,4 °C 4,8 km/h (1 Bft)
02.06.2018 16:23 19,6 °C 74 % 1015,3 hPa 0,0 mm 3,4 km/h (1 Bft) O-NO 58 ° 0 min 0,000 mm 3,0 UV-I 388 W/m² 14,8 °C 19,6 °C 6,4 km/h (2 Bft)
02.06.2018 16:24 19,6 °C 74 % 1015,3 hPa 0,0 mm 3,1 km/h (1 Bft) O-NO 58 ° 0 min 0,000 mm 2,9 UV-I 330 W/m² 14,8 °C 19,6 °C 4,8 km/h (1 Bft)
02.06.2018 16:25 19,5 °C 73 % 1015,3 hPa 0,0 mm 0,1 km/h (0 Bft) O-NO 58 ° 0 min 0,000 mm 2,8 UV-I 315 W/m² 14,5 °C 19,5 °C 1,6 km/h (1 Bft)
02.06.2018 16:26 19,5 °C 74 % 1015,2 hPa 0,0 mm 2,7 km/h (1 Bft) N 355 ° 0 min 0,000 mm 2,8 UV-I 302 W/m² 14,7 °C 19,5 °C 4,8 km/h (1 Bft)
02.06.2018 16:27 19,7 °C 76 % 1015,3 hPa 0,0 mm 4,6 km/h (1 Bft) NO 44 ° 0 min 0,000 mm 2,8 UV-I 306 W/m² 15,3 °C 19,7 °C 8,0 km/h (2 Bft)
02.06.2018 16:28 19,9 °C 78 % 1015,3 hPa 0,0 mm 5,2 km/h (1 Bft) O-NO 65 ° 0 min 0,000 mm 2,8 UV-I 315 W/m² 15,9 °C 19,9 °C 6,4 km/h (2 Bft)
02.06.2018 16:29 19,9 °C 75 % 1015,3 hPa 0,0 mm 5,6 km/h (1 Bft) O-NO 65 ° 0 min 0,000 mm 2,8 UV-I 297 W/m² 15,3 °C 19,9 °C 8,0 km/h (2 Bft)
02.06.2018 16:30 19,9 °C 74 % 1015,3 hPa 0,0 mm 4,4 km/h (1 Bft) NO 37 ° 0 min 0,000 mm 2,6 UV-I 265 W/m² 15,1 °C 19,9 °C 6,4 km/h (2 Bft)
02.06.2018 16:31 19,8 °C 74 % 1015,3 hPa 0,0 mm 5,2 km/h (1 Bft) NO 39 ° 0 min 0,000 mm 2,5 UV-I 250 W/m² 15,0 °C 19,8 °C 8,0 km/h (2 Bft)
02.06.2018 16:32 19,7 °C 72 % 1015,3 hPa 0,0 mm 4,1 km/h (1 Bft) NO 51 ° 0 min 0,000 mm 2,3 UV-I 237 W/m² 14,5 °C 19,7 °C 4,8 km/h (1 Bft)
02.06.2018 16:33 19,6 °C 72 % 1015,3 hPa 0,0 mm 2,3 km/h (1 Bft) O-NO 78 ° 0 min 0,000 mm 2,3 UV-I 230 W/m² 14,4 °C 19,6 °C 4,8 km/h (1 Bft)
02.06.2018 16:34 19,6 °C 71 % 1015,3 hPa 0,0 mm 4,6 km/h (1 Bft) O-NO 57 ° 0 min 0,000 mm 2,3 UV-I 220 W/m² 14,2 °C 19,6 °C 6,4 km/h (2 Bft)
02.06.2018 16:35 19,7 °C 72 % 1015,2 hPa 0,0 mm 4,8 km/h (1 Bft) NO 55 ° 0 min 0,000 mm 2,2 UV-I 209 W/m² 14,5 °C 19,7 °C 9,7 km/h (2 Bft)
02.06.2018 16:36 19,7 °C 71 % 1015,3 hPa 0,0 mm 0,9 km/h (0 Bft) NO 55 ° 0 min 0,000 mm 2,2 UV-I 204 W/m² 14,3 °C 19,7 °C 3,2 km/h (1 Bft)
02.06.2018 16:37 19,7 °C 71 % 1015,3 hPa 0,0 mm 4,3 km/h (1 Bft) NO 53 ° 0 min 0,000 mm 2,2 UV-I 209 W/m² 14,3 °C 19,7 °C 6,4 km/h (2 Bft)
02.06.2018 16:38 19,7 °C 71 % 1015,2 hPa 0,0 mm 3,0 km/h (1 Bft) NO 53 ° 0 min 0,000 mm 2,2 UV-I 218 W/m² 14,3 °C 19,7 °C 4,8 km/h (1 Bft)
02.06.2018 16:39 19,7 °C 72 % 1015,3 hPa 0,0 mm 1,9 km/h (1 Bft) NO 53 ° 0 min 0,000 mm 2,2 UV-I 229 W/m² 14,5 °C 19,7 °C 3,2 km/h (1 Bft)
02.06.2018 16:40 19,8 °C 72 % 1015,3 hPa 0,0 mm 1,8 km/h (1 Bft) NO 53 ° 0 min 0,000 mm 2,3 UV-I 248 W/m² 14,6 °C 19,8 °C 3,2 km/h (1 Bft)
02.06.2018 16:41 19,8 °C 70 % 1015,3 hPa 0,0 mm 4,7 km/h (1 Bft) O 88 ° 0 min 0,000 mm 2,4 UV-I 269 W/m² 14,2 °C 19,8 °C 6,4 km/h (2 Bft)
02.06.2018 16:42 19,8 °C 70 % 1015,4 hPa 0,0 mm 4,9 km/h (1 Bft) O-NO 74 ° 0 min 0,000 mm 2,5 UV-I 287 W/m² 14,2 °C 19,8 °C 6,4 km/h (2 Bft)
02.06.2018 16:43 19,8 °C 70 % 1015,3 hPa 0,0 mm 4,8 km/h (1 Bft) NO 47 ° 0 min 0,000 mm 2,6 UV-I 272 W/m² 14,2 °C 19,8 °C 6,4 km/h (2 Bft)
02.06.2018 16:44 19,8 °C 69 % 1015,2 hPa 0,0 mm 4,4 km/h (1 Bft) O-NO 68 ° 0 min 0,000 mm 2,5 UV-I 255 W/m² 13,9 °C 19,8 °C 6,4 km/h (2 Bft)
02.06.2018 16:45 19,9 °C 71 % 1015,3 hPa 0,0 mm 4,0 km/h (1 Bft) O-NO 71 ° 0 min 0,000 mm 2,4 UV-I 239 W/m² 14,5 °C 19,9 °C 6,4 km/h (2 Bft)
02.06.2018 16:46 20,0 °C 70 % 1015,3 hPa 0,0 mm 4,9 km/h (1 Bft) O 94 ° 0 min 0,000 mm 2,3 UV-I 227 W/m² 14,4 °C 20,0 °C 6,4 km/h (2 Bft)
02.06.2018 16:47 20,0 °C 69 % 1015,3 hPa 0,0 mm 3,3 km/h (1 Bft) O-NO 73 ° 0 min 0,000 mm 2,3 UV-I 213 W/m² 14,1 °C 20,0 °C 4,8 km/h (1 Bft)
02.06.2018 16:48 19,9 °C 71 % 1015,3 hPa 0,0 mm 5,0 km/h (1 Bft) O-NO 57 ° 0 min 0,000 mm 2,2 UV-I 220 W/m² 14,5 °C 19,9 °C 9,7 km/h (2 Bft)
02.06.2018 16:49 19,8 °C 70 % 1015,3 hPa 0,0 mm 5,1 km/h (1 Bft) NO 49 ° 0 min 0,000 mm 2,2 UV-I 227 W/m² 14,2 °C 19,8 °C 6,4 km/h (2 Bft)
02.06.2018 16:50 19,8 °C 69 % 1015,3 hPa 0,0 mm 5,8 km/h (2 Bft) NO 36 ° 0 min 0,000 mm 2,1 UV-I 225 W/m² 13,9 °C 19,8 °C 8,0 km/h (2 Bft)
02.06.2018 16:51 19,8 °C 69 % 1015,2 hPa 0,0 mm 5,7 km/h (1 Bft) N-NO 32 ° 0 min 0,000 mm 2,1 UV-I 221 W/m² 13,9 °C 19,8 °C 9,7 km/h (2 Bft)
02.06.2018 16:52 19,8 °C 70 % 1015,3 hPa 0,0 mm 5,2 km/h (1 Bft) N-NO 32 ° 0 min 0,000 mm 2,0 UV-I 218 W/m² 14,2 °C 19,8 °C 9,7 km/h (2 Bft)
02.06.2018 16:53 19,8 °C 69 % 1015,2 hPa 0,0 mm 5,0 km/h (1 Bft) NO 42 ° 0 min 0,000 mm 1,9 UV-I 214 W/m² 13,9 °C 19,8 °C 8,0 km/h (2 Bft)
02.06.2018 16:54 19,9 °C 71 % 1015,3 hPa 0,0 mm 2,8 km/h (1 Bft) N-NO 31 ° 0 min 0,000 mm 1,9 UV-I 207 W/m² 14,5 °C 19,9 °C 4,8 km/h (1 Bft)
02.06.2018 16:55 19,8 °C 71 % 1015,3 hPa 0,0 mm 1,8 km/h (1 Bft) O-NO 65 ° 0 min 0,000 mm 1,9 UV-I 209 W/m² 14,4 °C 19,8 °C 4,8 km/h (1 Bft)
02.06.2018 16:56 19,8 °C 69 % 1015,1 hPa 0,0 mm 2,0 km/h (1 Bft) O-NO 64 ° 0 min 0,000 mm 2,0 UV-I 223 W/m² 13,9 °C 19,8 °C 3,2 km/h (1 Bft)
02.06.2018 16:57 19,7 °C 70 % 1015,2 hPa 0,0 mm 3,3 km/h (1 Bft) O-NO 64 ° 0 min 0,000 mm 2,0 UV-I 243 W/m² 14,1 °C 19,7 °C 4,8 km/h (1 Bft)
02.06.2018 16:58 19,8 °C 72 % 1015,2 hPa 0,0 mm 3,2 km/h (1 Bft) NO 54 ° 0 min 0,000 mm 2,2 UV-I 255 W/m² 14,6 °C 19,8 °C 4,8 km/h (1 Bft)
02.06.2018 16:59 19,8 °C 72 % 1015,2 hPa 0,0 mm 4,0 km/h (1 Bft) NO 53 ° 0 min 0,000 mm 2,2 UV-I 257 W/m² 14,6 °C 19,8 °C 6,4 km/h (2 Bft)
02.06.2018 17:00 19,9 °C 73 % 1015,2 hPa 0,0 mm 5,7 km/h (1 Bft) O-NO 63 ° 0 min 0,153 mm 2,3 UV-I 253 W/m² 14,9 °C 19,9 °C 9,7 km/h (2 Bft)
02.06.2018 17:01 19,9 °C 71 % 1015,2 hPa 0,0 mm 5,8 km/h (2 Bft) O-NO 57 ° 0 min 0,000 mm 2,3 UV-I 250 W/m² 14,5 °C 19,9 °C 9,7 km/h (2 Bft)
02.06.2018 17:02 19,9 °C 68 % 1015,1 hPa 0,0 mm 7,6 km/h (2 Bft) NO 55 ° 0 min 0,000 mm 2,3 UV-I 239 W/m² 13,8 °C 19,9 °C 9,7 km/h (2 Bft)
02.06.2018 17:03 20,0 °C 70 % 1015,1 hPa 0,0 mm 5,3 km/h (1 Bft) NO 56 ° 0 min 0,000 mm 2,2 UV-I 227 W/m² 14,4 °C 20,0 °C 9,7 km/h (2 Bft)
02.06.2018 17:04 20,1 °C 68 % 1015,2 hPa 0,0 mm 4,7 km/h (1 Bft) NO 48 ° 0 min 0,000 mm 2,2 UV-I 209 W/m² 14,0 °C 20,1 °C 8,0 km/h (2 Bft)
02.06.2018 17:05 20,2 °C 71 % 1015,1 hPa 0,0 mm 6,4 km/h (2 Bft) S-SO 155 ° 0 min 0,000 mm 2,2 UV-I 176 W/m² 14,8 °C 20,2 °C 12,9 km/h (3 Bft)
02.06.2018 17:06 20,2 °C 67 % 1015,1 hPa 0,0 mm 1,1 km/h (1 Bft) O-NO 76 ° 0 min 0,000 mm 2,1 UV-I 176 W/m² 13,9 °C 20,2 °C 3,2 km/h (1 Bft)
02.06.2018 17:07 20,1 °C 68 % 1015,1 hPa 0,0 mm 4,5 km/h (1 Bft) S-SO 161 ° 0 min 0,000 mm 2,1 UV-I 156 W/m² 14,0 °C 20,1 °C 8,0 km/h (2 Bft)
02.06.2018 17:08 20,1 °C 69 % 1015,1 hPa 0,0 mm 2,0 km/h (1 Bft) NO 40 ° 0 min 0,000 mm 2,1 UV-I 149 W/m² 14,2 °C 20,1 °C 4,8 km/h (1 Bft)
02.06.2018 17:09 20,1 °C 70 % 1015,1 hPa 0,0 mm 4,5 km/h (1 Bft) SO 131 ° 0 min 0,000 mm 2,0 UV-I 137 W/m² 14,5 °C 20,1 °C 6,4 km/h (2 Bft)
02.06.2018 17:10 20,0 °C 67 % 1015,1 hPa 0,0 mm 0,8 km/h (0 Bft) O-SO 119 ° 0 min 0,000 mm 2,0 UV-I 128 W/m² 13,7 °C 20,0 °C 3,2 km/h (1 Bft)
02.06.2018 17:11 20,0 °C 69 % 1015,1 hPa 0,0 mm 1,5 km/h (1 Bft) O-NO 76 ° 0 min 0,000 mm 1,9 UV-I 109 W/m² 14,1 °C 20,0 °C 3,2 km/h (1 Bft)
02.06.2018 17:12 20,1 °C 69 % 1015,1 hPa 0,0 mm 0,0 km/h (0 Bft) O-NO 76 ° 0 min 0,000 mm 1,9 UV-I 95 W/m² 14,2 °C 20,1 °C 0,0 km/h (0 Bft)
02.06.2018 17:13 20,1 °C 69 % 1015,1 hPa 0,0 mm 0,4 km/h (0 Bft) O-NO 76 ° 0 min 0,000 mm 1,7 UV-I 77 W/m² 14,2 °C 20,1 °C 1,6 km/h (1 Bft)
02.06.2018 17:14 20,1 °C 70 % 1015,1 hPa 0,0 mm 0,0 km/h (0 Bft) O-NO 76 ° 0 min 0,000 mm 1,6 UV-I 65 W/m² 14,5 °C 20,1 °C 0,0 km/h (0 Bft)
02.06.2018 17:15 19,9 °C 69 % 1015,1 hPa 0,0 mm 1,8 km/h (1 Bft) O-NO 77 ° 0 min 0,000 mm 1,5 UV-I 58 W/m² 14,0 °C 19,9 °C 4,8 km/h (1 Bft)
02.06.2018 17:16 19,8 °C 68 % 1015,1 hPa 0,0 mm 2,4 km/h (1 Bft) O-NO 77 ° 0 min 0,000 mm 0,0 UV-I 54 W/m² 13,7 °C 19,8 °C 4,8 km/h (1 Bft)
02.06.2018 17:17 19,7 °C 67 % 1015,1 hPa 0,0 mm 0,1 km/h (0 Bft) O-NO 77 ° 0 min 0,000 mm 0,0 UV-I 49 W/m² 13,4 °C 19,7 °C 1,6 km/h (1 Bft)
02.06.2018 17:18 19,7 °C 66 % 1015,1 hPa 0,0 mm 0,0 km/h (0 Bft) O-NO 77 ° 0 min 0,000 mm 0,0 UV-I 49 W/m² 13,2 °C 19,7 °C 0,0 km/h (0 Bft)
02.06.2018 17:19 19,4 °C 72 % 1015,1 hPa 0,0 mm 0,5 km/h (0 Bft) O-NO 77 ° 0 min 0,000 mm 0,0 UV-I 51 W/m² 14,2 °C 19,4 °C 1,6 km/h (1 Bft)
02.06.2018 17:20 19,3 °C 74 % 1015,1 hPa 0,0 mm 1,5 km/h (1 Bft) O-NO 77 ° 0 min 0,000 mm 0,0 UV-I 53 W/m² 14,5 °C 19,3 °C 3,2 km/h (1 Bft)
02.06.2018 17:21 19,1 °C 73 % 1015,1 hPa 0,0 mm 2,1 km/h (1 Bft) O-NO 77 ° 0 min 0,000 mm 0,0 UV-I 53 W/m² 14,1 °C 19,1 °C 3,2 km/h (1 Bft)
02.06.2018 17:22 18,9 °C 75 % 1015,0 hPa 0,0 mm 0,4 km/h (0 Bft) O-NO 77 ° 0 min 0,000 mm 0,0 UV-I 54 W/m² 14,4 °C 18,9 °C 1,6 km/h (1 Bft)
02.06.2018 17:23 18,7 °C 73 % 1015,1 hPa 0,0 mm 0,0 km/h (0 Bft) O-NO 77 ° 0 min 0,000 mm 1,2 UV-I 60 W/m² 13,8 °C 18,7 °C 0,0 km/h (0 Bft)
02.06.2018 17:24 18,7 °C 71 % 1015,1 hPa 0,0 mm 0,0 km/h (0 Bft) O-NO 77 ° 0 min 0,000 mm 1,2 UV-I 62 W/m² 13,3 °C 18,7 °C 0,0 km/h (0 Bft)
02.06.2018 17:25 18,6 °C 75 % 1015,0 hPa 0,0 mm 0,0 km/h (0 Bft) O-NO 77 ° 0 min 0,000 mm 1,2 UV-I 62 W/m² 14,1 °C 18,6 °C 0,0 km/h (0 Bft)
02.06.2018 17:26 18,4 °C 76 % 1015,1 hPa 0,0 mm 0,0 km/h (0 Bft) O-NO 77 ° 0 min 0,000 mm 1,2 UV-I 62 W/m² 14,1 °C 18,4 °C 0,0 km/h (0 Bft)
02.06.2018 17:27 18,4 °C 76 % 1015,1 hPa 0,0 mm 0,0 km/h (0 Bft) O-NO 77 ° 0 min 0,000 mm 1,2 UV-I 63 W/m² 14,1 °C 18,4 °C 0,0 km/h (0 Bft)
02.06.2018 17:28 18,3 °C 74 % 1015,1 hPa 0,0 mm 0,0 km/h (0 Bft) O-NO 77 ° 0 min 0,000 mm 1,2 UV-I 63 W/m² 13,6 °C 18,3 °C 0,0 km/h (0 Bft)
02.06.2018 17:29 18,3 °C 74 % 1015,1 hPa 0,0 mm 1,2 km/h (1 Bft) O 80 ° 0 min 0,000 mm 1,2 UV-I 67 W/m² 13,6 °C 18,3 °C 3,2 km/h (1 Bft)
02.06.2018 17:30 18,3 °C 75 % 1015,1 hPa 0,0 mm 0,7 km/h (0 Bft) O 80 ° 0 min 0,000 mm 1,1 UV-I 70 W/m² 13,8 °C 18,3 °C 3,2 km/h (1 Bft)
02.06.2018 17:31 18,2 °C 77 % 1015,1 hPa 0,0 mm 0,1 km/h (0 Bft) O 80 ° 0 min 0,000 mm 1,1 UV-I 74 W/m² 14,1 °C 18,2 °C 1,6 km/h (1 Bft)
02.06.2018 17:32 18,2 °C 78 % 1015,1 hPa 0,0 mm 0,2 km/h (0 Bft) O 80 ° 0 min 0,000 mm 1,1 UV-I 77 W/m² 14,3 °C 18,2 °C 1,6 km/h (1 Bft)
02.06.2018 17:33 18,1 °C 77 % 1015,1 hPa 0,0 mm 0,0 km/h (0 Bft) O 80 ° 0 min 0,000 mm 1,2 UV-I 83 W/m² 14,0 °C 18,1 °C 0,0 km/h (0 Bft)
02.06.2018 17:34 18,1 °C 78 % 1015,0 hPa 0,0 mm 0,6 km/h (0 Bft) O 80 ° 0 min 0,000 mm 1,2 UV-I 90 W/m² 14,2 °C 18,1 °C 1,6 km/h (1 Bft)
02.06.2018 17:35 18,0 °C 76 % 1015,0 hPa 0,0 mm 0,1 km/h (0 Bft) O 80 ° 0 min 0,000 mm 1,2 UV-I 91 W/m² 13,7 °C 18,0 °C 1,6 km/h (1 Bft)
02.06.2018 17:36 18,0 °C 78 % 1015,0 hPa 0,0 mm 0,0 km/h (0 Bft) O 80 ° 0 min 0,000 mm 1,2 UV-I 95 W/m² 14,1 °C 18,0 °C 0,0 km/h (0 Bft)
02.06.2018 17:37 18,1 °C 76 % 1015,0 hPa 0,0 mm 0,0 km/h (0 Bft) O 80 ° 0 min 0,000 mm 1,2 UV-I 98 W/m² 13,8 °C 18,1 °C 0,0 km/h (0 Bft)
02.06.2018 17:38 18,1 °C 81 % 1015,0 hPa 0,0 mm 0,0 km/h (0 Bft) O 80 ° 0 min 0,000 mm 1,2 UV-I 102 W/m² 14,8 °C 18,1 °C 0,0 km/h (0 Bft)
02.06.2018 17:39 18,1 °C 81 % 1015,0 hPa 0,0 mm 0,0 km/h (0 Bft) O 80 ° 0 min 0,000 mm 1,2 UV-I 105 W/m² 14,8 °C 18,1 °C 0,0 km/h (0 Bft)
02.06.2018 17:40 18,1 °C 80 % 1015,1 hPa 0,0 mm 0,5 km/h (0 Bft) O 80 ° 0 min 0,000 mm 1,2 UV-I 113 W/m² 14,6 °C 18,1 °C 1,6 km/h (1 Bft)
02.06.2018 17:41 18,1 °C 81 % 1015,1 hPa 0,0 mm 0,0 km/h (0 Bft) O 80 ° 0 min 0,000 mm 1,2 UV-I 116 W/m² 14,8 °C 18,1 °C 0,0 km/h (0 Bft)
02.06.2018 17:42 18,2 °C 80 % 1015,1 hPa 0,0 mm 0,0 km/h (0 Bft) O 80 ° 0 min 0,000 mm 1,2 UV-I 118 W/m² 14,7 °C 18,2 °C 0,0 km/h (0 Bft)
02.06.2018 17:43 18,3 °C 79 % 1015,1 hPa 0,0 mm 0,0 km/h (0 Bft) O 80 ° 0 min 0,000 mm 1,2 UV-I 121 W/m² 14,6 °C 18,3 °C 0,0 km/h (0 Bft)
02.06.2018 17:44 18,3 °C 82 % 1015,1 hPa 0,0 mm 0,0 km/h (0 Bft) O 80 ° 0 min 0,000 mm 1,2 UV-I 125 W/m² 15,2 °C 18,3 °C 0,0 km/h (0 Bft)
02.06.2018 17:45 18,3 °C 80 % 1015,1 hPa 0,0 mm 0,0 km/h (0 Bft) O 80 ° 0 min 0,000 mm 1,2 UV-I 127 W/m² 14,8 °C 18,3 °C 0,0 km/h (0 Bft)
02.06.2018 17:46 18,4 °C 82 % 1015,1 hPa 0,0 mm 0,0 km/h (0 Bft) O 80 ° 0 min 0,000 mm 1,2 UV-I 132 W/m² 15,3 °C 18,4 °C 0,0 km/h (0 Bft)
02.06.2018 17:47 18,3 °C 81 % 1015,0 hPa 0,0 mm 0,0 km/h (0 Bft) O 80 ° 0 min 0,000 mm 1,2 UV-I 134 W/m² 15,0 °C 18,3 °C 0,0 km/h (0 Bft)
02.06.2018 17:48 18,3 °C 80 % 1015,0 hPa 0,0 mm 0,0 km/h (0 Bft) O 80 ° 0 min 0,000 mm 1,2 UV-I 134 W/m² 14,8 °C 18,3 °C 0,0 km/h (0 Bft)
02.06.2018 17:49 18,4 °C 80 % 1015,0 hPa 0,0 mm 0,0 km/h (0 Bft) O 80 ° 0 min 0,000 mm 1,2 UV-I 134 W/m² 14,9 °C 18,4 °C 0,0 km/h (0 Bft)
02.06.2018 17:50 18,4 °C 82 % 1015,0 hPa 0,0 mm 0,0 km/h (0 Bft) O 80 ° 0 min 0,000 mm 1,2 UV-I 135 W/m² 15,3 °C 18,4 °C 0,0 km/h (0 Bft)
02.06.2018 17:51 18,4 °C 83 % 1015,0 hPa 0,0 mm 0,0 km/h (0 Bft) O 80 ° 0 min 0,000 mm 1,2 UV-I 137 W/m² 15,5 °C 18,4 °C 0,0 km/h (0 Bft)
02.06.2018 17:52 18,5 °C 81 % 1015,1 hPa 0,0 mm 0,0 km/h (0 Bft) O 80 ° 0 min 0,000 mm 1,1 UV-I 134 W/m² 15,2 °C 18,5 °C 0,0 km/h (0 Bft)
02.06.2018 17:53 18,6 °C 80 % 1015,1 hPa 0,0 mm 0,0 km/h (0 Bft) O 80 ° 0 min 0,000 mm 1,1 UV-I 134 W/m² 15,1 °C 18,6 °C 0,0 km/h (0 Bft)
02.06.2018 17:54 18,7 °C 81 % 1015,1 hPa 0,0 mm 0,2 km/h (0 Bft) O 80 ° 0 min 0,000 mm 1,1 UV-I 137 W/m² 15,4 °C 18,7 °C 1,6 km/h (1 Bft)
02.06.2018 17:55 18,8 °C 79 % 1015,1 hPa 0,0 mm 0,0 km/h (0 Bft) O 80 ° 0 min 0,000 mm 1,1 UV-I 137 W/m² 15,1 °C 18,8 °C 0,0 km/h (0 Bft)
02.06.2018 17:56 18,9 °C 78 % 1015,0 hPa 0,0 mm 0,0 km/h (0 Bft) O 80 ° 0 min 0,000 mm 1,1 UV-I 142 W/m² 15,0 °C 18,9 °C 0,0 km/h (0 Bft)
02.06.2018 17:57 19,1 °C 78 % 1015,1 hPa 0,0 mm 0,0 km/h (0 Bft) O 80 ° 0 min 0,000 mm 1,1 UV-I 148 W/m² 15,2 °C 19,1 °C 0,0 km/h (0 Bft)
02.06.2018 17:58 19,1 °C 77 % 1015,0 hPa 0,0 mm 0,0 km/h (0 Bft) O 80 ° 0 min 0,000 mm 1,2 UV-I 156 W/m² 15,0 °C 19,1 °C 0,0 km/h (0 Bft)
02.06.2018 17:59 19,2 °C 78 % 1015,1 hPa 0,0 mm 0,0 km/h (0 Bft) O 80 ° 0 min 0,000 mm 1,2 UV-I 162 W/m² 15,3 °C 19,2 °C 0,0 km/h (0 Bft)
02.06.2018 18:00 19,2 °C 79 % 1015,0 hPa 0,0 mm 0,0 km/h (0 Bft) O 80 ° 0 min 0,000 mm 1,2 UV-I 169 W/m² 15,5 °C 19,2 °C 0,0 km/h (0 Bft)
02.06.2018 18:01 19,2 °C 77 % 1015,1 hPa 0,0 mm 0,0 km/h (0 Bft) O 80 ° 0 min 0,076 mm 1,3 UV-I 174 W/m² 15,1 °C 19,2 °C 0,0 km/h (0 Bft)
02.06.2018 18:02 19,3 °C 76 % 1015,0 hPa 0,0 mm 0,0 km/h (0 Bft) O 80 ° 0 min 0,000 mm 1,3 UV-I 179 W/m² 15,0 °C 19,3 °C 0,0 km/h (0 Bft)
02.06.2018 18:03 19,4 °C 73 % 1015,0 hPa 0,0 mm 0,0 km/h (0 Bft) O 80 ° 0 min 0,000 mm 1,3 UV-I 181 W/m² 14,4 °C 19,4 °C 0,0 km/h (0 Bft)
02.06.2018 18:04 19,5 °C 73 % 1015,1 hPa 0,0 mm 0,0 km/h (0 Bft) O 80 ° 0 min 0,000 mm 1,3 UV-I 179 W/m² 14,5 °C 19,5 °C 0,0 km/h (0 Bft)
02.06.2018 18:05 19,7 °C 73 % 1015,0 hPa 0,0 mm 0,0 km/h (0 Bft) O 80 ° 0 min 0,000 mm 1,3 UV-I 186 W/m² 14,7 °C 19,7 °C 0,0 km/h (0 Bft)
02.06.2018 18:06 19,8 °C 76 % 1015,0 hPa 0,0 mm 0,2 km/h (0 Bft) O 80 ° 0 min 0,000 mm 1,3 UV-I 190 W/m² 15,4 °C 19,8 °C 1,6 km/h (1 Bft)
02.06.2018 18:07 19,8 °C 77 % 1015,0 hPa 0,0 mm 0,0 km/h (0 Bft) O 80 ° 0 min 0,000 mm 1,3 UV-I 192 W/m² 15,6 °C 19,8 °C 0,0 km/h (0 Bft)
02.06.2018 18:08 19,9 °C 74 % 1015,0 hPa 0,0 mm 0,0 km/h (0 Bft) O 80 ° 0 min 0,000 mm 1,3 UV-I 197 W/m² 15,1 °C 19,9 °C 0,0 km/h (0 Bft)
02.06.2018 18:09 19,9 °C 73 % 1015,0 hPa 0,0 mm 0,0 km/h (0 Bft) O 80 ° 0 min 0,000 mm 1,4 UV-I 213 W/m² 14,9 °C 19,9 °C 0,0 km/h (0 Bft)
02.06.2018 18:10 20,0 °C 73 % 1015,0 hPa 0,0 mm 0,0 km/h (0 Bft) O 80 ° 0 min 0,000 mm 1,4 UV-I 243 W/m² 15,0 °C 20,0 °C 0,0 km/h (0 Bft)
02.06.2018 18:11 20,2 °C 75 % 1015,1 hPa 0,0 mm 0,4 km/h (0 Bft) O 80 ° 0 min 0,000 mm 1,6 UV-I 264 W/m² 15,6 °C 20,2 °C 3,2 km/h (1 Bft)
02.06.2018 18:12 20,3 °C 75 % 1015,0 hPa 0,0 mm 0,2 km/h (0 Bft) O 80 ° 0 min 0,000 mm 1,7 UV-I 279 W/m² 15,7 °C 20,3 °C 1,6 km/h (1 Bft)
02.06.2018 18:13 20,4 °C 73 % 1015,0 hPa 0,0 mm 0,5 km/h (0 Bft) O 80 ° 0 min 0,000 mm 1,7 UV-I 287 W/m² 15,4 °C 20,4 °C 1,6 km/h (1 Bft)
02.06.2018 18:14 20,6 °C 74 % 1015,0 hPa 0,0 mm 2,5 km/h (1 Bft) NW 310 ° 0 min 0,000 mm 1,7 UV-I 287 W/m² 15,8 °C 20,6 °C 4,8 km/h (1 Bft)
02.06.2018 18:15 20,7 °C 73 % 1015,0 hPa 0,0 mm 3,2 km/h (1 Bft) W-NW 284 ° 0 min 0,000 mm 1,7 UV-I 267 W/m² 15,7 °C 20,7 °C 4,8 km/h (1 Bft)
02.06.2018 18:16 20,7 °C 69 % 1015,0 hPa 0,0 mm 5,4 km/h (1 Bft) W-SW 251 ° 0 min 0,000 mm 1,7 UV-I 257 W/m² 14,8 °C 20,7 °C 9,7 km/h (2 Bft)
02.06.2018 18:17 20,6 °C 69 % 1015,0 hPa 0,0 mm 4,0 km/h (1 Bft) SW 227 ° 0 min 0,000 mm 1,7 UV-I 248 W/m² 14,7 °C 20,6 °C 6,4 km/h (2 Bft)
02.06.2018 18:18 20,6 °C 70 % 1015,0 hPa 0,0 mm 5,6 km/h (1 Bft) W-SW 248 ° 0 min 0,000 mm 1,7 UV-I 241 W/m² 14,9 °C 20,6 °C 8,0 km/h (2 Bft)
02.06.2018 18:19 20,5 °C 71 % 1015,0 hPa 0,0 mm 3,7 km/h (1 Bft) W 280 ° 0 min 0,000 mm 1,7 UV-I 236 W/m² 15,1 °C 20,5 °C 6,4 km/h (2 Bft)
02.06.2018 18:20 20,5 °C 70 % 1015,0 hPa 0,0 mm 4,8 km/h (1 Bft) SW 219 ° 0 min 0,000 mm 1,7 UV-I 232 W/m² 14,8 °C 20,5 °C 6,4 km/h (2 Bft)
02.06.2018 18:21 20,4 °C 70 % 1015,0 hPa 0,0 mm 4,8 km/h (1 Bft) W-SW 251 ° 0 min 0,000 mm 1,7 UV-I 223 W/m² 14,7 °C 20,4 °C 6,4 km/h (2 Bft)
02.06.2018 18:22 20,4 °C 70 % 1015,0 hPa 0,0 mm 2,7 km/h (1 Bft) W-SW 251 ° 0 min 0,000 mm 1,6 UV-I 218 W/m² 14,7 °C 20,4 °C 4,8 km/h (1 Bft)
02.06.2018 18:23 20,4 °C 71 % 1015,0 hPa 0,0 mm 3,1 km/h (1 Bft) SW 232 ° 0 min 0,000 mm 1,6 UV-I 213 W/m² 15,0 °C 20,4 °C 6,4 km/h (2 Bft)
02.06.2018 18:24 20,3 °C 71 % 1015,0 hPa 0,0 mm 2,0 km/h (1 Bft) SW 234 ° 0 min 0,000 mm 1,6 UV-I 207 W/m² 14,9 °C 20,3 °C 3,2 km/h (1 Bft)
02.06.2018 18:25 20,3 °C 70 % 1015,0 hPa 0,0 mm 0,8 km/h (0 Bft) SW 234 ° 0 min 0,000 mm 1,6 UV-I 202 W/m² 14,6 °C 20,3 °C 3,2 km/h (1 Bft)
02.06.2018 18:26 20,4 °C 71 % 1015,0 hPa 0,0 mm 2,1 km/h (1 Bft) SW 234 ° 0 min 0,000 mm 1,6 UV-I 197 W/m² 15,0 °C 20,4 °C 4,8 km/h (1 Bft)
02.06.2018 18:27 20,4 °C 71 % 1014,9 hPa 0,0 mm 0,7 km/h (0 Bft) N 10 ° 0 min 0,000 mm 1,6 UV-I 186 W/m² 15,0 °C 20,4 °C 4,8 km/h (1 Bft)
02.06.2018 18:28 20,5 °C 72 % 1014,9 hPa 0,0 mm 3,8 km/h (1 Bft) NO 51 ° 0 min 0,000 mm 1,6 UV-I 213 W/m² 15,3 °C 20,5 °C 6,4 km/h (2 Bft)
02.06.2018 18:29 20,6 °C 68 % 1014,9 hPa 0,0 mm 5,7 km/h (1 Bft) O-NO 78 ° 0 min 0,000 mm 1,6 UV-I 285 W/m² 14,5 °C 20,6 °C 8,0 km/h (2 Bft)
02.06.2018 18:30 20,6 °C 68 % 1014,9 hPa 0,0 mm 4,3 km/h (1 Bft) SO 131 ° 0 min 0,000 mm 1,6 UV-I 281 W/m² 14,5 °C 20,6 °C 6,4 km/h (2 Bft)
02.06.2018 18:31 20,6 °C 67 % 1014,9 hPa 0,0 mm 5,0 km/h (1 Bft) S-SO 161 ° 0 min 0,000 mm 1,7 UV-I 269 W/m² 14,3 °C 20,6 °C 8,0 km/h (2 Bft)
02.06.2018 18:32 20,5 °C 66 % 1014,9 hPa 0,0 mm 0,8 km/h (0 Bft) S-SO 157 ° 0 min 0,000 mm 1,7 UV-I 297 W/m² 13,9 °C 20,5 °C 3,2 km/h (1 Bft)
02.06.2018 18:33 20,4 °C 68 % 1014,9 hPa 0,0 mm 0,2 km/h (0 Bft) NO 39 ° 0 min 0,000 mm 1,6 UV-I 373 W/m² 14,3 °C 20,4 °C 1,6 km/h (1 Bft)
02.06.2018 18:34 20,4 °C 67 % 1014,9 hPa 0,0 mm 2,2 km/h (1 Bft) O-NO 63 ° 0 min 0,000 mm 1,5 UV-I 315 W/m² 14,1 °C 20,4 °C 3,2 km/h (1 Bft)
02.06.2018 18:35 20,4 °C 67 % 1014,9 hPa 0,0 mm 4,1 km/h (1 Bft) O 84 ° 0 min 0,000 mm 1,5 UV-I 243 W/m² 14,1 °C 20,4 °C 6,4 km/h (2 Bft)
02.06.2018 18:36 20,4 °C 67 % 1014,9 hPa 0,0 mm 3,3 km/h (1 Bft) O-SO 111 ° 0 min 0,000 mm 1,4 UV-I 172 W/m² 14,1 °C 20,4 °C 4,8 km/h (1 Bft)
02.06.2018 18:37 20,4 °C 66 % 1015,0 hPa 0,0 mm 2,5 km/h (1 Bft) S-SO 157 ° 0 min 0,000 mm 1,3 UV-I 151 W/m² 13,8 °C 20,4 °C 4,8 km/h (1 Bft)
02.06.2018 18:38 20,4 °C 66 % 1015,0 hPa 0,0 mm 0,9 km/h (0 Bft) SO 138 ° 0 min 0,000 mm 1,3 UV-I 116 W/m² 13,8 °C 20,4 °C 3,2 km/h (1 Bft)
02.06.2018 18:39 20,4 °C 68 % 1015,0 hPa 0,0 mm 0,4 km/h (0 Bft) SO 138 ° 0 min 0,000 mm 1,3 UV-I 125 W/m² 14,3 °C 20,4 °C 1,6 km/h (1 Bft)
02.06.2018 18:40 20,3 °C 69 % 1015,0 hPa 0,0 mm 2,8 km/h (1 Bft) SO 143 ° 0 min 0,000 mm 1,2 UV-I 151 W/m² 14,4 °C 20,3 °C 4,8 km/h (1 Bft)
02.06.2018 18:41 20,3 °C 67 % 1015,0 hPa 0,0 mm 3,2 km/h (1 Bft) O-NO 57 ° 0 min 0,000 mm 1,3 UV-I 178 W/m² 14,0 °C 20,3 °C 4,8 km/h (1 Bft)
02.06.2018 18:42 20,3 °C 67 % 1015,1 hPa 0,0 mm 1,0 km/h (0 Bft) O-SO 107 ° 0 min 0,000 mm 1,3 UV-I 176 W/m² 14,0 °C 20,3 °C 3,2 km/h (1 Bft)
02.06.2018 18:43 20,3 °C 69 % 1015,0 hPa 0,0 mm 0,0 km/h (0 Bft) O-SO 107 ° 0 min 0,000 mm 1,2 UV-I 151 W/m² 14,4 °C 20,3 °C 0,0 km/h (0 Bft)
02.06.2018 18:44 20,4 °C 70 % 1015,0 hPa 0,0 mm 0,3 km/h (0 Bft) O-SO 107 ° 0 min 0,000 mm 1,2 UV-I 142 W/m² 14,7 °C 20,4 °C 1,6 km/h (1 Bft)
02.06.2018 18:45 20,3 °C 71 % 1015,0 hPa 0,0 mm 0,7 km/h (0 Bft) O-SO 106 ° 0 min 0,000 mm 1,2 UV-I 171 W/m² 14,9 °C 20,3 °C 1,6 km/h (1 Bft)
02.06.2018 18:46 20,3 °C 71 % 1015,0 hPa 0,0 mm 1,0 km/h (0 Bft) O-SO 106 ° 0 min 0,000 mm 1,1 UV-I 116 W/m² 14,9 °C 20,3 °C 1,6 km/h (1 Bft)
02.06.2018 18:47 20,1 °C 71 % 1015,1 hPa 0,0 mm 1,9 km/h (1 Bft) O-NO 78 ° 0 min 0,000 mm 1,0 UV-I 113 W/m² 14,7 °C 20,1 °C 4,8 km/h (1 Bft)
02.06.2018 18:48 20,1 °C 72 % 1015,0 hPa 0,0 mm 3,8 km/h (1 Bft) O-NO 77 ° 0 min 0,000 mm 1,0 UV-I 114 W/m² 14,9 °C 20,1 °C 4,8 km/h (1 Bft)
02.06.2018 18:49 20,0 °C 73 % 1015,1 hPa 0,0 mm 2,8 km/h (1 Bft) O-NO 77 ° 0 min 0,000 mm 1,1 UV-I 149 W/m² 15,0 °C 20,0 °C 3,2 km/h (1 Bft)
02.06.2018 18:50 19,9 °C 74 % 1015,1 hPa 0,0 mm 0,9 km/h (0 Bft) O-NO 77 ° 0 min 0,000 mm 1,1 UV-I 144 W/m² 15,1 °C 19,9 °C 3,2 km/h (1 Bft)
02.06.2018 18:51 19,9 °C 72 % 1015,1 hPa 0,0 mm 0,0 km/h (0 Bft) O-NO 77 ° 0 min 0,000 mm 1,0 UV-I 149 W/m² 14,7 °C 19,9 °C 0,0 km/h (0 Bft)
02.06.2018 18:52 20,0 °C 71 % 1015,1 hPa 0,0 mm 4,2 km/h (1 Bft) SO 144 ° 0 min 0,000 mm 1,0 UV-I 139 W/m² 14,6 °C 20,0 °C 4,8 km/h (1 Bft)
02.06.2018 18:53 20,1 °C 70 % 1015,1 hPa 0,0 mm 6,3 km/h (2 Bft) SO 140 ° 0 min 0,000 mm 1,0 UV-I 160 W/m² 14,5 °C 20,1 °C 8,0 km/h (2 Bft)
02.06.2018 18:54 20,1 °C 71 % 1015,1 hPa 0,0 mm 1,4 km/h (1 Bft) SO 140 ° 0 min 0,000 mm 1,1 UV-I 227 W/m² 14,7 °C 20,1 °C 3,2 km/h (1 Bft)
02.06.2018 18:55 20,1 °C 69 % 1015,0 hPa 0,0 mm 2,9 km/h (1 Bft) S 178 ° 0 min 0,000 mm 1,0 UV-I 225 W/m² 14,2 °C 20,1 °C 4,8 km/h (1 Bft)
02.06.2018 18:56 20,1 °C 69 % 1015,0 hPa 0,0 mm 1,1 km/h (1 Bft) S 178 ° 0 min 0,000 mm 0,9 UV-I 113 W/m² 14,2 °C 20,1 °C 3,2 km/h (1 Bft)
02.06.2018 18:57 20,1 °C 69 % 1015,0 hPa 0,0 mm 1,2 km/h (1 Bft) S-SO 157 ° 0 min 0,000 mm 0,9 UV-I 105 W/m² 14,2 °C 20,1 °C 1,6 km/h (1 Bft)
02.06.2018 18:58 20,1 °C 70 % 1015,1 hPa 0,0 mm 4,0 km/h (1 Bft) O-SO 117 ° 0 min 0,000 mm 0,9 UV-I 93 W/m² 14,5 °C 20,1 °C 4,8 km/h (1 Bft)
02.06.2018 18:59 19,9 °C 70 % 1015,0 hPa 0,0 mm 1,9 km/h (1 Bft) O-SO 117 ° 0 min 0,000 mm 0,8 UV-I 81 W/m² 14,3 °C 19,9 °C 4,8 km/h (1 Bft)
02.06.2018 19:00 19,9 °C 71 % 1015,0 hPa 0,0 mm 0,0 km/h (0 Bft) O-SO 117 ° 0 min 0,000 mm 0,8 UV-I 69 W/m² 14,5 °C 19,9 °C 0,0 km/h (0 Bft)
02.06.2018 19:01 19,8 °C 73 % 1015,0 hPa 0,0 mm 0,0 km/h (0 Bft) O-SO 117 ° 0 min 0,127 mm 0,8 UV-I 63 W/m² 14,8 °C 19,8 °C 0,0 km/h (0 Bft)
02.06.2018 19:02 19,8 °C 73 % 1014,9 hPa 0,0 mm 0,0 km/h (0 Bft) O-SO 117 ° 0 min 0,000 mm 0,8 UV-I 63 W/m² 14,8 °C 19,8 °C 0,0 km/h (0 Bft)
02.06.2018 19:03 19,7 °C 74 % 1014,9 hPa 0,0 mm 0,0 km/h (0 Bft) O-SO 117 ° 0 min 0,000 mm 0,7 UV-I 67 W/m² 14,9 °C 19,7 °C 0,0 km/h (0 Bft)
02.06.2018 19:04 19,6 °C 76 % 1014,9 hPa 0,0 mm 0,0 km/h (0 Bft) O-SO 117 ° 0 min 0,000 mm 0,7 UV-I 69 W/m² 15,2 °C 19,6 °C 0,0 km/h (0 Bft)
02.06.2018 19:05 19,4 °C 76 % 1015,0 hPa 0,0 mm 0,0 km/h (0 Bft) O-SO 117 ° 0 min 0,000 mm 0,7 UV-I 72 W/m² 15,1 °C 19,4 °C 0,0 km/h (0 Bft)
02.06.2018 19:06 19,3 °C 76 % 1015,0 hPa 0,0 mm 0,0 km/h (0 Bft) O-SO 117 ° 0 min 0,000 mm 0,7 UV-I 76 W/m² 15,0 °C 19,3 °C 0,0 km/h (0 Bft)
02.06.2018 19:07 19,2 °C 78 % 1015,0 hPa 0,0 mm 0,0 km/h (0 Bft) O-SO 117 ° 0 min 0,000 mm 0,7 UV-I 93 W/m² 15,3 °C 19,2 °C 0,0 km/h (0 Bft)
02.06.2018 19:08 19,2 °C 78 % 1015,0 hPa 0,0 mm 0,0 km/h (0 Bft) O-SO 117 ° 0 min 0,000 mm 0,7 UV-I 118 W/m² 15,3 °C 19,2 °C 0,0 km/h (0 Bft)
02.06.2018 19:09 19,1 °C 77 % 1015,0 hPa 0,0 mm 0,0 km/h (0 Bft) O-SO 117 ° 0 min 0,000 mm 0,8 UV-I 144 W/m² 15,0 °C 19,1 °C 0,0 km/h (0 Bft)
02.06.2018 19:10 19,2 °C 78 % 1015,0 hPa 0,0 mm 0,3 km/h (0 Bft) O-SO 117 ° 0 min 0,000 mm 0,8 UV-I 176 W/m² 15,3 °C 19,2 °C 1,6 km/h (1 Bft)
02.06.2018 19:11 19,2 °C 78 % 1014,9 hPa 0,0 mm 0,3 km/h (0 Bft) O-SO 117 ° 0 min 0,000 mm 0,8 UV-I 206 W/m² 15,3 °C 19,2 °C 1,6 km/h (1 Bft)
02.06.2018 19:12 19,3 °C 75 % 1015,0 hPa 0,0 mm 0,0 km/h (0 Bft) O-SO 117 ° 0 min 0,000 mm 0,8 UV-I 253 W/m² 14,8 °C 19,3 °C 0,0 km/h (0 Bft)
02.06.2018 19:13 19,5 °C 76 % 1015,0 hPa 0,0 mm 0,0 km/h (0 Bft) O-SO 117 ° 0 min 0,000 mm 0,8 UV-I 248 W/m² 15,2 °C 19,5 °C 0,0 km/h (0 Bft)
02.06.2018 19:14 19,5 °C 77 % 1015,0 hPa 0,0 mm 0,0 km/h (0 Bft) O-SO 117 ° 0 min 0,000 mm 0,9 UV-I 281 W/m² 15,4 °C 19,5 °C 0,0 km/h (0 Bft)
02.06.2018 19:15 19,6 °C 76 % 1015,0 hPa 0,0 mm 0,0 km/h (0 Bft) O-SO 117 ° 0 min 0,000 mm 0,9 UV-I 281 W/m² 15,2 °C 19,6 °C 0,0 km/h (0 Bft)
02.06.2018 19:16 19,6 °C 76 % 1015,0 hPa 0,0 mm 0,0 km/h (0 Bft) O-SO 117 ° 0 min 0,000 mm 0,9 UV-I 278 W/m² 15,2 °C 19,6 °C 0,0 km/h (0 Bft)
02.06.2018 19:17 19,7 °C 76 % 1015,0 hPa 0,0 mm 0,0 km/h (0 Bft) O-SO 117 ° 0 min 0,000 mm 0,9 UV-I 272 W/m² 15,3 °C 19,7 °C 0,0 km/h (0 Bft)
02.06.2018 19:18 19,8 °C 74 % 1015,0 hPa 0,0 mm 0,1 km/h (0 Bft) O-SO 118 ° 0 min 0,000 mm 0,9 UV-I 269 W/m² 15,0 °C 19,8 °C 1,6 km/h (1 Bft)
02.06.2018 19:19 20,0 °C 75 % 1015,0 hPa 0,0 mm 0,0 km/h (0 Bft) O-SO 118 ° 0 min 0,000 mm 0,8 UV-I 257 W/m² 15,4 °C 20,0 °C 0,0 km/h (0 Bft)
02.06.2018 19:20 20,1 °C 74 % 1015,0 hPa 0,0 mm 0,0 km/h (0 Bft) O-SO 118 ° 0 min 0,000 mm 0,8 UV-I 213 W/m² 15,3 °C 20,1 °C 0,0 km/h (0 Bft)
02.06.2018 19:21 20,1 °C 73 % 1015,0 hPa 0,0 mm 1,9 km/h (1 Bft) O-SO 117 ° 0 min 0,000 mm 0,7 UV-I 213 W/m² 15,1 °C 20,1 °C 3,2 km/h (1 Bft)
02.06.2018 19:22 20,2 °C 73 % 1015,0 hPa 0,0 mm 1,2 km/h (1 Bft) O-SO 117 ° 0 min 0,000 mm 0,7 UV-I 116 W/m² 15,2 °C 20,2 °C 3,2 km/h (1 Bft)
02.06.2018 19:23 20,2 °C 75 % 1015,0 hPa 0,0 mm 1,8 km/h (1 Bft) O 87 ° 0 min 0,000 mm 0,7 UV-I 209 W/m² 15,6 °C 20,2 °C 3,2 km/h (1 Bft)
02.06.2018 19:24 20,1 °C 76 % 1014,9 hPa 0,0 mm 2,1 km/h (1 Bft) O 88 ° 0 min 0,000 mm 0,7 UV-I 204 W/m² 15,7 °C 20,1 °C 4,8 km/h (1 Bft)
02.06.2018 19:25 19,9 °C 75 % 1015,0 hPa 0,0 mm 0,0 km/h (0 Bft) O 88 ° 0 min 0,000 mm 0,7 UV-I 195 W/m² 15,3 °C 19,9 °C 0,0 km/h (0 Bft)
02.06.2018 19:26 19,9 °C 76 % 1015,0 hPa 0,0 mm 0,7 km/h (0 Bft) O 88 ° 0 min 0,000 mm 0,7 UV-I 185 W/m² 15,5 °C 19,9 °C 1,6 km/h (1 Bft)
02.06.2018 19:27 19,9 °C 75 % 1015,0 hPa 0,0 mm 0,1 km/h (0 Bft) O 88 ° 0 min 0,000 mm 0,7 UV-I 181 W/m² 15,3 °C 19,9 °C 1,6 km/h (1 Bft)
02.06.2018 19:28 19,9 °C 74 % 1015,0 hPa 0,0 mm 0,2 km/h (0 Bft) O 88 ° 0 min 0,000 mm 0,7 UV-I 174 W/m² 15,1 °C 19,9 °C 1,6 km/h (1 Bft)
02.06.2018 19:29 19,9 °C 74 % 1015,0 hPa 0,0 mm 0,0 km/h (0 Bft) O 88 ° 0 min 0,000 mm 0,6 UV-I 83 W/m² 15,1 °C 19,9 °C 0,0 km/h (0 Bft)
02.06.2018 19:30 19,9 °C 74 % 1015,1 hPa 0,0 mm 0,2 km/h (0 Bft) O 88 ° 0 min 0,000 mm 0,6 UV-I 83 W/m² 15,1 °C 19,9 °C 1,6 km/h (1 Bft)
02.06.2018 19:31 19,8 °C 74 % 1015,1 hPa 0,0 mm 0,3 km/h (0 Bft) O 88 ° 0 min 0,000 mm 0,6 UV-I 167 W/m² 15,0 °C 19,8 °C 1,6 km/h (1 Bft)
02.06.2018 19:32 19,8 °C 74 % 1015,0 hPa 0,0 mm 0,6 km/h (0 Bft) O 88 ° 0 min 0,000 mm 0,6 UV-I 163 W/m² 15,0 °C 19,8 °C 1,6 km/h (1 Bft)
02.06.2018 19:33 19,7 °C 74 % 1015,1 hPa 0,0 mm 1,5 km/h (1 Bft) O 88 ° 0 min 0,000 mm 0,6 UV-I 158 W/m² 14,9 °C 19,7 °C 3,2 km/h (1 Bft)
02.06.2018 19:34 19,6 °C 76 % 1015,0 hPa 0,0 mm 0,0 km/h (0 Bft) O 88 ° 0 min 0,000 mm 0,6 UV-I 156 W/m² 15,2 °C 19,6 °C 0,0 km/h (0 Bft)
02.06.2018 19:35 19,6 °C 75 % 1015,1 hPa 0,0 mm 0,7 km/h (0 Bft) O 88 ° 0 min 0,000 mm 0,6 UV-I 153 W/m² 15,0 °C 19,6 °C 1,6 km/h (1 Bft)
02.06.2018 19:36 19,6 °C 75 % 1015,1 hPa 0,0 mm 0,1 km/h (0 Bft) O 88 ° 0 min 0,000 mm 0,6 UV-I 151 W/m² 15,0 °C 19,6 °C 1,6 km/h (1 Bft)
02.06.2018 19:37 19,5 °C 76 % 1015,2 hPa 0,0 mm 0,0 km/h (0 Bft) O 88 ° 0 min 0,000 mm 0,6 UV-I 149 W/m² 15,2 °C 19,5 °C 0,0 km/h (0 Bft)
02.06.2018 19:38 19,5 °C 75 % 1015,2 hPa 0,0 mm 0,5 km/h (0 Bft) O 88 ° 0 min 0,000 mm 0,6 UV-I 146 W/m² 14,9 °C 19,5 °C 1,6 km/h (1 Bft)
02.06.2018 19:39 19,4 °C 76 % 1015,2 hPa 0,0 mm 0,0 km/h (0 Bft) O 88 ° 0 min 0,000 mm 0,6 UV-I 144 W/m² 15,1 °C 19,4 °C 0,0 km/h (0 Bft)
02.06.2018 19:40 19,5 °C 75 % 1015,2 hPa 0,0 mm 0,0 km/h (0 Bft) O 88 ° 0 min 0,000 mm 0,6 UV-I 141 W/m² 14,9 °C 19,5 °C 0,0 km/h (0 Bft)
02.06.2018 19:41 19,4 °C 75 % 1015,2 hPa 0,0 mm 0,0 km/h (0 Bft) O 88 ° 0 min 0,000 mm 0,5 UV-I 137 W/m² 14,8 °C 19,4 °C 0,0 km/h (0 Bft)
02.06.2018 19:42 19,4 °C 75 % 1015,2 hPa 0,0 mm 0,0 km/h (0 Bft) O 88 ° 0 min 0,000 mm 0,5 UV-I 120 W/m² 14,8 °C 19,4 °C 0,0 km/h (0 Bft)
02.06.2018 19:43 19,3 °C 76 % 1015,2 hPa 0,0 mm 0,0 km/h (0 Bft) O 88 ° 0 min 0,000 mm 0,5 UV-I 56 W/m² 15,0 °C 19,3 °C 0,0 km/h (0 Bft)
02.06.2018 19:44 19,3 °C 76 % 1015,2 hPa 0,0 mm 0,0 km/h (0 Bft) O 88 ° 0 min 0,000 mm 0,0 UV-I 53 W/m² 15,0 °C 19,3 °C 0,0 km/h (0 Bft)
02.06.2018 19:45 19,3 °C 75 % 1015,2 hPa 0,0 mm 0,0 km/h (0 Bft) O 88 ° 0 min 0,000 mm 0,5 UV-I 56 W/m² 14,8 °C 19,3 °C 0,0 km/h (0 Bft)
02.06.2018 19:46 19,3 °C 75 % 1015,3 hPa 0,0 mm 0,0 km/h (0 Bft) O 88 ° 0 min 0,000 mm 0,5 UV-I 56 W/m² 14,8 °C 19,3 °C 0,0 km/h (0 Bft)
02.06.2018 19:47 19,3 °C 76 % 1015,3 hPa 0,0 mm 0,0 km/h (0 Bft) O 88 ° 0 min 0,000 mm 0,0 UV-I 54 W/m² 15,0 °C 19,3 °C 0,0 km/h (0 Bft)
02.06.2018 19:48 19,3 °C 77 % 1015,3 hPa 0,0 mm 0,0 km/h (0 Bft) O 88 ° 0 min 0,000 mm 0,0 UV-I 51 W/m² 15,2 °C 19,3 °C 0,0 km/h (0 Bft)
02.06.2018 19:49 19,2 °C 77 % 1015,3 hPa 0,0 mm 0,0 km/h (0 Bft) O 88 ° 0 min 0,000 mm 0,5 UV-I 116 W/m² 15,1 °C 19,2 °C 0,0 km/h (0 Bft)
02.06.2018 19:50 19,2 °C 77 % 1015,3 hPa 0,0 mm 0,0 km/h (0 Bft) O 88 ° 0 min 0,000 mm 0,5 UV-I 116 W/m² 15,1 °C 19,2 °C 0,0 km/h (0 Bft)
02.06.2018 19:51 19,1 °C 78 % 1015,3 hPa 0,0 mm 0,0 km/h (0 Bft) O 88 ° 0 min 0,000 mm 0,0 UV-I 113 W/m² 15,2 °C 19,1 °C 0,0 km/h (0 Bft)
02.06.2018 19:52 18,9 °C 79 % 1015,3 hPa 0,0 mm 0,0 km/h (0 Bft) O 88 ° 0 min 0,000 mm 0,0 UV-I 109 W/m² 15,2 °C 18,9 °C 0,0 km/h (0 Bft)
02.06.2018 19:53 18,8 °C 78 % 1015,3 hPa 0,0 mm 0,0 km/h (0 Bft) O 88 ° 0 min 0,000 mm 0,0 UV-I 105 W/m² 14,9 °C 18,8 °C 0,0 km/h (0 Bft)
02.06.2018 19:54 18,7 °C 79 % 1015,3 hPa 0,0 mm 0,0 km/h (0 Bft) O 88 ° 0 min 0,000 mm 0,0 UV-I 104 W/m² 15,0 °C 18,7 °C 0,0 km/h (0 Bft)
02.06.2018 19:55 18,7 °C 79 % 1015,2 hPa 0,0 mm 0,0 km/h (0 Bft) O 88 ° 0 min 0,000 mm 0,0 UV-I 98 W/m² 15,0 °C 18,7 °C 0,0 km/h (0 Bft)
02.06.2018 19:56 18,7 °C 79 % 1015,3 hPa 0,0 mm 0,0 km/h (0 Bft) O 88 ° 0 min 0,000 mm 0,0 UV-I 97 W/m² 15,0 °C 18,7 °C 0,0 km/h (0 Bft)
02.06.2018 19:57 18,8 °C 78 % 1015,3 hPa 0,0 mm 0,0 km/h (0 Bft) O 88 ° 0 min 0,000 mm 0,0 UV-I 93 W/m² 14,9 °C 18,8 °C 0,0 km/h (0 Bft)
02.06.2018 19:58 18,7 °C 78 % 1015,3 hPa 0,0 mm 0,0 km/h (0 Bft) O 88 ° 0 min 0,000 mm 0,0 UV-I 91 W/m² 14,8 °C 18,7 °C 0,0 km/h (0 Bft)
02.06.2018 19:59 18,7 °C 78 % 1015,3 hPa 0,0 mm 0,0 km/h (0 Bft) O 88 ° 0 min 0,000 mm 0,0 UV-I 90 W/m² 14,8 °C 18,7 °C 0,0 km/h (0 Bft)
02.06.2018 20:00 18,7 °C 78 % 1015,3 hPa 0,0 mm 0,0 km/h (0 Bft) O 88 ° 0 min 0,000 mm 0,0 UV-I 88 W/m² 14,8 °C 18,7 °C 0,0 km/h (0 Bft)
02.06.2018 20:01 18,7 °C 79 % 1015,3 hPa 0,0 mm 0,0 km/h (0 Bft) O 88 ° 0 min 0,076 mm 0,0 UV-I 83 W/m² 15,0 °C 18,7 °C 0,0 km/h (0 Bft)
02.06.2018 20:02 18,7 °C 78 % 1015,3 hPa 0,0 mm 0,0 km/h (0 Bft) O 88 ° 0 min 0,000 mm 0,0 UV-I 79 W/m² 14,8 °C 18,7 °C 0,0 km/h (0 Bft)
02.06.2018 20:03 18,7 °C 78 % 1015,2 hPa 0,0 mm 0,0 km/h (0 Bft) O 88 ° 0 min 0,000 mm 0,0 UV-I 77 W/m² 14,8 °C 18,7 °C 0,0 km/h (0 Bft)
02.06.2018 20:04 18,7 °C 78 % 1015,2 hPa 0,0 mm 0,0 km/h (0 Bft) O 88 ° 0 min 0,000 mm 0,0 UV-I 74 W/m² 14,8 °C 18,7 °C 0,0 km/h (0 Bft)
02.06.2018 20:05 18,8 °C 78 % 1015,2 hPa 0,0 mm 0,0 km/h (0 Bft) O 88 ° 0 min 0,000 mm 0,0 UV-I 72 W/m² 14,9 °C 18,8 °C 0,0 km/h (0 Bft)
02.06.2018 20:06 18,8 °C 77 % 1015,1 hPa 0,0 mm 0,0 km/h (0 Bft) O 88 ° 0 min 0,000 mm 0,0 UV-I 70 W/m² 14,7 °C 18,8 °C 0,0 km/h (0 Bft)
02.06.2018 20:07 18,8 °C 77 % 1015,1 hPa 0,0 mm 0,0 km/h (0 Bft) O 88 ° 0 min 0,000 mm 0,0 UV-I 65 W/m² 14,7 °C 18,8 °C 0,0 km/h (0 Bft)
02.06.2018 20:08 18,8 °C 78 % 1015,2 hPa 0,0 mm 0,0 km/h (0 Bft) O 88 ° 0 min 0,000 mm 0,0 UV-I 65 W/m² 14,9 °C 18,8 °C 0,0 km/h (0 Bft)
02.06.2018 20:09 18,8 °C 77 % 1015,2 hPa 0,0 mm 0,0 km/h (0 Bft) O 88 ° 0 min 0,000 mm 0,0 UV-I 63 W/m² 14,7 °C 18,8 °C 0,0 km/h (0 Bft)
02.06.2018 20:10 18,8 °C 77 % 1015,2 hPa 0,0 mm 0,0 km/h (0 Bft) O 88 ° 0 min 0,000 mm 0,0 UV-I 62 W/m² 14,7 °C 18,8 °C 0,0 km/h (0 Bft)
02.06.2018 20:11 18,8 °C 78 % 1015,2 hPa 0,0 mm 0,0 km/h (0 Bft) O 88 ° 0 min 0,000 mm 0,0 UV-I 60 W/m² 14,9 °C 18,8 °C 0,0 km/h (0 Bft)
02.06.2018 20:12 18,8 °C 78 % 1015,2 hPa 0,0 mm 0,0 km/h (0 Bft) O 88 ° 0 min 0,000 mm 0,0 UV-I 56 W/m² 14,9 °C 18,8 °C 0,0 km/h (0 Bft)
02.06.2018 20:13 18,7 °C 78 % 1015,2 hPa 0,0 mm 0,0 km/h (0 Bft) O 88 ° 0 min 0,000 mm 0,0 UV-I 56 W/m² 14,8 °C 18,7 °C 0,0 km/h (0 Bft)
02.06.2018 20:14 18,7 °C 78 % 1015,3 hPa 0,0 mm 0,0 km/h (0 Bft) O 88 ° 0 min 0,000 mm 0,0 UV-I 54 W/m² 14,8 °C 18,7 °C 0,0 km/h (0 Bft)
02.06.2018 20:15 18,6 °C 78 % 1015,2 hPa 0,0 mm 0,0 km/h (0 Bft) O 88 ° 0 min 0,000 mm 0,0 UV-I 51 W/m² 14,7 °C 18,6 °C 0,0 km/h (0 Bft)
02.06.2018 20:16 18,5 °C 78 % 1015,2 hPa 0,0 mm 0,0 km/h (0 Bft) O 88 ° 0 min 0,000 mm 0,0 UV-I 51 W/m² 14,6 °C 18,5 °C 0,0 km/h (0 Bft)
02.06.2018 20:17 18,5 °C 78 % 1015,2 hPa 0,0 mm 0,0 km/h (0 Bft) O 88 ° 0 min 0,000 mm 0,0 UV-I 49 W/m² 14,6 °C 18,5 °C 0,0 km/h (0 Bft)
02.06.2018 20:18 18,4 °C 78 % 1015,2 hPa 0,0 mm 0,0 km/h (0 Bft) O 88 ° 0 min 0,000 mm 0,0 UV-I 46 W/m² 14,5 °C 18,4 °C 0,0 km/h (0 Bft)
02.06.2018 20:19 18,4 °C 78 % 1015,2 hPa 0,0 mm 0,0 km/h (0 Bft) O 88 ° 0 min 0,000 mm 0,0 UV-I 44 W/m² 14,5 °C 18,4 °C 0,0 km/h (0 Bft)
02.06.2018 20:20 18,4 °C 78 % 1015,3 hPa 0,0 mm 0,0 km/h (0 Bft) O 88 ° 0 min 0,000 mm 0,0 UV-I 42 W/m² 14,5 °C 18,4 °C 0,0 km/h (0 Bft)
02.06.2018 20:21 18,3 °C 79 % 1015,2 hPa 0,0 mm 0,0 km/h (0 Bft) O 88 ° 0 min 0,000 mm 0,0 UV-I 40 W/m² 14,6 °C 18,3 °C 0,0 km/h (0 Bft)
02.06.2018 20:22 18,3 °C 80 % 1015,2 hPa 0,0 mm 0,0 km/h (0 Bft) O 88 ° 0 min 0,000 mm 0,0 UV-I 39 W/m² 14,8 °C 18,3 °C 0,0 km/h (0 Bft)
02.06.2018 20:23 18,2 °C 80 % 1015,2 hPa 0,0 mm 0,0 km/h (0 Bft) O 88 ° 0 min 0,000 mm 0,0 UV-I 39 W/m² 14,7 °C 18,2 °C 0,0 km/h (0 Bft)
02.06.2018 20:24 18,1 °C 80 % 1015,1 hPa 0,0 mm 0,0 km/h (0 Bft) O 88 ° 0 min 0,000 mm 0,0 UV-I 35 W/m² 14,6 °C 18,1 °C 0,0 km/h (0 Bft)
02.06.2018 20:25 18,1 °C 81 % 1015,2 hPa 0,0 mm 0,0 km/h (0 Bft) O 88 ° 0 min 0,000 mm 0,0 UV-I 33 W/m² 14,8 °C 18,1 °C 0,0 km/h (0 Bft)
02.06.2018 20:26 18,1 °C 80 % 1015,2 hPa 0,0 mm 0,0 km/h (0 Bft) O 88 ° 0 min 0,000 mm 0,0 UV-I 30 W/m² 14,6 °C 18,1 °C 0,0 km/h (0 Bft)
02.06.2018 20:27 18,0 °C 80 % 1015,2 hPa 0,0 mm 0,0 km/h (0 Bft) O 88 ° 0 min 0,000 mm 0,0 UV-I 19 W/m² 14,5 °C 18,0 °C 0,0 km/h (0 Bft)
02.06.2018 20:28 17,9 °C 81 % 1015,2 hPa 0,0 mm 0,0 km/h (0 Bft) O 88 ° 0 min 0,000 mm 0,0 UV-I 16 W/m² 14,6 °C 17,9 °C 0,0 km/h (0 Bft)
02.06.2018 20:29 17,9 °C 82 % 1015,2 hPa 0,0 mm 0,0 km/h (0 Bft) O 88 ° 0 min 0,000 mm 0,0 UV-I 16 W/m² 14,8 °C 17,9 °C 0,0 km/h (0 Bft)
02.06.2018 20:30 17,8 °C 81 % 1015,2 hPa 0,0 mm 0,0 km/h (0 Bft) O 88 ° 0 min 0,000 mm 0,0 UV-I 14 W/m² 14,5 °C 17,8 °C 0,0 km/h (0 Bft)
02.06.2018 20:31 17,7 °C 81 % 1015,1 hPa 0,0 mm 0,0 km/h (0 Bft) O 88 ° 0 min 0,000 mm 0,0 UV-I 14 W/m² 14,4 °C 17,7 °C 0,0 km/h (0 Bft)
02.06.2018 20:32 17,7 °C 81 % 1015,1 hPa 0,0 mm 0,0 km/h (0 Bft) O 88 ° 0 min 0,000 mm 0,0 UV-I 14 W/m² 14,4 °C 17,7 °C 0,0 km/h (0 Bft)
02.06.2018 20:33 17,6 °C 82 % 1015,2 hPa 0,0 mm 0,0 km/h (0 Bft) O 88 ° 0 min 0,000 mm 0,0 UV-I 14 W/m² 14,5 °C 17,6 °C 0,0 km/h (0 Bft)
02.06.2018 20:34 17,4 °C 83 % 1015,1 hPa 0,0 mm 0,0 km/h (0 Bft) O 88 ° 0 min 0,000 mm 0,0 UV-I 12 W/m² 14,5 °C 17,4 °C 0,0 km/h (0 Bft)
02.06.2018 20:35 17,3 °C 83 % 1015,2 hPa 0,0 mm 0,0 km/h (0 Bft) O 88 ° 0 min 0,000 mm 0,0 UV-I 12 W/m² 14,4 °C 17,3 °C 0,0 km/h (0 Bft)
02.06.2018 20:36 17,2 °C 83 % 1015,1 hPa 0,0 mm 0,0 km/h (0 Bft) O 88 ° 0 min 0,000 mm 0,0 UV-I 12 W/m² 14,3 °C 17,2 °C 0,0 km/h (0 Bft)
02.06.2018 20:37 17,1 °C 84 % 1015,1 hPa 0,0 mm 0,0 km/h (0 Bft) O 88 ° 0 min 0,000 mm 0,0 UV-I 12 W/m² 14,4 °C 17,1 °C 0,0 km/h (0 Bft)
02.06.2018 20:38 17,0 °C 84 % 1015,1 hPa 0,0 mm 0,0 km/h (0 Bft) O 88 ° 0 min 0,000 mm 0,0 UV-I 12 W/m² 14,3 °C 17,0 °C 0,0 km/h (0 Bft)
02.06.2018 20:39 16,9 °C 84 % 1015,1 hPa 0,0 mm 0,0 km/h (0 Bft) O 88 ° 0 min 0,000 mm 0,0 UV-I 11 W/m² 14,2 °C 16,9 °C 0,0 km/h (0 Bft)
02.06.2018 20:40 16,9 °C 84 % 1015,1 hPa 0,0 mm 0,0 km/h (0 Bft) O 88 ° 0 min 0,000 mm 0,0 UV-I 11 W/m² 14,2 °C 16,9 °C 0,0 km/h (0 Bft)
02.06.2018 20:41 16,8 °C 85 % 1015,1 hPa 0,0 mm 0,0 km/h (0 Bft) O 88 ° 0 min 0,000 mm 0,0 UV-I 11 W/m² 14,3 °C 16,8 °C 0,0 km/h (0 Bft)
02.06.2018 20:42 16,8 °C 85 % 1015,1 hPa 0,0 mm 0,0 km/h (0 Bft) O 88 ° 0 min 0,000 mm 0,0 UV-I 11 W/m² 14,3 °C 16,8 °C 0,0 km/h (0 Bft)
02.06.2018 20:43 16,8 °C 85 % 1015,1 hPa 0,0 mm 0,0 km/h (0 Bft) O 88 ° 0 min 0,000 mm 0,0 UV-I 9 W/m² 14,3 °C 16,8 °C 0,0 km/h (0 Bft)
02.06.2018 20:44 16,8 °C 85 % 1015,1 hPa 0,0 mm 0,0 km/h (0 Bft) O 88 ° 0 min 0,000 mm 0,0 UV-I 9 W/m² 14,3 °C 16,8 °C 0,0 km/h (0 Bft)
02.06.2018 20:45 16,8 °C 85 % 1015,1 hPa 0,0 mm 0,0 km/h (0 Bft) O 88 ° 0 min 0,000 mm 0,0 UV-I 9 W/m² 14,3 °C 16,8 °C 0,0 km/h (0 Bft)
02.06.2018 20:46 16,7 °C 86 % 1015,1 hPa 0,0 mm 0,0 km/h (0 Bft) O 88 ° 0 min 0,000 mm 0,0 UV-I 9 W/m² 14,3 °C 16,7 °C 0,0 km/h (0 Bft)
02.06.2018 20:47 16,7 °C 86 % 1015,1 hPa 0,0 mm 0,1 km/h (0 Bft) O 88 ° 0 min 0,000 mm 0,0 UV-I 9 W/m² 14,3 °C 16,7 °C 1,6 km/h (1 Bft)
02.06.2018 20:48 16,7 °C 86 % 1015,1 hPa 0,0 mm 0,0 km/h (0 Bft) O 88 ° 0 min 0,000 mm 0,0 UV-I 9 W/m² 14,3 °C 16,7 °C 0,0 km/h (0 Bft)
02.06.2018 20:49 16,8 °C 86 % 1015,1 hPa 0,0 mm 0,0 km/h (0 Bft) O 88 ° 0 min 0,000 mm 0,0 UV-I 7 W/m² 14,4 °C 16,8 °C 0,0 km/h (0 Bft)
02.06.2018 20:50 16,8 °C 86 % 1015,1 hPa 0,0 mm 0,1 km/h (0 Bft) O 88 ° 0 min 0,000 mm 0,0 UV-I 7 W/m² 14,4 °C 16,8 °C 1,6 km/h (1 Bft)
02.06.2018 20:51 16,8 °C 86 % 1015,1 hPa 0,0 mm 0,7 km/h (0 Bft) O 88 ° 0 min 0,000 mm 0,0 UV-I 7 W/m² 14,4 °C 16,8 °C 1,6 km/h (1 Bft)
02.06.2018 20:52 16,8 °C 85 % 1015,1 hPa 0,0 mm 1,7 km/h (1 Bft) O 88 ° 0 min 0,000 mm 0,0 UV-I 7 W/m² 14,3 °C 16,8 °C 3,2 km/h (1 Bft)
02.06.2018 20:53 16,7 °C 85 % 1015,1 hPa 0,0 mm 0,0 km/h (0 Bft) O 88 ° 0 min 0,000 mm 0,0 UV-I 7 W/m² 14,2 °C 16,7 °C 0,0 km/h (0 Bft)
02.06.2018 20:54 16,7 °C 86 % 1015,2 hPa 0,0 mm 0,0 km/h (0 Bft) O 88 ° 0 min 0,000 mm 0,0 UV-I 7 W/m² 14,3 °C 16,7 °C 0,0 km/h (0 Bft)
02.06.2018 20:55 16,6 °C 86 % 1015,2 hPa 0,0 mm 0,0 km/h (0 Bft) O 88 ° 0 min 0,000 mm 0,0 UV-I 7 W/m² 14,2 °C 16,6 °C 0,0 km/h (0 Bft)
02.06.2018 20:56 16,6 °C 86 % 1015,2 hPa 0,0 mm 0,0 km/h (0 Bft) NO 42 ° 0 min 0,000 mm 0,0 UV-I 5 W/m² 14,2 °C 16,6 °C 0,0 km/h (0 Bft)
02.06.2018 20:57 16,6 °C 86 % 1015,2 hPa 0,0 mm 0,0 km/h (0 Bft) NO 42 ° 0 min 0,000 mm 0,0 UV-I 5 W/m² 14,2 °C 16,6 °C 0,0 km/h (0 Bft)
02.06.2018 20:58 16,6 °C 86 % 1015,2 hPa 0,0 mm 0,0 km/h (0 Bft) SW 228 ° 0 min 0,000 mm 0,0 UV-I 5 W/m² 14,2 °C 16,6 °C 0,0 km/h (0 Bft)
02.06.2018 20:59 16,6 °C 86 % 1015,2 hPa 0,0 mm 0,0 km/h (0 Bft) SW 228 ° 0 min 0,000 mm 0,0 UV-I 5 W/m² 14,2 °C 16,6 °C 0,0 km/h (0 Bft)
02.06.2018 21:00 16,5 °C 86 % 1015,2 hPa 0,0 mm 0,0 km/h (0 Bft) SW 228 ° 0 min 0,000 mm 0,0 UV-I 5 W/m² 14,1 °C 16,5 °C 0,0 km/h (0 Bft)
02.06.2018 21:01 16,4 °C 86 % 1015,2 hPa 0,0 mm 0,0 km/h (0 Bft) SW 228 ° 0 min 0,025 mm 0,0 UV-I 5 W/m² 14,1 °C 16,4 °C 0,0 km/h (0 Bft)
02.06.2018 21:02 16,4 °C 86 % 1015,2 hPa 0,0 mm 0,0 km/h (0 Bft) SW 228 ° 0 min 0,000 mm 0,0 UV-I 5 W/m² 14,1 °C 16,4 °C 0,0 km/h (0 Bft)
02.06.2018 21:03 16,3 °C 87 % 1015,2 hPa 0,0 mm 0,0 km/h (0 Bft) SW 228 ° 0 min 0,000 mm 0,0 UV-I 5 W/m² 14,1 °C 16,3 °C 0,0 km/h (0 Bft)
02.06.2018 21:04 16,3 °C 87 % 1015,3 hPa 0,0 mm 0,0 km/h (0 Bft) SW 228 ° 0 min 0,000 mm 0,0 UV-I 5 W/m² 14,1 °C 16,3 °C 0,0 km/h (0 Bft)
02.06.2018 21:05 16,2 °C 87 % 1015,3 hPa 0,0 mm 0,0 km/h (0 Bft) SW 228 ° 0 min 0,000 mm 0,0 UV-I 0 W/m² 14,0 °C 16,2 °C 0,0 km/h (0 Bft)
02.06.2018 21:06 16,2 °C 87 % 1015,3 hPa 0,0 mm 0,0 km/h (0 Bft) SW 228 ° 0 min 0,000 mm 0,0 UV-I 0 W/m² 14,0 °C 16,2 °C 0,0 km/h (0 Bft)
02.06.2018 21:07 16,1 °C 87 % 1015,3 hPa 0,0 mm 0,0 km/h (0 Bft) SW 228 ° 0 min 0,000 mm 0,0 UV-I 0 W/m² 13,9 °C 16,1 °C 0,0 km/h (0 Bft)
02.06.2018 21:08 16,1 °C 87 % 1015,3 hPa 0,0 mm 0,0 km/h (0 Bft) SW 228 ° 0 min 0,000 mm 0,0 UV-I 0 W/m² 13,9 °C 16,1 °C 0,0 km/h (0 Bft)
02.06.2018 21:09 16,1 °C 87 % 1015,4 hPa 0,0 mm 0,0 km/h (0 Bft) SW 228 ° 0 min 0,000 mm 0,0 UV-I 0 W/m² 13,9 °C 16,1 °C 0,0 km/h (0 Bft)
02.06.2018 21:10 16,1 °C 87 % 1015,4 hPa 0,0 mm 0,0 km/h (0 Bft) SW 228 ° 0 min 0,000 mm 0,0 UV-I 0 W/m² 13,9 °C 16,1 °C 0,0 km/h (0 Bft)
02.06.2018 21:11 16,1 °C 87 % 1015,4 hPa 0,0 mm 0,0 km/h (0 Bft) SW 228 ° 0 min 0,000 mm 0,0 UV-I 0 W/m² 13,9 °C 16,1 °C 0,0 km/h (0 Bft)
02.06.2018 21:12 16,1 °C 87 % 1015,4 hPa 0,0 mm 0,0 km/h (0 Bft) SW 228 ° 0 min 0,000 mm 0,0 UV-I 0 W/m² 13,9 °C 16,1 °C 0,0 km/h (0 Bft)
02.06.2018 21:13 16,1 °C 88 % 1015,4 hPa 0,0 mm 0,0 km/h (0 Bft) SW 228 ° 0 min 0,000 mm 0,0 UV-I 0 W/m² 14,1 °C 16,1 °C 0,0 km/h (0 Bft)
02.06.2018 21:14 16,1 °C 87 % 1015,5 hPa 0,0 mm 0,0 km/h (0 Bft) SW 228 ° 0 min 0,000 mm 0,0 UV-I 0 W/m² 13,9 °C 16,1 °C 0,0 km/h (0 Bft)
02.06.2018 21:15 16,1 °C 87 % 1015,4 hPa 0,0 mm 0,0 km/h (0 Bft) SW 228 ° 0 min 0,000 mm 0,0 UV-I 0 W/m² 13,9 °C 16,1 °C 0,0 km/h (0 Bft)
02.06.2018 21:16 16,0 °C 87 % 1015,4 hPa 0,0 mm 0,0 km/h (0 Bft) SW 228 ° 0 min 0,000 mm 0,0 UV-I 0 W/m² 13,8 °C 16,0 °C 0,0 km/h (0 Bft)
02.06.2018 21:17 15,9 °C 87 % 1015,5 hPa 0,0 mm 0,0 km/h (0 Bft) SW 228 ° 0 min 0,000 mm 0,0 UV-I 0 W/m² 13,7 °C 15,9 °C 0,0 km/h (0 Bft)
02.06.2018 21:18 15,9 °C 88 % 1015,5 hPa 0,0 mm 0,0 km/h (0 Bft) SW 228 ° 0 min 0,000 mm 0,0 UV-I 0 W/m² 13,9 °C 15,9 °C 0,0 km/h (0 Bft)
02.06.2018 21:19 15,8 °C 87 % 1015,4 hPa 0,0 mm 0,0 km/h (0 Bft) SW 228 ° 0 min 0,000 mm 0,0 UV-I 0 W/m² 13,6 °C 15,8 °C 0,0 km/h (0 Bft)
02.06.2018 21:20 15,8 °C 88 % 1015,5 hPa 0,0 mm 0,0 km/h (0 Bft) SW 228 ° 0 min 0,000 mm 0,0 UV-I 0 W/m² 13,8 °C 15,8 °C 0,0 km/h (0 Bft)
02.06.2018 21:21 15,8 °C 88 % 1015,4 hPa 0,0 mm 0,0 km/h (0 Bft) SW 228 ° 0 min 0,000 mm 0,0 UV-I 0 W/m² 13,8 °C 15,8 °C 0,0 km/h (0 Bft)
02.06.2018 21:22 15,8 °C 88 % 1015,4 hPa 0,0 mm 0,0 km/h (0 Bft) SW 228 ° 0 min 0,000 mm 0,0 UV-I 0 W/m² 13,8 °C 15,8 °C 0,0 km/h (0 Bft)
02.06.2018 21:23 15,7 °C 88 % 1015,5 hPa 0,0 mm 0,0 km/h (0 Bft) SW 228 ° 0 min 0,000 mm 0,0 UV-I 0 W/m² 13,7 °C 15,7 °C 0,0 km/h (0 Bft)
02.06.2018 21:24 15,7 °C 88 % 1015,5 hPa 0,0 mm 0,0 km/h (0 Bft) SW 228 ° 0 min 0,000 mm 0,0 UV-I 0 W/m² 13,7 °C 15,7 °C 0,0 km/h (0 Bft)
02.06.2018 21:25 15,7 °C 88 % 1015,5 hPa 0,0 mm 0,0 km/h (0 Bft) SW 228 ° 0 min 0,000 mm 0,0 UV-I 0 W/m² 13,7 °C 15,7 °C 0,0 km/h (0 Bft)
02.06.2018 21:26 15,6 °C 88 % 1015,5 hPa 0,0 mm 0,0 km/h (0 Bft) SW 228 ° 0 min 0,000 mm 0,0 UV-I 0 W/m² 13,6 °C 15,6 °C 0,0 km/h (0 Bft)
02.06.2018 21:27 15,6 °C 88 % 1015,5 hPa 0,0 mm 0,0 km/h (0 Bft) SW 228 ° 0 min 0,000 mm 0,0 UV-I 0 W/m² 13,6 °C 15,6 °C 0,0 km/h (0 Bft)
02.06.2018 21:28 15,6 °C 88 % 1015,5 hPa 0,0 mm 0,0 km/h (0 Bft) SW 228 ° 0 min 0,000 mm 0,0 UV-I 0 W/m² 13,6 °C 15,6 °C 0,0 km/h (0 Bft)
02.06.2018 21:29 15,5 °C 88 % 1015,5 hPa 0,0 mm 0,0 km/h (0 Bft) SW 228 ° 0 min 0,000 mm 0,0 UV-I 0 W/m² 13,5 °C 15,5 °C 0,0 km/h (0 Bft)
02.06.2018 21:30 15,5 °C 88 % 1015,5 hPa 0,0 mm 0,0 km/h (0 Bft) SW 228 ° 0 min 0,000 mm 0,0 UV-I 0 W/m² 13,5 °C 15,5 °C 0,0 km/h (0 Bft)
02.06.2018 21:31 15,5 °C 88 % 1015,5 hPa 0,0 mm 0,0 km/h (0 Bft) SW 228 ° 0 min 0,000 mm 0,0 UV-I 0 W/m² 13,5 °C 15,5 °C 0,0 km/h (0 Bft)
02.06.2018 21:32 15,4 °C 88 % 1015,5 hPa 0,0 mm 0,0 km/h (0 Bft) SW 228 ° 0 min 0,000 mm 0,0 UV-I 0 W/m² 13,4 °C 15,4 °C 0,0 km/h (0 Bft)
02.06.2018 21:33 15,4 °C 88 % 1015,5 hPa 0,0 mm 0,0 km/h (0 Bft) SW 228 ° 0 min 0,000 mm 0,0 UV-I 0 W/m² 13,4 °C 15,4 °C 0,0 km/h (0 Bft)
02.06.2018 21:34 15,3 °C 88 % 1015,5 hPa 0,0 mm 0,0 km/h (0 Bft) SW 228 ° 0 min 0,000 mm 0,0 UV-I 0 W/m² 13,3 °C 15,3 °C 0,0 km/h (0 Bft)
02.06.2018 21:35 15,3 °C 89 % 1015,6 hPa 0,0 mm 0,0 km/h (0 Bft) SW 228 ° 0 min 0,000 mm 0,0 UV-I 0 W/m² 13,5 °C 15,3 °C 0,0 km/h (0 Bft)
02.06.2018 21:36 15,3 °C 89 % 1015,6 hPa 0,0 mm 0,0 km/h (0 Bft) SW 228 ° 0 min 0,000 mm 0,0 UV-I 0 W/m² 13,5 °C 15,3 °C 0,0 km/h (0 Bft)
02.06.2018 21:37 15,3 °C 89 % 1015,6 hPa 0,0 mm 0,0 km/h (0 Bft) SW 228 ° 0 min 0,000 mm 0,0 UV-I 0 W/m² 13,5 °C 15,3 °C 0,0 km/h (0 Bft)
02.06.2018 21:38 15,2 °C 89 % 1015,6 hPa 0,0 mm 0,0 km/h (0 Bft) SW 228 ° 0 min 0,000 mm 0,0 UV-I 0 W/m² 13,4 °C 15,2 °C 0,0 km/h (0 Bft)
02.06.2018 21:39 15,2 °C 89 % 1015,7 hPa 0,0 mm 0,0 km/h (0 Bft) SW 228 ° 0 min 0,000 mm 0,0 UV-I 0 W/m² 13,4 °C 15,2 °C 0,0 km/h (0 Bft)
02.06.2018 21:40 15,1 °C 89 % 1015,6 hPa 0,0 mm 0,0 km/h (0 Bft) SW 228 ° 0 min 0,000 mm 0,0 UV-I 0 W/m² 13,3 °C 15,1 °C 0,0 km/h (0 Bft)
02.06.2018 21:41 15,1 °C 89 % 1015,7 hPa 0,0 mm 0,0 km/h (0 Bft) SW 228 ° 0 min 0,000 mm 0,0 UV-I 0 W/m² 13,3 °C 15,1 °C 0,0 km/h (0 Bft)
02.06.2018 21:42 15,1 °C 89 % 1015,7 hPa 0,0 mm 0,0 km/h (0 Bft) SW 228 ° 0 min 0,000 mm 0,0 UV-I 0 W/m² 13,3 °C 15,1 °C 0,0 km/h (0 Bft)
02.06.2018 21:43 15,1 °C 89 % 1015,7 hPa 0,0 mm 0,0 km/h (0 Bft) SW 228 ° 0 min 0,000 mm 0,0 UV-I 0 W/m² 13,3 °C 15,1 °C 0,0 km/h (0 Bft)
02.06.2018 21:44 15,0 °C 89 % 1015,8 hPa 0,0 mm 0,0 km/h (0 Bft) SW 228 ° 0 min 0,000 mm 0,0 UV-I 0 W/m² 13,2 °C 15,0 °C 0,0 km/h (0 Bft)
02.06.2018 21:45 15,0 °C 89 % 1015,8 hPa 0,0 mm 0,0 km/h (0 Bft) SW 228 ° 0 min 0,000 mm 0,0 UV-I 0 W/m² 13,2 °C 15,0 °C 0,0 km/h (0 Bft)
02.06.2018 21:46 14,9 °C 89 % 1015,8 hPa 0,0 mm 0,0 km/h (0 Bft) SW 228 ° 0 min 0,000 mm 0,0 UV-I 0 W/m² 13,1 °C 14,9 °C 0,0 km/h (0 Bft)
02.06.2018 21:47 14,9 °C 89 % 1015,8 hPa 0,0 mm 0,0 km/h (0 Bft) SW 228 ° 0 min 0,000 mm 0,0 UV-I 0 W/m² 13,1 °C 14,9 °C 0,0 km/h (0 Bft)
02.06.2018 21:48 15,0 °C 90 % 1015,8 hPa 0,0 mm 0,0 km/h (0 Bft) SW 228 ° 0 min 0,000 mm 0,0 UV-I 0 W/m² 13,4 °C 15,0 °C 0,0 km/h (0 Bft)
02.06.2018 21:49 15,0 °C 89 % 1015,8 hPa 0,0 mm 0,0 km/h (0 Bft) SW 228 ° 0 min 0,000 mm 0,0 UV-I 0 W/m² 13,2 °C 15,0 °C 0,0 km/h (0 Bft)
02.06.2018 21:50 14,9 °C 89 % 1015,8 hPa 0,0 mm 0,0 km/h (0 Bft) SW 228 ° 0 min 0,000 mm 0,0 UV-I 0 W/m² 13,1 °C 14,9 °C 0,0 km/h (0 Bft)
02.06.2018 21:51 14,9 °C 89 % 1015,8 hPa 0,0 mm 0,0 km/h (0 Bft) SW 228 ° 0 min 0,000 mm 0,0 UV-I 0 W/m² 13,1 °C 14,9 °C 0,0 km/h (0 Bft)
02.06.2018 21:52 14,9 °C 89 % 1015,8 hPa 0,0 mm 0,0 km/h (0 Bft) SW 228 ° 0 min 0,000 mm 0,0 UV-I 0 W/m² 13,1 °C 14,9 °C 0,0 km/h (0 Bft)
02.06.2018 21:53 14,9 °C 89 % 1015,8 hPa 0,0 mm 0,0 km/h (0 Bft) SW 228 ° 0 min 0,000 mm 0,0 UV-I 0 W/m² 13,1 °C 14,9 °C 0,0 km/h (0 Bft)
02.06.2018 21:54 14,9 °C 89 % 1015,8 hPa 0,0 mm 0,0 km/h (0 Bft) SW 228 ° 0 min 0,000 mm 0,0 UV-I 0 W/m² 13,1 °C 14,9 °C 0,0 km/h (0 Bft)
02.06.2018 21:55 14,8 °C 89 % 1015,9 hPa 0,0 mm 0,0 km/h (0 Bft) SW 228 ° 0 min 0,000 mm 0,0 UV-I 0 W/m² 13,0 °C 14,8 °C 0,0 km/h (0 Bft)
02.06.2018 21:56 14,8 °C 90 % 1015,9 hPa 0,0 mm 0,0 km/h (0 Bft) SW 228 ° 0 min 0,000 mm 0,0 UV-I 0 W/m² 13,2 °C 14,8 °C 0,0 km/h (0 Bft)
02.06.2018 21:57 14,8 °C 90 % 1015,9 hPa 0,0 mm 0,0 km/h (0 Bft) SW 228 ° 0 min 0,000 mm 0,0 UV-I 0 W/m² 13,2 °C 14,8 °C 0,0 km/h (0 Bft)
02.06.2018 21:58 14,8 °C 90 % 1015,9 hPa 0,0 mm 0,0 km/h (0 Bft) SW 228 ° 0 min 0,000 mm 0,0 UV-I 0 W/m² 13,2 °C 14,8 °C 0,0 km/h (0 Bft)
02.06.2018 21:59 14,8 °C 90 % 1015,9 hPa 0,0 mm 0,0 km/h (0 Bft) SW 228 ° 0 min 0,000 mm 0,0 UV-I 0 W/m² 13,2 °C 14,8 °C 0,0 km/h (0 Bft)
02.06.2018 22:00 14,7 °C 90 % 1015,9 hPa 0,0 mm 0,0 km/h (0 Bft) SW 228 ° 0 min 0,000 mm 0,0 UV-I 0 W/m² 13,1 °C 14,7 °C 0,0 km/h (0 Bft)
02.06.2018 22:01 14,7 °C 90 % 1015,9 hPa 0,0 mm 0,0 km/h (0 Bft) SW 228 ° 0 min 0,000 mm 0,0 UV-I 0 W/m² 13,1 °C 14,7 °C 0,0 km/h (0 Bft)
02.06.2018 22:02 14,7 °C 90 % 1016,0 hPa 0,0 mm 0,0 km/h (0 Bft) SW 228 ° 0 min 0,000 mm 0,0 UV-I 0 W/m² 13,1 °C 14,7 °C 0,0 km/h (0 Bft)
02.06.2018 22:03 14,7 °C 90 % 1016,1 hPa 0,0 mm 0,0 km/h (0 Bft) SW 228 ° 0 min 0,000 mm 0,0 UV-I 0 W/m² 13,1 °C 14,7 °C 0,0 km/h (0 Bft)
02.06.2018 22:04 14,7 °C 90 % 1016,0 hPa 0,0 mm 0,0 km/h (0 Bft) SW 228 ° 0 min 0,000 mm 0,0 UV-I 0 W/m² 13,1 °C 14,7 °C 0,0 km/h (0 Bft)
02.06.2018 22:05 14,7 °C 90 % 1016,1 hPa 0,0 mm 0,0 km/h (0 Bft) SW 228 ° 0 min 0,000 mm 0,0 UV-I 0 W/m² 13,1 °C 14,7 °C 0,0 km/h (0 Bft)
02.06.2018 22:06 14,7 °C 90 % 1015,9 hPa 0,0 mm 0,0 km/h (0 Bft) SW 228 ° 0 min 0,000 mm 0,0 UV-I 0 W/m² 13,1 °C 14,7 °C 0,0 km/h (0 Bft)
02.06.2018 22:07 14,7 °C 90 % 1016,1 hPa 0,0 mm 0,0 km/h (0 Bft) SW 228 ° 0 min 0,000 mm 0,0 UV-I 0 W/m² 13,1 °C 14,7 °C 0,0 km/h (0 Bft)
02.06.2018 22:08 14,7 °C 90 % 1016,1 hPa 0,0 mm 0,0 km/h (0 Bft) SW 228 ° 0 min 0,000 mm 0,0 UV-I 0 W/m² 13,1 °C 14,7 °C 0,0 km/h (0 Bft)
02.06.2018 22:09 14,7 °C 90 % 1016,0 hPa 0,0 mm 0,0 km/h (0 Bft) SW 228 ° 0 min 0,000 mm 0,0 UV-I 0 W/m² 13,1 °C 14,7 °C 0,0 km/h (0 Bft)
02.06.2018 22:10 14,8 °C 90 % 1016,1 hPa 0,0 mm 0,0 km/h (0 Bft) SW 228 ° 0 min 0,000 mm 0,0 UV-I 0 W/m² 13,2 °C 14,8 °C 0,0 km/h (0 Bft)
02.06.2018 22:11 14,8 °C 90 % 1016,1 hPa 0,0 mm 0,0 km/h (0 Bft) SW 228 ° 0 min 0,000 mm 0,0 UV-I 0 W/m² 13,2 °C 14,8 °C 0,0 km/h (0 Bft)
02.06.2018 22:12 14,8 °C 90 % 1016,1 hPa 0,0 mm 0,0 km/h (0 Bft) SW 228 ° 0 min 0,000 mm 0,0 UV-I 0 W/m² 13,2 °C 14,8 °C 0,0 km/h (0 Bft)
02.06.2018 22:13 14,8 °C 90 % 1016,1 hPa 0,0 mm 0,0 km/h (0 Bft) SW 228 ° 0 min 0,000 mm 0,0 UV-I 0 W/m² 13,2 °C 14,8 °C 0,0 km/h (0 Bft)
02.06.2018 22:14 14,8 °C 90 % 1016,1 hPa 0,0 mm 0,0 km/h (0 Bft) SW 228 ° 0 min 0,000 mm 0,0 UV-I 0 W/m² 13,2 °C 14,8 °C 0,0 km/h (0 Bft)
02.06.2018 22:15 14,8 °C 90 % 1016,1 hPa 0,0 mm 0,0 km/h (0 Bft) SW 228 ° 0 min 0,000 mm 0,0 UV-I 0 W/m² 13,2 °C 14,8 °C 0,0 km/h (0 Bft)
02.06.2018 22:16 14,8 °C 89 % 1016,0 hPa 0,0 mm 0,0 km/h (0 Bft) SW 228 ° 0 min 0,000 mm 0,0 UV-I 0 W/m² 13,0 °C 14,8 °C 0,0 km/h (0 Bft)
02.06.2018 22:17 14,9 °C 89 % 1016,0 hPa 0,0 mm 0,0 km/h (0 Bft) SW 228 ° 0 min 0,000 mm 0,0 UV-I 0 W/m² 13,1 °C 14,9 °C 0,0 km/h (0 Bft)
02.06.2018 22:18 14,8 °C 89 % 1016,0 hPa 0,0 mm 0,0 km/h (0 Bft) SW 228 ° 0 min 0,000 mm 0,0 UV-I 0 W/m² 13,0 °C 14,8 °C 0,0 km/h (0 Bft)
02.06.2018 22:19 14,8 °C 89 % 1016,1 hPa 0,0 mm 0,0 km/h (0 Bft) SW 228 ° 0 min 0,000 mm 0,0 UV-I 0 W/m² 13,0 °C 14,8 °C 0,0 km/h (0 Bft)
02.06.2018 22:20 14,7 °C 89 % 1016,1 hPa 0,0 mm 0,0 km/h (0 Bft) SW 228 ° 0 min 0,000 mm 0,0 UV-I 0 W/m² 12,9 °C 14,7 °C 0,0 km/h (0 Bft)
02.06.2018 22:21 14,7 °C 89 % 1016,1 hPa 0,0 mm 0,0 km/h (0 Bft) SW 228 ° 0 min 0,000 mm 0,0 UV-I 0 W/m² 12,9 °C 14,7 °C 0,0 km/h (0 Bft)
02.06.2018 22:22 14,6 °C 89 % 1016,1 hPa 0,0 mm 0,0 km/h (0 Bft) SW 228 ° 0 min 0,000 mm 0,0 UV-I 0 W/m² 12,8 °C 14,6 °C 0,0 km/h (0 Bft)
02.06.2018 22:23 14,6 °C 90 % 1016,0 hPa 0,0 mm 0,0 km/h (0 Bft) SW 228 ° 0 min 0,000 mm 0,0 UV-I 0 W/m² 13,0 °C 14,6 °C 0,0 km/h (0 Bft)
02.06.2018 22:24 14,5 °C 89 % 1016,0 hPa 0,0 mm 0,0 km/h (0 Bft) SW 228 ° 0 min 0,000 mm 0,0 UV-I 0 W/m² 12,7 °C 14,5 °C 0,0 km/h (0 Bft)
02.06.2018 22:25 14,4 °C 90 % 1016,0 hPa 0,0 mm 0,0 km/h (0 Bft) SW 228 ° 0 min 0,000 mm 0,0 UV-I 0 W/m² 12,8 °C 14,4 °C 0,0 km/h (0 Bft)
02.06.2018 22:26 14,4 °C 90 % 1015,9 hPa 0,0 mm 0,0 km/h (0 Bft) SW 228 ° 0 min 0,000 mm 0,0 UV-I 0 W/m² 12,8 °C 14,4 °C 0,0 km/h (0 Bft)
02.06.2018 22:27 14,3 °C 90 % 1015,9 hPa 0,0 mm 0,0 km/h (0 Bft) SW 228 ° 0 min 0,000 mm 0,0 UV-I 0 W/m² 12,7 °C 14,3 °C 0,0 km/h (0 Bft)
02.06.2018 22:28 14,3 °C 90 % 1016,0 hPa 0,0 mm 0,0 km/h (0 Bft) SW 228 ° 0 min 0,000 mm 0,0 UV-I 0 W/m² 12,7 °C 14,3 °C 0,0 km/h (0 Bft)
02.06.2018 22:29 14,3 °C 90 % 1015,9 hPa 0,0 mm 0,0 km/h (0 Bft) SW 228 ° 0 min 0,000 mm 0,0 UV-I 0 W/m² 12,7 °C 14,3 °C 0,0 km/h (0 Bft)
02.06.2018 22:30 14,3 °C 90 % 1015,9 hPa 0,0 mm 0,0 km/h (0 Bft) SW 228 ° 0 min 0,000 mm 0,0 UV-I 0 W/m² 12,7 °C 14,3 °C 0,0 km/h (0 Bft)
02.06.2018 22:31 14,2 °C 90 % 1015,9 hPa 0,0 mm 0,0 km/h (0 Bft) SW 228 ° 0 min 0,000 mm 0,0 UV-I 0 W/m² 12,6 °C 14,2 °C 0,0 km/h (0 Bft)
02.06.2018 22:32 14,2 °C 90 % 1015,9 hPa 0,0 mm 0,0 km/h (0 Bft) SW 228 ° 0 min 0,000 mm 0,0 UV-I 0 W/m² 12,6 °C 14,2 °C 0,0 km/h (0 Bft)
02.06.2018 22:33 14,2 °C 90 % 1015,9 hPa 0,0 mm 0,0 km/h (0 Bft) SW 228 ° 0 min 0,000 mm 0,0 UV-I 0 W/m² 12,6 °C 14,2 °C 0,0 km/h (0 Bft)
02.06.2018 22:34 14,2 °C 90 % 1015,9 hPa 0,0 mm 0,0 km/h (0 Bft) SW 228 ° 0 min 0,000 mm 0,0 UV-I 0 W/m² 12,6 °C 14,2 °C 0,0 km/h (0 Bft)
02.06.2018 22:35 14,1 °C 90 % 1015,9 hPa 0,0 mm 0,0 km/h (0 Bft) SW 228 ° 0 min 0,000 mm 0,0 UV-I 0 W/m² 12,5 °C 14,1 °C 0,0 km/h (0 Bft)
02.06.2018 22:36 14,1 °C 91 % 1015,9 hPa 0,0 mm 0,0 km/h (0 Bft) SW 228 ° 0 min 0,000 mm 0,0 UV-I 0 W/m² 12,7 °C 14,1 °C 0,0 km/h (0 Bft)
02.06.2018 22:37 14,1 °C 91 % 1015,9 hPa 0,0 mm 0,0 km/h (0 Bft) SW 228 ° 0 min 0,000 mm 0,0 UV-I 0 W/m² 12,7 °C 14,1 °C 0,0 km/h (0 Bft)
02.06.2018 22:38 14,1 °C 91 % 1015,9 hPa 0,0 mm 0,0 km/h (0 Bft) SW 228 ° 0 min 0,000 mm 0,0 UV-I 0 W/m² 12,7 °C 14,1 °C 0,0 km/h (0 Bft)
02.06.2018 22:39 14,1 °C 91 % 1015,9 hPa 0,0 mm 0,0 km/h (0 Bft) SW 228 ° 0 min 0,000 mm 0,0 UV-I 0 W/m² 12,7 °C 14,1 °C 0,0 km/h (0 Bft)
02.06.2018 22:40 14,1 °C 91 % 1016,0 hPa 0,0 mm 0,0 km/h (0 Bft) SW 228 ° 0 min 0,000 mm 0,0 UV-I 0 W/m² 12,7 °C 14,1 °C 0,0 km/h (0 Bft)
02.06.2018 22:41 13,9 °C 90 % 1015,9 hPa 0,0 mm 0,0 km/h (0 Bft) SW 228 ° 0 min 0,000 mm 0,0 UV-I 0 W/m² 12,3 °C 13,9 °C 0,0 km/h (0 Bft)
02.06.2018 22:42 13,9 °C 90 % 1015,9 hPa 0,0 mm 0,0 km/h (0 Bft) SW 228 ° 0 min 0,000 mm 0,0 UV-I 0 W/m² 12,3 °C 13,9 °C 0,0 km/h (0 Bft)
02.06.2018 22:43 13,9 °C 91 % 1015,9 hPa 0,0 mm 0,0 km/h (0 Bft) SW 228 ° 0 min 0,000 mm 0,0 UV-I 0 W/m² 12,5 °C 13,9 °C 0,0 km/h (0 Bft)
02.06.2018 22:44 13,9 °C 91 % 1015,9 hPa 0,0 mm 0,0 km/h (0 Bft) SW 233 ° 0 min 0,000 mm 0,0 UV-I 0 W/m² 12,5 °C 13,9 °C 0,0 km/h (0 Bft)
02.06.2018 22:45 13,9 °C 90 % 1015,9 hPa 0,0 mm 1,7 km/h (1 Bft) SW 232 ° 0 min 0,000 mm 0,0 UV-I 0 W/m² 12,3 °C 13,9 °C 3,2 km/h (1 Bft)
02.06.2018 22:46 14,0 °C 90 % 1015,9 hPa 0,0 mm 0,3 km/h (0 Bft) SW 232 ° 0 min 0,000 mm 0,0 UV-I 0 W/m² 12,4 °C 14,0 °C 1,6 km/h (1 Bft)
02.06.2018 22:47 14,0 °C 90 % 1015,9 hPa 0,0 mm 0,3 km/h (0 Bft) SW 232 ° 0 min 0,000 mm 0,0 UV-I 0 W/m² 12,4 °C 14,0 °C 1,6 km/h (1 Bft)
02.06.2018 22:48 14,1 °C 90 % 1015,9 hPa 0,0 mm 2,6 km/h (1 Bft) W-SW 246 ° 0 min 0,000 mm 0,0 UV-I 0 W/m² 12,5 °C 14,1 °C 4,8 km/h (1 Bft)
02.06.2018 22:49 14,2 °C 90 % 1016,0 hPa 0,0 mm 3,6 km/h (1 Bft) W-SW 246 ° 0 min 0,000 mm 0,0 UV-I 0 W/m² 12,6 °C 14,2 °C 4,8 km/h (1 Bft)
02.06.2018 22:50 14,3 °C 90 % 1016,0 hPa 0,0 mm 1,8 km/h (1 Bft) W-SW 246 ° 0 min 0,000 mm 0,0 UV-I 0 W/m² 12,7 °C 14,3 °C 4,8 km/h (1 Bft)
02.06.2018 22:51 14,2 °C 90 % 1016,1 hPa 0,0 mm 0,0 km/h (0 Bft) W-SW 246 ° 0 min 0,000 mm 0,0 UV-I 0 W/m² 12,6 °C 14,2 °C 0,0 km/h (0 Bft)
02.06.2018 22:52 14,2 °C 90 % 1016,1 hPa 0,0 mm 0,0 km/h (0 Bft) W-SW 246 ° 0 min 0,000 mm 0,0 UV-I 0 W/m² 12,6 °C 14,2 °C 0,0 km/h (0 Bft)
02.06.2018 22:53 14,2 °C 89 % 1016,1 hPa 0,0 mm 0,0 km/h (0 Bft) W-SW 246 ° 0 min 0,000 mm 0,0 UV-I 0 W/m² 12,4 °C 14,2 °C 0,0 km/h (0 Bft)
02.06.2018 22:54 14,1 °C 90 % 1016,1 hPa 0,0 mm 0,0 km/h (0 Bft) W-SW 246 ° 0 min 0,000 mm 0,0 UV-I 0 W/m² 12,5 °C 14,1 °C 0,0 km/h (0 Bft)
02.06.2018 22:55 14,1 °C 90 % 1016,1 hPa 0,0 mm 0,0 km/h (0 Bft) W-SW 246 ° 0 min 0,000 mm 0,0 UV-I 0 W/m² 12,5 °C 14,1 °C 0,0 km/h (0 Bft)
02.06.2018 22:56 14,1 °C 90 % 1016,1 hPa 0,0 mm 0,0 km/h (0 Bft) W-SW 246 ° 0 min 0,000 mm 0,0 UV-I 0 W/m² 12,5 °C 14,1 °C 0,0 km/h (0 Bft)
02.06.2018 22:57 14,1 °C 90 % 1016,1 hPa 0,0 mm 0,0 km/h (0 Bft) W-SW 246 ° 0 min 0,000 mm 0,0 UV-I 0 W/m² 12,5 °C 14,1 °C 0,0 km/h (0 Bft)
02.06.2018 22:58 14,1 °C 90 % 1016,1 hPa 0,0 mm 0,0 km/h (0 Bft) W-SW 246 ° 0 min 0,000 mm 0,0 UV-I 0 W/m² 12,5 °C 14,1 °C 0,0 km/h (0 Bft)
02.06.2018 22:59 14,1 °C 90 % 1016,1 hPa 0,0 mm 0,0 km/h (0 Bft) W-SW 246 ° 0 min 0,000 mm 0,0 UV-I 0 W/m² 12,5 °C 14,1 °C 0,0 km/h (0 Bft)
02.06.2018 23:00 14,1 °C 90 % 1016,1 hPa 0,0 mm 0,0 km/h (0 Bft) W-SW 246 ° 0 min 0,000 mm 0,0 UV-I 0 W/m² 12,5 °C 14,1 °C 0,0 km/h (0 Bft)
02.06.2018 23:01 14,1 °C 90 % 1016,2 hPa 0,0 mm 0,0 km/h (0 Bft) W-SW 246 ° 0 min 0,000 mm 0,0 UV-I 0 W/m² 12,5 °C 14,1 °C 0,0 km/h (0 Bft)
02.06.2018 23:02 14,1 °C 89 % 1016,1 hPa 0,0 mm 0,0 km/h (0 Bft) W-SW 246 ° 0 min 0,000 mm 0,0 UV-I 0 W/m² 12,3 °C 14,1 °C 0,0 km/h (0 Bft)
02.06.2018 23:03 14,1 °C 89 % 1016,1 hPa 0,0 mm 0,0 km/h (0 Bft) W-SW 246 ° 0 min 0,000 mm 0,0 UV-I 0 W/m² 12,3 °C 14,1 °C 0,0 km/h (0 Bft)
02.06.2018 23:04 14,1 °C 89 % 1016,1 hPa 0,0 mm 0,0 km/h (0 Bft) W-SW 246 ° 0 min 0,000 mm 0,0 UV-I 0 W/m² 12,3 °C 14,1 °C 0,0 km/h (0 Bft)
02.06.2018 23:05 14,1 °C 89 % 1016,1 hPa 0,0 mm 0,0 km/h (0 Bft) W-SW 246 ° 0 min 0,000 mm 0,0 UV-I 0 W/m² 12,3 °C 14,1 °C 0,0 km/h (0 Bft)
02.06.2018 23:06 14,1 °C 89 % 1016,1 hPa 0,0 mm 0,0 km/h (0 Bft) W-SW 246 ° 0 min 0,000 mm 0,0 UV-I 0 W/m² 12,3 °C 14,1 °C 0,0 km/h (0 Bft)
02.06.2018 23:07 14,0 °C 89 % 1016,1 hPa 0,0 mm 0,0 km/h (0 Bft) W-SW 246 ° 0 min 0,000 mm 0,0 UV-I 0 W/m² 12,2 °C 14,0 °C 0,0 km/h (0 Bft)
02.06.2018 23:08 14,0 °C 89 % 1016,1 hPa 0,0 mm 0,0 km/h (0 Bft) W-SW 246 ° 0 min 0,000 mm 0,0 UV-I 0 W/m² 12,2 °C 14,0 °C 0,0 km/h (0 Bft)
02.06.2018 23:09 13,9 °C 89 % 1016,1 hPa 0,0 mm 0,0 km/h (0 Bft) W-SW 246 ° 0 min 0,000 mm 0,0 UV-I 0 W/m² 12,1 °C 13,9 °C 0,0 km/h (0 Bft)
02.06.2018 23:10 13,9 °C 89 % 1016,1 hPa 0,0 mm 0,0 km/h (0 Bft) W-SW 246 ° 0 min 0,000 mm 0,0 UV-I 0 W/m² 12,1 °C 13,9 °C 0,0 km/h (0 Bft)
02.06.2018 23:11 13,9 °C 89 % 1016,1 hPa 0,0 mm 0,0 km/h (0 Bft) W-SW 246 ° 0 min 0,000 mm 0,0 UV-I 0 W/m² 12,1 °C 13,9 °C 0,0 km/h (0 Bft)
02.06.2018 23:12 13,8 °C 89 % 1016,1 hPa 0,0 mm 0,0 km/h (0 Bft) W-SW 246 ° 0 min 0,000 mm 0,0 UV-I 0 W/m² 12,0 °C 13,8 °C 0,0 km/h (0 Bft)
02.06.2018 23:13 13,8 °C 89 % 1016,1 hPa 0,0 mm 0,0 km/h (0 Bft) W-SW 246 ° 0 min 0,000 mm 0,0 UV-I 0 W/m² 12,0 °C 13,8 °C 0,0 km/h (0 Bft)
02.06.2018 23:14 13,8 °C 89 % 1016,1 hPa 0,0 mm 0,0 km/h (0 Bft) W-SW 246 ° 0 min 0,000 mm 0,0 UV-I 0 W/m² 12,0 °C 13,8 °C 0,0 km/h (0 Bft)
02.06.2018 23:15 13,8 °C 89 % 1016,1 hPa 0,0 mm 0,0 km/h (0 Bft) W-SW 246 ° 0 min 0,000 mm 0,0 UV-I 0 W/m² 12,0 °C 13,8 °C 0,0 km/h (0 Bft)
02.06.2018 23:16 13,7 °C 89 % 1016,1 hPa 0,0 mm 0,0 km/h (0 Bft) W-SW 246 ° 0 min 0,000 mm 0,0 UV-I 0 W/m² 11,9 °C 13,7 °C 0,0 km/h (0 Bft)
02.06.2018 23:17 13,7 °C 89 % 1016,1 hPa 0,0 mm 0,0 km/h (0 Bft) W-SW 246 ° 0 min 0,000 mm 0,0 UV-I 0 W/m² 11,9 °C 13,7 °C 0,0 km/h (0 Bft)
02.06.2018 23:18 13,7 °C 90 % 1016,1 hPa 0,0 mm 0,0 km/h (0 Bft) W-SW 246 ° 0 min 0,000 mm 0,0 UV-I 0 W/m² 12,1 °C 13,7 °C 0,0 km/h (0 Bft)
02.06.2018 23:19 13,7 °C 90 % 1016,1 hPa 0,0 mm 0,0 km/h (0 Bft) W-SW 246 ° 0 min 0,000 mm 0,0 UV-I 0 W/m² 12,1 °C 13,7 °C 0,0 km/h (0 Bft)
02.06.2018 23:20 13,7 °C 90 % 1016,1 hPa 0,0 mm 0,0 km/h (0 Bft) W-SW 246 ° 0 min 0,000 mm 0,0 UV-I 0 W/m² 12,1 °C 13,7 °C 0,0 km/h (0 Bft)
02.06.2018 23:21 13,6 °C 90 % 1016,1 hPa 0,0 mm 0,0 km/h (0 Bft) W-SW 246 ° 0 min 0,000 mm 0,0 UV-I 0 W/m² 12,0 °C 13,6 °C 0,0 km/h (0 Bft)
02.06.2018 23:22 13,6 °C 90 % 1016,1 hPa 0,0 mm 0,0 km/h (0 Bft) W-SW 246 ° 0 min 0,000 mm 0,0 UV-I 0 W/m² 12,0 °C 13,6 °C 0,0 km/h (0 Bft)
02.06.2018 23:23 13,6 °C 90 % 1016,1 hPa 0,0 mm 0,0 km/h (0 Bft) W-SW 246 ° 0 min 0,000 mm 0,0 UV-I 0 W/m² 12,0 °C 13,6 °C 0,0 km/h (0 Bft)
02.06.2018 23:24 13,6 °C 90 % 1016,1 hPa 0,0 mm 0,0 km/h (0 Bft) W-SW 246 ° 0 min 0,000 mm 0,0 UV-I 0 W/m² 12,0 °C 13,6 °C 0,0 km/h (0 Bft)
02.06.2018 23:25 13,5 °C 90 % 1016,1 hPa 0,0 mm 0,0 km/h (0 Bft) W-SW 246 ° 0 min 0,000 mm 0,0 UV-I 0 W/m² 11,9 °C 13,5 °C 0,0 km/h (0 Bft)
02.06.2018 23:26 13,5 °C 90 % 1016,1 hPa 0,0 mm 0,0 km/h (0 Bft) W-SW 246 ° 0 min 0,000 mm 0,0 UV-I 0 W/m² 11,9 °C 13,5 °C 0,0 km/h (0 Bft)
02.06.2018 23:27 13,5 °C 90 % 1016,1 hPa 0,0 mm 0,0 km/h (0 Bft) W-SW 246 ° 0 min 0,000 mm 0,0 UV-I 0 W/m² 11,9 °C 13,5 °C 0,0 km/h (0 Bft)
02.06.2018 23:28 13,4 °C 90 % 1016,1 hPa 0,0 mm 0,0 km/h (0 Bft) W-SW 246 ° 0 min 0,000 mm 0,0 UV-I 0 W/m² 11,8 °C 13,4 °C 0,0 km/h (0 Bft)
02.06.2018 23:29 13,4 °C 90 % 1016,1 hPa 0,0 mm 0,0 km/h (0 Bft) W-SW 246 ° 0 min 0,000 mm 0,0 UV-I 0 W/m² 11,8 °C 13,4 °C 0,0 km/h (0 Bft)
02.06.2018 23:30 13,4 °C 90 % 1016,1 hPa 0,0 mm 0,0 km/h (0 Bft) W-SW 246 ° 0 min 0,000 mm 0,0 UV-I 0 W/m² 11,8 °C 13,4 °C 0,0 km/h (0 Bft)
02.06.2018 23:31 13,4 °C 90 % 1016,1 hPa 0,0 mm 0,0 km/h (0 Bft) W-SW 246 ° 0 min 0,000 mm 0,0 UV-I 0 W/m² 11,8 °C 13,4 °C 0,0 km/h (0 Bft)
02.06.2018 23:32 13,4 °C 90 % 1016,2 hPa 0,0 mm 0,0 km/h (0 Bft) W-SW 246 ° 0 min 0,000 mm 0,0 UV-I 0 W/m² 11,8 °C 13,4 °C 0,0 km/h (0 Bft)
02.06.2018 23:33 13,4 °C 91 % 1016,2 hPa 0,0 mm 0,0 km/h (0 Bft) W-SW 246 ° 0 min 0,000 mm 0,0 UV-I 0 W/m² 12,0 °C 13,4 °C 0,0 km/h (0 Bft)
02.06.2018 23:34 13,4 °C 91 % 1016,2 hPa 0,0 mm 0,0 km/h (0 Bft) W-SW 246 ° 0 min 0,000 mm 0,0 UV-I 0 W/m² 12,0 °C 13,4 °C 0,0 km/h (0 Bft)
02.06.2018 23:35 13,4 °C 91 % 1016,2 hPa 0,0 mm 0,0 km/h (0 Bft) W-SW 246 ° 0 min 0,000 mm 0,0 UV-I 0 W/m² 12,0 °C 13,4 °C 0,0 km/h (0 Bft)
02.06.2018 23:36 13,3 °C 91 % 1016,2 hPa 0,0 mm 0,0 km/h (0 Bft) W-SW 246 ° 0 min 0,000 mm 0,0 UV-I 0 W/m² 11,9 °C 13,3 °C 0,0 km/h (0 Bft)
02.06.2018 23:37 13,3 °C 91 % 1016,2 hPa 0,0 mm 0,0 km/h (0 Bft) W-SW 246 ° 0 min 0,000 mm 0,0 UV-I 0 W/m² 11,9 °C 13,3 °C 0,0 km/h (0 Bft)
02.06.2018 23:38 13,3 °C 91 % 1016,2 hPa 0,0 mm 0,0 km/h (0 Bft) W-SW 246 ° 0 min 0,000 mm 0,0 UV-I 0 W/m² 11,9 °C 13,3 °C 0,0 km/h (0 Bft)
02.06.2018 23:39 13,3 °C 91 % 1016,2 hPa 0,0 mm 0,0 km/h (0 Bft) W-SW 246 ° 0 min 0,000 mm 0,0 UV-I 0 W/m² 11,9 °C 13,3 °C 0,0 km/h (0 Bft)
02.06.2018 23:40 13,3 °C 91 % 1016,2 hPa 0,0 mm 0,0 km/h (0 Bft) W-SW 246 ° 0 min 0,000 mm 0,0 UV-I 0 W/m² 11,9 °C 13,3 °C 0,0 km/h (0 Bft)
02.06.2018 23:41 13,3 °C 91 % 1016,2 hPa 0,0 mm 0,0 km/h (0 Bft) W-SW 246 ° 0 min 0,000 mm 0,0 UV-I 0 W/m² 11,9 °C 13,3 °C 0,0 km/h (0 Bft)
02.06.2018 23:42 13,2 °C 91 % 1016,2 hPa 0,0 mm 0,0 km/h (0 Bft) W-SW 246 ° 0 min 0,000 mm 0,0 UV-I 0 W/m² 11,8 °C 13,2 °C 0,0 km/h (0 Bft)
02.06.2018 23:43 13,2 °C 91 % 1016,2 hPa 0,0 mm 0,0 km/h (0 Bft) W-SW 246 ° 0 min 0,000 mm 0,0 UV-I 0 W/m² 11,8 °C 13,2 °C 0,0 km/h (0 Bft)
02.06.2018 23:44 13,2 °C 91 % 1016,2 hPa 0,0 mm 0,0 km/h (0 Bft) W-SW 246 ° 0 min 0,000 mm 0,0 UV-I 0 W/m² 11,8 °C 13,2 °C 0,0 km/h (0 Bft)
02.06.2018 23:45 13,2 °C 91 % 1016,2 hPa 0,0 mm 0,0 km/h (0 Bft) W-SW 246 ° 0 min 0,000 mm 0,0 UV-I 0 W/m² 11,8 °C 13,2 °C 0,0 km/h (0 Bft)
02.06.2018 23:46 13,1 °C 91 % 1016,2 hPa 0,0 mm 0,0 km/h (0 Bft) W-SW 246 ° 0 min 0,000 mm 0,0 UV-I 0 W/m² 11,7 °C 13,1 °C 0,0 km/h (0 Bft)
02.06.2018 23:47 13,1 °C 91 % 1016,2 hPa 0,0 mm 0,0 km/h (0 Bft) W-SW 246 ° 0 min 0,000 mm 0,0 UV-I 0 W/m² 11,7 °C 13,1 °C 0,0 km/h (0 Bft)
02.06.2018 23:48 13,0 °C 91 % 1016,3 hPa 0,0 mm 0,0 km/h (0 Bft) W-SW 246 ° 0 min 0,000 mm 0,0 UV-I 0 W/m² 11,6 °C 13,0 °C 0,0 km/h (0 Bft)
02.06.2018 23:49 13,0 °C 91 % 1016,2 hPa 0,0 mm 0,0 km/h (0 Bft) W-SW 246 ° 0 min 0,000 mm 0,0 UV-I 0 W/m² 11,6 °C 13,0 °C 0,0 km/h (0 Bft)
02.06.2018 23:50 12,9 °C 91 % 1016,2 hPa 0,0 mm 0,0 km/h (0 Bft) W-SW 246 ° 0 min 0,000 mm 0,0 UV-I 0 W/m² 11,5 °C 12,9 °C 0,0 km/h (0 Bft)
02.06.2018 23:51 12,9 °C 91 % 1016,3 hPa 0,0 mm 0,0 km/h (0 Bft) W-SW 246 ° 0 min 0,000 mm 0,0 UV-I 0 W/m² 11,5 °C 12,9 °C 0,0 km/h (0 Bft)
02.06.2018 23:52 12,9 °C 91 % 1016,3 hPa 0,0 mm 0,0 km/h (0 Bft) W-SW 246 ° 0 min 0,000 mm 0,0 UV-I 0 W/m² 11,5 °C 12,9 °C 0,0 km/h (0 Bft)
02.06.2018 23:53 12,8 °C 91 % 1016,3 hPa 0,0 mm 0,0 km/h (0 Bft) W-SW 246 ° 0 min 0,000 mm 0,0 UV-I 0 W/m² 11,4 °C 12,8 °C 0,0 km/h (0 Bft)
02.06.2018 23:54 12,8 °C 91 % 1016,3 hPa 0,0 mm 0,0 km/h (0 Bft) W-SW 246 ° 0 min 0,000 mm 0,0 UV-I 0 W/m² 11,4 °C 12,8 °C 0,0 km/h (0 Bft)
02.06.2018 23:55 12,8 °C 91 % 1016,3 hPa 0,0 mm 0,0 km/h (0 Bft) W-SW 246 ° 0 min 0,000 mm 0,0 UV-I 0 W/m² 11,4 °C 12,8 °C 0,0 km/h (0 Bft)
02.06.2018 23:56 12,8 °C 91 % 1016,3 hPa 0,0 mm 0,0 km/h (0 Bft) W-SW 246 ° 0 min 0,000 mm 0,0 UV-I 0 W/m² 11,4 °C 12,8 °C 0,0 km/h (0 Bft)
02.06.2018 23:57 12,8 °C 91 % 1016,3 hPa 0,0 mm 0,0 km/h (0 Bft) W-SW 246 ° 0 min 0,000 mm 0,0 UV-I 0 W/m² 11,4 °C 12,8 °C 0,0 km/h (0 Bft)
02.06.2018 23:58 12,7 °C 91 % 1016,3 hPa 0,0 mm 0,0 km/h (0 Bft) W-SW 246 ° 0 min 0,000 mm 0,0 UV-I 0 W/m² 11,3 °C 12,7 °C 0,0 km/h (0 Bft)
02.06.2018 23:59 12,6 °C 90 % 1016,3 hPa 0,0 mm 0,0 km/h (0 Bft) W-SW 246 ° 0 min 0,000 mm 0,0 UV-I 0 W/m² 11,0 °C 12,6 °C 0,0 km/h (0 Bft)
_ Min-Zeit 04:41 18:38 19:24 - 23:59 - - - - - - 04:37 04:41 23:59
Minimum _ 12,2 °C 66 % 1014,9 hPa - 0,0 km/h (0 Bft) - - - - - - 10,6 °C 12,2 °C 0,0 km/h (0 Bft)
_ Max-Zeit 13:59 06:17 07:58 14:46 12:34 - - 14:12 14:01 13:55 11:33 13:53 13:59 12:34
Maximum _ 20,9 °C 92 % 1017,3 hPa 0,2 mm 11,9 km/h
O-SO (2 Bft)
- - 1 min 0,432 mm 7,6 UV-I 1121 W/m² 16,7 °C 20,9 °C 16,1 km/h
O (3 Bft)
Durchschnitt _ 16,6 °C 82 % 1016,3 hPa #0,6 mm 1,4 km/h (1 Bft) O-NO - #2:59 h #2,819 mm 2,8 UV-I 194 W/m² 13,4 °C 16,6 °C 2,5 km/h (1 Bft)